[[{"header":{"parameterUnit":"m.s-1","parameterCategory":1,"la1":30.6,"la2":29.2853,"lo1":-89.7004,"lo2":-87.6739,"dy":0.0162,"dx":0.0183,"nx":112,"ny":82,"refTime":"2023-06-09T06:00:00:Z","depth":0,"parameterNumber":2,"parameterNumberName":"U-component_of_WINDS"},"data":[0.0,0.0,0.0,0.0,0.0,0.0,0.0,0.0,0.0,0.0,0.0,0.0,0.0,0.0,0.0,0.0,0.0,0.0,0.0,0.0,0.0,0.0,0.0,0.0,0.0,0.0,0.0,0.0,0.0,0.0,0.0,0.0,0.0,0.0,0.0,0.0,0.0,0.0,0.0,0.0,0.0,0.0,0.0,0.0,0.0,0.0,0.0,0.0,0.0,0.0,0.0,0.0,0.0,0.0,0.0,0.0,0.0,0.0,0.0,0.0,0.0,0.0,0.0,0.0,0.0,0.0,0.0,0.0,0.0,0.0,0.0,0.0,0.0,0.0,0.0,0.0,0.0,0.0,0.0,0.0,0.0,0.0,0.0,0.0,0.0,0.0,0.0,0.0,0.0,0.0,-5.0112,-5.0112,-5.0112,-5.0112,-5.0112,-4.9474,-4.9094,-4.9094,0.0,0.0,0.0,0.0,0.0,0.0,0.0,0.0,0.0,0.0,0.0,0.0,0.0,0.0,0.0,0.0,0.0,0.0,0.0,0.0,0.0,0.0,0.0,0.0,0.0,0.0,0.0,0.0,0.0,0.0,0.0,0.0,0.0,0.0,0.0,0.0,0.0,0.0,0.0,0.0,0.0,0.0,0.0,0.0,0.0,0.0,0.0,0.0,0.0,0.0,0.0,0.0,0.0,0.0,0.0,0.0,0.0,0.0,0.0,0.0,0.0,0.0,0.0,0.0,0.0,0.0,0.0,0.0,0.0,0.0,0.0,0.0,0.0,0.0,0.0,0.0,0.0,0.0,0.0,0.0,0.0,0.0,0.0,0.0,0.0,0.0,0.0,0.0,0.0,0.0,0.0,0.0,0.0,0.0,0.0,0.0,0.0,0.0,0.0,0.0,0.0,0.0,0.0,0.0,-5.0112,-5.0112,-5.0112,-5.0112,-5.0112,-5.0003,-4.9908,-4.9908,0.0,0.0,0.0,0.0,0.0,0.0,0.0,0.0,0.0,0.0,0.0,0.0,0.0,0.0,0.0,0.0,0.0,0.0,0.0,0.0,0.0,0.0,0.0,0.0,0.0,0.0,0.0,0.0,0.0,0.0,0.0,0.0,0.0,0.0,0.0,0.0,0.0,0.0,0.0,0.0,0.0,0.0,0.0,0.0,0.0,0.0,0.0,0.0,0.0,0.0,0.0,0.0,0.0,0.0,0.0,0.0,0.0,0.0,0.0,0.0,0.0,0.0,0.0,0.0,0.0,0.0,0.0,0.0,0.0,0.0,0.0,0.0,0.0,0.0,0.0,0.0,0.0,0.0,0.0,0.0,0.0,0.0,0.0,0.0,0.0,0.0,0.0,0.0,0.0,0.0,0.0,0.0,0.0,0.0,0.0,0.0,0.0,0.0,0.0,0.0,0.0,0.0,0.0,-5.1393,-5.1393,-5.1393,-5.1393,-5.1393,-5.1393,-5.0995,-5.0764,-5.0764,-4.9637,0.0,0.0,0.0,0.0,0.0,0.0,0.0,0.0,0.0,0.0,0.0,0.0,0.0,0.0,0.0,0.0,0.0,0.0,0.0,0.0,0.0,0.0,0.0,0.0,0.0,0.0,0.0,0.0,0.0,0.0,0.0,0.0,0.0,0.0,0.0,0.0,0.0,0.0,0.0,0.0,0.0,0.0,0.0,0.0,0.0,0.0,0.0,0.0,0.0,0.0,0.0,0.0,0.0,0.0,0.0,0.0,0.0,0.0,0.0,0.0,0.0,0.0,0.0,0.0,0.0,0.0,0.0,0.0,0.0,0.0,0.0,0.0,0.0,0.0,0.0,0.0,0.0,0.0,0.0,0.0,0.0,0.0,0.0,0.0,0.0,0.0,0.0,0.0,0.0,0.0,0.0,0.0,0.0,0.0,0.0,0.0,0.0,0.0,0.0,0.0,0.0,0.0,-5.2498,-5.2498,-5.2498,-5.2498,-5.2498,-5.2498,-5.1937,-5.1574,-5.1574,-5.0836,0.0,0.0,0.0,0.0,0.0,0.0,0.0,0.0,0.0,0.0,0.0,0.0,0.0,0.0,0.0,0.0,0.0,0.0,0.0,0.0,0.0,0.0,0.0,0.0,0.0,0.0,0.0,0.0,0.0,0.0,0.0,0.0,0.0,0.0,0.0,0.0,0.0,0.0,0.0,0.0,0.0,0.0,0.0,0.0,0.0,0.0,0.0,0.0,0.0,0.0,0.0,0.0,0.0,0.0,0.0,0.0,0.0,0.0,0.0,0.0,0.0,0.0,0.0,0.0,0.0,0.0,0.0,0.0,0.0,0.0,0.0,0.0,0.0,0.0,0.0,0.0,0.0,0.0,0.0,0.0,0.0,0.0,0.0,0.0,0.0,0.0,0.0,0.0,0.0,0.0,0.0,0.0,0.0,0.0,0.0,0.0,0.0,0.0,0.0,0.0,0.0,0.0,-5.2498,-5.2498,-5.2498,-5.2498,-5.2498,-5.2498,-5.2444,-5.2408,-5.2408,-5.1647,0.0,0.0,0.0,0.0,0.0,0.0,0.0,0.0,0.0,0.0,0.0,0.0,0.0,0.0,0.0,0.0,0.0,0.0,0.0,0.0,0.0,0.0,0.0,0.0,0.0,0.0,0.0,0.0,0.0,0.0,0.0,0.0,0.0,0.0,0.0,0.0,0.0,0.0,0.0,0.0,0.0,0.0,0.0,0.0,0.0,0.0,0.0,0.0,0.0,0.0,0.0,0.0,0.0,0.0,0.0,0.0,0.0,0.0,0.0,0.0,0.0,0.0,0.0,0.0,0.0,0.0,0.0,0.0,0.0,0.0,0.0,0.0,0.0,0.0,0.0,0.0,0.0,0.0,0.0,0.0,0.0,0.0,0.0,0.0,0.0,0.0,0.0,0.0,0.0,0.0,0.0,0.0,0.0,0.0,0.0,0.0,0.0,0.0,0.0,0.0,0.0,0.0,-5.2498,-5.2498,0.0,-5.2498,-5.2498,-5.2498,-5.2498,-5.2498,-5.2498,0.0,0.0,0.0,0.0,0.0,0.0,0.0,0.0,0.0,0.0,0.0,0.0,0.0,0.0,0.0,0.0,0.0,0.0,0.0,0.0,0.0,0.0,0.0,0.0,0.0,0.0,0.0,0.0,0.0,0.0,0.0,0.0,0.0,0.0,0.0,0.0,0.0,0.0,0.0,0.0,0.0,0.0,0.0,0.0,0.0,0.0,0.0,0.0,0.0,0.0,0.0,0.0,0.0,0.0,0.0,0.0,0.0,0.0,0.0,0.0,0.0,0.0,0.0,0.0,0.0,0.0,0.0,0.0,0.0,0.0,0.0,0.0,0.0,0.0,0.0,0.0,0.0,0.0,0.0,0.0,0.0,0.0,0.0,0.0,0.0,0.0,0.0,0.0,0.0,0.0,0.0,0.0,0.0,0.0,0.0,0.0,0.0,0.0,0.0,0.0,0.0,0.0,-5.2475,-5.2498,-5.2498,0.0,-5.2498,-5.2498,-5.2498,-5.2498,-5.2498,-5.2498,0.0,0.0,0.0,0.0,0.0,0.0,0.0,0.0,0.0,0.0,0.0,0.0,0.0,0.0,0.0,0.0,0.0,0.0,0.0,0.0,0.0,0.0,0.0,0.0,0.0,0.0,0.0,0.0,0.0,0.0,0.0,0.0,0.0,0.0,0.0,0.0,0.0,0.0,0.0,0.0,0.0,0.0,0.0,0.0,0.0,0.0,0.0,0.0,0.0,0.0,0.0,0.0,0.0,0.0,0.0,0.0,0.0,0.0,0.0,0.0,0.0,0.0,0.0,0.0,0.0,0.0,0.0,0.0,0.0,0.0,0.0,0.0,0.0,0.0,0.0,0.0,0.0,0.0,0.0,0.0,0.0,0.0,0.0,0.0,0.0,0.0,0.0,0.0,0.0,0.0,0.0,0.0,0.0,0.0,0.0,0.0,0.0,0.0,0.0,0.0,0.0,0.0,-5.2446,-5.2516,-5.2516,-5.2493,-5.2516,-5.2516,-5.2498,-5.2516,-5.2498,0.0,0.0,0.0,0.0,0.0,0.0,0.0,0.0,0.0,0.0,0.0,0.0,0.0,0.0,0.0,0.0,0.0,0.0,0.0,0.0,0.0,0.0,0.0,0.0,0.0,0.0,0.0,0.0,0.0,0.0,0.0,0.0,0.0,0.0,0.0,0.0,0.0,0.0,0.0,0.0,0.0,0.0,0.0,0.0,0.0,0.0,0.0,0.0,0.0,0.0,0.0,0.0,0.0,0.0,0.0,0.0,0.0,0.0,0.0,0.0,0.0,0.0,0.0,0.0,0.0,0.0,0.0,0.0,0.0,0.0,0.0,0.0,0.0,0.0,0.0,0.0,0.0,0.0,0.0,0.0,0.0,0.0,0.0,0.0,0.0,0.0,0.0,0.0,0.0,0.0,0.0,0.0,0.0,0.0,0.0,0.0,0.0,0.0,0.0,0.0,0.0,0.0,0.0,-5.2874,-5.3208,-5.3312,-5.2919,-5.3234,-5.325,-5.2695,-5.3081,-5.3096,-5.2534,0.0,0.0,0.0,0.0,0.0,0.0,0.0,0.0,0.0,0.0,0.0,0.0,0.0,0.0,0.0,0.0,0.0,0.0,0.0,0.0,0.0,0.0,0.0,0.0,0.0,0.0,0.0,0.0,0.0,0.0,0.0,0.0,0.0,0.0,0.0,0.0,0.0,0.0,0.0,0.0,0.0,0.0,0.0,0.0,0.0,0.0,0.0,0.0,0.0,0.0,0.0,0.0,0.0,0.0,0.0,0.0,0.0,0.0,0.0,0.0,0.0,0.0,0.0,0.0,0.0,0.0,0.0,0.0,0.0,0.0,0.0,0.0,0.0,0.0,0.0,0.0,0.0,0.0,0.0,0.0,0.0,0.0,0.0,0.0,0.0,0.0,0.0,0.0,0.0,0.0,0.0,0.0,0.0,0.0,0.0,0.0,0.0,0.0,0.0,0.0,0.0,0.0,-5.3039,-5.3301,-5.3493,-5.3356,-5.3682,-5.369,-5.3208,-5.3794,-5.3725,-5.266,0.0,0.0,0.0,0.0,0.0,0.0,0.0,0.0,0.0,0.0,0.0,0.0,0.0,0.0,0.0,0.0,0.0,0.0,0.0,0.0,0.0,0.0,0.0,0.0,0.0,0.0,0.0,0.0,0.0,0.0,0.0,0.0,0.0,0.0,0.0,0.0,0.0,0.0,0.0,0.0,0.0,0.0,0.0,0.0,0.0,0.0,0.0,0.0,0.0,0.0,0.0,0.0,0.0,0.0,0.0,0.0,0.0,0.0,0.0,0.0,0.0,0.0,0.0,0.0,0.0,0.0,0.0,0.0,0.0,0.0,0.0,0.0,0.0,0.0,0.0,0.0,0.0,0.0,0.0,0.0,0.0,0.0,0.0,0.0,0.0,0.0,0.0,0.0,0.0,0.0,0.0,0.0,0.0,0.0,0.0,0.0,0.0,0.0,0.0,0.0,0.0,0.0,-5.2991,-5.3107,-5.3317,-5.3814,-5.3895,-5.3931,-5.386,-5.4504,-5.428,-5.28,0.0,0.0,0.0,0.0,0.0,0.0,0.0,0.0,0.0,0.0,0.0,0.0,0.0,0.0,0.0,0.0,0.0,0.0,0.0,0.0,0.0,0.0,0.0,0.0,0.0,0.0,0.0,0.0,0.0,0.0,0.0,0.0,0.0,0.0,0.0,0.0,0.0,0.0,0.0,0.0,0.0,0.0,0.0,0.0,0.0,0.0,0.0,0.0,0.0,0.0,0.0,0.0,0.0,0.0,0.0,0.0,0.0,0.0,0.0,0.0,-5.6743,0.0,0.0,0.0,0.0,0.0,0.0,0.0,0.0,0.0,0.0,0.0,0.0,0.0,0.0,0.0,0.0,0.0,0.0,0.0,0.0,0.0,0.0,0.0,0.0,0.0,0.0,0.0,0.0,0.0,0.0,0.0,0.0,0.0,0.0,0.0,0.0,0.0,0.0,0.0,0.0,0.0,-5.3437,-5.3817,-5.3988,-5.3629,-5.4019,-5.4048,-5.341,-5.4414,-5.4465,-5.3024,-5.4018,0.0,0.0,0.0,0.0,0.0,0.0,0.0,0.0,0.0,0.0,0.0,0.0,0.0,0.0,0.0,0.0,0.0,0.0,0.0,0.0,0.0,0.0,0.0,0.0,0.0,0.0,0.0,0.0,0.0,0.0,0.0,0.0,0.0,0.0,0.0,0.0,0.0,0.0,0.0,0.0,0.0,0.0,0.0,0.0,0.0,0.0,0.0,0.0,0.0,0.0,0.0,0.0,0.0,0.0,0.0,0.0,0.0,0.0,0.0,0.0,-5.6934,0.0,0.0,0.0,0.0,0.0,0.0,0.0,0.0,0.0,0.0,0.0,0.0,0.0,0.0,0.0,0.0,0.0,0.0,0.0,0.0,0.0,0.0,0.0,0.0,0.0,0.0,0.0,0.0,0.0,0.0,0.0,0.0,0.0,0.0,0.0,0.0,0.0,0.0,0.0,0.0,-5.3534,-5.3783,-5.3946,-5.3946,-5.4203,-5.4236,-5.379,-5.4665,-5.4609,-5.317,-5.4022,0.0,0.0,0.0,0.0,0.0,0.0,0.0,0.0,0.0,0.0,0.0,0.0,0.0,0.0,0.0,0.0,0.0,0.0,0.0,0.0,0.0,0.0,0.0,0.0,0.0,0.0,0.0,0.0,0.0,0.0,0.0,0.0,0.0,0.0,0.0,0.0,0.0,0.0,0.0,0.0,0.0,0.0,0.0,0.0,0.0,0.0,0.0,0.0,0.0,0.0,0.0,0.0,0.0,-5.7588,-5.737,-5.8372,-5.7289,-5.7101,-5.7597,-5.7642,-5.7555,-5.7436,-5.7311,0.0,0.0,0.0,0.0,0.0,0.0,0.0,0.0,0.0,0.0,0.0,0.0,0.0,0.0,0.0,0.0,0.0,0.0,0.0,0.0,0.0,0.0,0.0,0.0,-5.4795,-5.4686,-5.5744,0.0,0.0,0.0,0.0,0.0,0.0,0.0,0.0,0.0,0.0,0.0,-5.3501,-5.3501,-5.3701,-5.4203,-5.4249,-5.4249,-5.4249,-5.4844,-5.4674,-5.3327,-5.3995,-5.3952,0.0,0.0,0.0,0.0,0.0,0.0,0.0,0.0,0.0,0.0,0.0,0.0,0.0,0.0,0.0,0.0,0.0,0.0,0.0,0.0,0.0,0.0,0.0,0.0,0.0,0.0,0.0,0.0,0.0,0.0,0.0,0.0,-5.4573,-5.4086,0.0,0.0,0.0,0.0,0.0,0.0,0.0,0.0,0.0,0.0,0.0,0.0,0.0,-5.7512,-5.7709,-5.7618,-5.767,-5.7867,-5.7574,-5.7561,-5.7732,-5.7604,-5.7599,-5.7667,-5.7806,0.0,-5.6683,-5.6167,0.0,0.0,0.0,0.0,0.0,0.0,0.0,0.0,0.0,0.0,0.0,0.0,0.0,0.0,0.0,0.0,0.0,0.0,0.0,0.0,0.0,0.0,-5.5266,-5.4672,-5.4454,-5.4454,0.0,-5.4655,-5.4454,-5.3882,-5.4252,0.0,0.0,0.0,0.0,0.0,0.0,0.0,-5.3501,-5.3501,-5.3534,-5.3618,-5.3618,-5.3618,-5.3618,-5.4188,-5.4215,-5.3516,-5.4599,-5.437,-5.249,-5.2798,0.0,0.0,0.0,0.0,0.0,0.0,0.0,0.0,0.0,0.0,0.0,0.0,0.0,0.0,0.0,0.0,0.0,0.0,0.0,0.0,0.0,0.0,0.0,0.0,0.0,0.0,0.0,0.0,0.0,-5.5287,-5.5593,-5.5739,-5.5995,-5.5955,0.0,0.0,0.0,0.0,0.0,0.0,0.0,0.0,0.0,-5.7114,-5.7056,-5.7439,-5.8271,-5.7843,-5.8084,-5.8934,-5.8144,-5.7977,-5.8324,-5.7947,-5.7821,-5.7803,-5.7874,-5.7673,-5.7326,-5.706,-5.6934,-5.6934,0.0,0.0,0.0,0.0,-5.6681,-5.6325,-5.6325,-5.6055,-5.5681,-5.5681,0.0,0.0,0.0,0.0,0.0,0.0,0.0,0.0,0.0,0.0,-5.5491,-5.521,-5.5143,-5.5143,-5.5143,-5.5143,-5.4887,0.0,-5.4218,-5.4203,-5.3618,0.0,0.0,0.0,0.0,-5.3501,-5.3501,-5.3501,-5.3501,-5.3501,-5.3501,-5.3501,-5.3501,-5.375,-5.3783,-5.3534,-5.3996,-5.3939,-5.3027,-5.2815,-5.2303,0.0,0.0,0.0,0.0,0.0,0.0,0.0,0.0,0.0,0.0,0.0,0.0,0.0,0.0,0.0,0.0,0.0,0.0,0.0,0.0,0.0,0.0,0.0,0.0,0.0,0.0,0.0,0.0,-5.5956,-5.6178,-5.6447,-5.6239,-5.5932,0.0,0.0,0.0,0.0,0.0,0.0,-5.6532,-5.6595,-5.6894,-5.7384,-5.71,-5.7445,-5.8546,-5.8031,-5.8341,-5.9447,-5.8405,-5.8173,-5.8651,-5.8137,-5.7881,-5.7881,-5.7881,-5.7881,-5.7881,-5.7881,-5.7881,-5.7881,-5.7881,-5.7881,-5.7881,-5.7881,-5.7543,-5.707,-5.707,-5.6731,-5.6275,-5.6275,-5.6275,-5.6275,-5.6275,0.0,0.0,0.0,0.0,-5.5953,-5.5732,-5.5681,-5.5681,-5.5681,-5.5681,-5.5681,-5.5681,-5.5681,-5.55,0.0,-5.4737,-5.454,-5.3906,0.0,0.0,0.0,0.0,-5.3501,-5.3501,-5.3501,-5.3501,-5.3501,-5.3501,-5.3501,-5.3501,-5.3501,-5.3501,-5.3501,-5.3501,-5.3501,-5.3501,-5.2926,-5.252,-5.23,0.0,0.0,0.0,0.0,0.0,0.0,0.0,0.0,0.0,0.0,0.0,0.0,0.0,0.0,0.0,0.0,0.0,0.0,0.0,0.0,0.0,0.0,0.0,0.0,0.0,0.0,0.0,0.0,0.0,-5.4686,-5.5069,0.0,0.0,0.0,0.0,-5.5477,-5.5655,-5.5979,-5.6548,-5.673,-5.682,-5.6838,-5.748,-5.7853,-5.7923,-5.7903,-5.792,-5.801,-5.7918,-5.7918,-5.7954,-5.7918,-5.7881,-5.7881,-5.7881,-5.7881,-5.7881,-5.7881,-5.7881,-5.7881,-5.7881,-5.7881,-5.7881,-5.7881,-5.7865,-5.7831,-5.7831,-5.7814,-5.778,-5.778,-5.778,-5.778,-5.778,-5.778,0.0,0.0,-5.6748,-5.6579,-5.5902,-5.5681,-5.5681,-5.5681,-5.5681,-5.5681,-5.5681,-5.5681,-5.57,0.0,-5.5633,-5.5396,-5.4668,0.0,-5.4296,-5.3619,-5.3501,-5.3501,-5.3501,-5.3501,-5.3501,-5.3501,-5.3501,-5.3501,-5.3501,-5.3501,-5.3501,-5.3501,-5.3501,-5.3501,-5.3501,-5.3467,-5.3078,-5.2317,-5.2232,0.0,0.0,0.0,0.0,0.0,0.0,0.0,0.0,0.0,0.0,0.0,0.0,0.0,0.0,0.0,0.0,0.0,0.0,0.0,0.0,0.0,0.0,0.0,0.0,0.0,0.0,0.0,0.0,-5.5117,-5.5292,0.0,-5.4811,-5.5297,-5.5639,-5.5639,-5.6111,-5.6499,-5.6711,-5.723,-5.7509,-5.7509,-5.7746,-5.7881,-5.7881,-5.7881,-5.7881,-5.7881,-5.7881,-5.7881,-5.7881,-5.7881,-5.7881,-5.7881,-5.7881,-5.7881,-5.7881,-5.7881,-5.7881,-5.7881,-5.7881,-5.7881,-5.7881,-5.7881,-5.7881,-5.7881,-5.7881,-5.7881,-5.7881,-5.7881,-5.7881,-5.7881,-5.7881,-5.7881,-5.7831,-5.7577,-5.7509,-5.7442,-5.7171,-5.712,-5.712,-5.712,-5.712,-5.712,-5.712,-5.712,-5.712,-5.712,-5.6359,-5.5632,-5.5361,-5.531,-5.5226,-5.4972,-5.4938,-5.4938,-5.4938,-5.4499,-5.4211,-5.4211,-5.3788,-5.3501,-5.3501,-5.3501,-5.3501,-5.3501,-5.3501,-5.3501,-5.3501,-5.3501,-5.3365,-5.3078,-5.2553,-5.2046,0.0,0.0,0.0,0.0,0.0,0.0,0.0,0.0,0.0,0.0,0.0,0.0,0.0,0.0,0.0,0.0,0.0,0.0,0.0,0.0,0.0,0.0,0.0,0.0,0.0,0.0,-5.5349,-5.515,-5.538,-5.5566,-5.5566,-5.5876,-5.6089,-5.6089,-5.6748,-5.7171,-5.7171,-5.7628,-5.7881,-5.7881,-5.7881,-5.7881,-5.7881,-5.7881,-5.7881,-5.7881,-5.7881,-5.7881,-5.7881,-5.7881,-5.7881,-5.7881,-5.7881,-5.7881,-5.7881,-5.7881,-5.7881,-5.7881,-5.7881,-5.7881,-5.7881,-5.7881,-5.7881,-5.7881,-5.7881,-5.7881,-5.7881,-5.7881,-5.7881,-5.7881,-5.7881,-5.7881,-5.7881,-5.7881,-5.7881,-5.7881,-5.7881,-5.7881,-5.7881,-5.7881,-5.7881,-5.7881,-5.7881,-5.7881,-5.7881,-5.7881,-5.7103,-5.6376,-5.6122,-5.6089,-5.6004,-5.575,-5.5681,-5.5681,-5.5681,-5.5277,-5.4972,-5.4972,-5.4313,-5.3873,-5.3873,-5.3653,-5.3501,-5.3501,-5.3501,-5.3501,-5.3501,-5.3501,-5.3501,-5.3501,-5.2706,-5.23,-5.23,0.0,0.0,0.0,0.0,0.0,0.0,0.0,0.0,0.0,0.0,0.0,0.0,0.0,0.0,0.0,0.0,0.0,0.0,0.0,0.0,0.0,0.0,0.0,-5.4394,-5.5031,-5.5271,-5.472,-5.5294,-5.5715,-5.5715,-5.641,-5.6833,-5.6833,-5.7492,-5.7881,-5.7881,-5.7881,-5.7881,-5.7881,-5.7881,-5.7881,-5.7881,-5.7881,-5.7881,-5.7881,-5.7881,-5.7881,-5.7881,-5.7881,-5.7881,-5.7881,-5.7881,-5.7881,-5.7881,-5.7881,-5.7881,-5.7881,-5.7881,-5.7881,-5.7881,-5.7881,-5.7881,-5.7881,-5.7881,-5.7881,-5.7881,-5.7881,-5.7881,-5.7881,-5.7881,-5.7881,-5.7881,-5.7881,-5.7881,-5.7881,-5.7881,-5.7881,-5.7881,-5.7881,-5.7881,-5.7881,-5.7881,-5.7881,-5.7881,-5.7881,-5.7881,-5.7662,-5.6968,-5.6833,-5.6596,-5.5902,-5.5749,0.0,-5.5749,-5.5732,-5.5715,-5.5715,-5.5074,-5.4617,-5.4583,-5.394,-5.3518,-5.3501,-5.3501,-5.3501,-5.3501,-5.3501,-5.3501,-5.3501,-5.2739,-5.2334,-5.2334,0.0,0.0,0.0,0.0,0.0,0.0,0.0,0.0,0.0,0.0,0.0,0.0,0.0,0.0,0.0,0.0,0.0,0.0,0.0,0.0,0.0,0.0,-5.455,-5.455,-5.472,-5.4958,-5.5344,-5.6055,-5.6511,-5.6511,-5.7154,-5.7594,-5.7594,-5.778,-5.7881,-5.7881,-5.7881,-5.7881,-5.7881,-5.7881,-5.7881,-5.7881,-5.7881,-5.7881,-5.7881,-5.7881,-5.7881,-5.7881,-5.7881,-5.7881,-5.7881,-5.7881,-5.7881,-5.7881,-5.7881,-5.7881,-5.7881,-5.7881,-5.7881,-5.7881,-5.7881,-5.7881,-5.7881,-5.7881,-5.7881,-5.7881,-5.7881,-5.7881,-5.7881,-5.7881,-5.7881,-5.7881,-5.7881,-5.7881,-5.7881,-5.7881,-5.7881,-5.7881,-5.7881,-5.7881,-5.7881,-5.7881,-5.7881,-5.7881,-5.7881,-5.7881,-5.7831,-5.7628,-5.7594,-5.7526,-5.7323,-5.7289,0.0,-5.7289,-5.6833,-5.6511,-5.6511,-5.5852,-5.5192,-5.4634,-5.4397,-5.4059,-5.3534,-5.3501,-5.3501,-5.3501,-5.3501,-5.3501,-5.3501,-5.3281,-5.3179,0.0,0.0,0.0,0.0,0.0,0.0,0.0,0.0,0.0,0.0,0.0,0.0,0.0,0.0,0.0,0.0,0.0,0.0,0.0,0.0,0.0,0.0,-5.5057,-5.5175,-5.548,-5.5513,-5.5683,-5.6122,-5.6816,-5.7256,-5.7256,-5.7645,-5.7881,-5.7881,-5.7881,-5.7881,-5.7881,-5.7881,-5.7881,-5.7881,-5.7881,-5.7881,-5.7881,-5.7881,-5.7881,-5.7881,-5.7881,-5.7881,-5.7881,-5.7881,-5.7881,-5.7881,-5.7881,-5.7881,-5.7881,-5.7881,-5.7881,0.0,0.0,0.0,0.0,0.0,-5.7881,-5.7881,-5.7881,-5.7881,-5.7881,-5.7881,-5.7881,-5.7881,-5.7881,-5.7881,-5.7881,-5.7881,-5.7881,-5.7881,-5.7881,-5.7881,-5.7881,-5.7881,-5.7881,-5.7881,-5.7881,-5.7881,-5.7881,-5.7881,-5.7881,0.0,-5.7881,-5.7881,-5.7881,-5.7881,-5.7881,-5.7881,-5.7881,-5.7526,-5.7256,-5.7256,-5.6613,-5.6004,-5.5564,-5.4955,0.0,0.0,0.0,-5.3501,-5.3501,-5.3501,0.0,0.0,0.0,-5.3501,-5.3501,0.0,0.0,0.0,-5.0185,-4.9644,0.0,0.0,0.0,0.0,0.0,0.0,0.0,0.0,0.0,0.0,0.0,0.0,0.0,0.0,0.0,0.0,-5.58,-5.6089,-5.6816,-5.6917,-5.6917,-5.6917,-5.7492,-5.7881,-5.7881,-5.7881,-5.7881,-5.7881,-5.7881,-5.7881,-5.7881,0.0,0.0,0.0,0.0,-5.7881,-5.7881,-5.7881,-5.7881,-5.7881,-5.7881,-5.7881,-5.7881,-5.7881,-5.7881,-5.7881,-5.7881,-5.7881,-5.7881,-5.7881,-5.7881,-5.7881,-5.7881,-5.7881,-5.7881,-5.7881,-5.7881,-5.7881,-5.7881,0.0,0.0,-5.7881,-5.7881,-5.7881,-5.7881,-5.7881,-5.7881,-5.7881,-5.7881,-5.7881,-5.7881,-5.7881,-5.7881,-5.7881,-5.7881,-5.7881,-5.7881,-5.7881,-5.7881,-5.7881,-5.7881,-5.7881,-5.7881,-5.7881,-5.7881,-5.7881,-5.7881,-5.7881,-5.7881,-5.7881,-5.7881,-5.7881,0.0,0.0,-5.6816,-5.5513,-5.4685,-5.46,-5.3907,-5.3501,-5.3501,-5.3501,-5.3501,-5.3501,-5.3501,-5.3501,-5.3501,-5.3501,-5.3129,-5.2401,-5.0997,-5.0287,0.0,0.0,0.0,0.0,0.0,0.0,0.0,0.0,0.0,0.0,0.0,0.0,0.0,0.0,0.0,-5.6494,-5.6596,-5.685,-5.7577,-5.7679,-5.7679,-5.7679,-5.7797,-5.7881,-5.7881,-5.7881,-5.7881,-5.7881,-5.7881,-5.7881,-5.7881,-5.7881,-5.7881,-5.7881,-5.7881,-5.7881,-5.7881,-5.7881,-5.7881,-5.7881,0.0,0.0,-5.7881,-5.7881,-5.7881,-5.7881,-5.7881,-5.7881,-5.7881,-5.7881,-5.7881,-5.7881,-5.7881,-5.7881,-5.7881,-5.7881,-5.7881,-5.7881,-5.7881,-5.7881,-5.7881,-5.7881,-5.7881,-5.7881,-5.7881,-5.7881,0.0,-5.7881,-5.7881,-5.7881,-5.7881,-5.7881,-5.7881,-5.7881,-5.7881,-5.7881,-5.7881,-5.7881,-5.7881,-5.7881,-5.7881,-5.7881,-5.7881,-5.7881,-5.7881,-5.7881,-5.7881,-5.7881,-5.7881,-5.7881,-5.7881,-5.7881,-5.7763,-5.7442,-5.685,-5.6004,-5.5243,-5.4634,-5.3907,-5.3501,-5.3501,-5.3501,-5.3501,-5.3501,-5.3501,-5.3501,-5.3501,-5.3501,-5.3416,-5.3247,-5.2317,-5.1555,0.0,0.0,0.0,0.0,0.0,0.0,0.0,0.0,0.0,0.0,0.0,-5.6642,0.0,0.0,-5.6917,-5.7289,-5.734,-5.7476,-5.7831,-5.7881,-5.7881,-5.7881,-5.7881,-5.7881,-5.7881,-5.7881,-5.7881,-5.7881,-5.7881,-5.7881,-5.7881,-5.7881,-5.7881,-5.7881,-5.7881,-5.7881,-5.7881,-5.8271,-5.8457,-5.8457,-5.8812,-5.8998,-5.8998,-5.8998,-5.8998,-5.8981,-5.8609,-5.8457,-5.8423,-5.8051,-5.7881,-5.7881,-5.7881,-5.7881,-5.7881,-5.7881,-5.7881,-5.7881,-5.7881,-5.7881,-5.7881,-5.7881,-5.7881,-5.7881,-5.7881,-5.7881,-5.7881,-5.7881,-5.7881,-5.7881,-5.7881,-5.7881,-5.7881,-5.7881,-5.7881,-5.7881,-5.7881,-5.7881,-5.7881,-5.7881,-5.7881,-5.7881,-5.7881,-5.7881,-5.7881,-5.7881,-5.7881,-5.7881,-5.7881,-5.7881,-5.7881,-5.7881,-5.7881,-5.7746,-5.7374,-5.6342,-5.5395,-5.4634,-5.3907,-5.3501,-5.3501,-5.3501,-5.3501,-5.3501,-5.3501,-5.3501,-5.3501,-5.3501,-5.3501,-5.3501,-5.3095,-5.2503,0.0,0.0,0.0,0.0,0.0,0.0,0.0,0.0,-5.7939,-5.7001,-5.7207,-5.7603,-5.7855,-5.7881,-5.7881,-5.7881,-5.7881,-5.7881,-5.7881,-5.7881,-5.7881,-5.7881,-5.7881,-5.7881,-5.7881,-5.7881,-5.7881,-5.7881,-5.7881,-5.7881,-5.7881,-5.7881,-5.7949,-5.8101,-5.8101,-5.8169,-5.8321,-5.893,-5.9218,-5.9235,-5.9827,-6.0097,-6.0097,-6.0097,-6.0097,-6.0063,-5.9488,-5.9218,-5.9167,-5.8423,-5.8101,-5.8101,-5.7949,-5.7881,-5.7881,-5.7881,-5.7881,-5.7881,-5.7881,-5.7881,-5.7881,-5.7881,-5.7881,-5.7881,-5.7881,-5.7881,-5.7881,-5.7881,-5.7881,-5.7881,-5.7881,-5.7881,-5.7881,-5.7881,-5.7881,-5.7881,-5.7881,-5.7881,-5.7881,-5.7881,-5.7881,-5.7881,-5.7881,-5.7881,-5.7881,-5.7881,-5.7881,-5.7881,-5.7881,-5.7881,-5.7881,-5.7881,-5.7881,-5.7831,-5.7695,-5.6478,-5.5395,-5.4634,-5.3907,-5.3501,-5.3501,-5.3501,-5.3501,-5.3501,-5.3501,-5.3501,-5.3501,-5.3501,-5.3501,-5.3501,-5.3501,-5.3162,-5.7188,-5.7188,-5.7268,-5.7522,-5.7555,-5.7199,0.0,0.0,-5.6841,-5.6807,-5.687,-5.7126,-5.7782,-5.7881,-5.7881,-5.7881,-5.7881,-5.7881,-5.7881,-5.7881,-5.7881,-5.7881,-5.7881,-5.7881,-5.7881,-5.7881,-5.7881,-5.7881,-5.7881,-5.7881,-5.7881,-5.7881,-5.8203,-5.8879,-5.8896,-5.9201,-5.9844,-5.9945,-5.9979,-5.9979,-6.0063,-6.0097,-6.0097,-6.0097,-6.0097,-6.0097,-6.0013,-5.9979,-5.9928,-5.9184,-5.8896,-5.8829,-5.8152,-5.7881,-5.7881,-5.7881,-5.7881,-5.7881,-5.7881,-5.7881,-5.7881,-5.7881,-5.7881,-5.7881,-5.7881,-5.7881,-5.7881,-5.7881,-5.7881,-5.7881,-5.7881,-5.7881,-5.7881,-5.7881,-5.7881,-5.7881,-5.7881,-5.7881,-5.7881,-5.7881,-5.7881,-5.7881,-5.7881,-5.7881,-5.7881,-5.7881,-5.7881,-5.7881,-5.7881,-5.7881,-5.7881,-5.7881,-5.7881,-5.7628,-5.6985,-5.619,-5.5395,-5.4634,-5.3907,-5.3501,-5.3501,-5.3501,-5.3501,-5.3501,-5.3501,-5.3501,-5.3501,-5.3501,-5.3501,-5.3501,-5.3501,-5.345,-5.7188,-5.7188,0.0,0.0,-5.8418,-5.8466,-5.7664,-5.8068,-5.8364,-5.7591,-5.7442,-5.7526,-5.7831,-5.7881,-5.7881,0.0,-5.7881,-5.7881,-5.7881,-5.7881,-5.7881,-5.7881,-5.7881,-5.7881,-5.7881,-5.7881,-5.7881,-5.7881,-5.7881,-5.8084,-5.8524,-5.8541,-5.9099,-6.03,-6.0351,-6.0689,-6.1417,-6.1873,-6.2093,-6.2093,-6.2093,-6.2093,-6.2076,-6.1637,-6.1197,-6.0808,-6.0808,-6.0537,-6.008,-5.9776,-5.9641,-5.9573,-5.8829,-5.8541,-5.849,-5.8051,-5.7881,-5.7881,-5.7881,-5.7881,-5.7881,-5.7881,-5.7881,-5.7881,-5.7881,-5.7881,-5.7881,-5.7881,-5.7881,-5.7881,-5.7881,-5.7881,-5.7881,-5.7881,-5.7881,-5.7881,-5.7881,-5.7881,-5.7881,-5.7881,-5.7881,-5.7881,-5.7881,-5.7881,-5.7881,-5.7881,-5.7881,-5.7881,-5.7881,-5.7881,-5.7881,-5.7881,-5.7881,-5.7763,-5.7459,-5.6376,-5.5581,-5.526,-5.416,-5.3501,-5.3501,-5.3501,-5.3501,-5.3501,-5.3501,-5.3501,-5.3501,-5.3501,-5.3501,-5.3501,-5.3501,-5.3501,-5.7335,0.0,0.0,-5.8504,-5.9155,-5.9529,-5.8985,-5.929,-5.9347,-5.8154,-5.7881,-5.7881,-5.7881,-5.7881,-5.7881,-5.7881,-5.7881,-5.7881,-5.7881,-5.7881,-5.7881,-5.7881,-5.7881,-5.7881,-5.7881,-5.7881,-5.7881,-5.7881,-5.8084,-5.844,-5.8981,-5.9421,-6.025,-6.1552,-6.1806,-6.2262,-6.299,-6.3548,-6.3818,-6.3818,-6.3616,-6.3514,-6.348,-6.2736,-6.2093,-6.1603,-6.1603,-6.1264,-6.0723,-6.052,-6.0436,-6.0368,-5.9607,-5.9319,-5.9218,-5.8473,-5.8068,-5.7881,-5.7881,-5.7881,-5.7881,-5.7881,-5.7881,-5.7881,-5.7881,-5.7881,-5.7881,-5.7881,-5.7881,-5.7881,-5.7881,-5.7881,-5.7881,-5.7881,-5.7881,-5.7881,-5.7881,-5.7881,-5.7881,-5.7881,-5.7881,-5.7881,-5.7881,-5.7881,-5.7881,-5.7881,-5.7881,-5.7881,-5.7881,-5.7881,-5.7881,-5.7881,-5.7881,-5.7881,-5.7881,-5.6562,-5.5681,-5.5681,-5.4329,-5.3501,-5.3501,-5.3501,-5.3501,-5.3501,-5.3501,-5.3501,-5.3501,-5.3501,-5.3501,-5.3501,-5.3501,-5.3501,0.0,0.0,-5.9392,-5.8846,-5.9248,-5.9615,-5.8954,-5.8874,-5.8737,-5.8046,-5.7881,-5.7881,-5.7881,-5.7881,-5.7881,-5.7881,-5.7881,-5.7881,-5.7881,-5.7881,-5.7881,-5.7881,-5.7881,-5.7881,0.0,-5.7881,-5.7881,-5.7881,-5.8558,-5.8998,-5.9015,-6.0419,-6.1586,-6.233,-6.3057,-6.3802,-6.4529,-6.4563,-6.4563,-6.4563,-6.3852,-6.3514,-6.348,-6.2736,-6.2381,-6.2364,-6.2364,-6.233,-6.2262,-6.1552,-6.1264,-6.118,-6.0385,-6.0063,-5.9979,-5.9252,-5.8507,-5.7881,-5.7881,-5.7881,-5.7881,-5.7881,-5.7881,-5.7881,-5.7881,-5.7881,-5.7881,-5.7881,-5.7881,-5.7881,-5.7881,-5.7881,-5.7881,-5.7881,-5.7881,-5.7881,-5.7881,-5.7881,-5.7881,-5.7881,-5.7881,-5.7881,-5.7881,-5.7881,-5.7881,-5.7881,-5.7881,-5.7881,-5.7881,-5.7881,-5.7881,-5.7881,-5.7881,-5.7881,-5.7881,-5.6562,-5.5681,-5.5681,-5.4329,-5.3501,-5.3501,-5.3501,-5.3501,-5.3501,-5.3501,-5.3501,-5.3501,-5.3501,-5.3501,-5.3501,-5.3501,-5.3501,0.0,0.0,-5.8796,-5.8665,-5.9209,-5.9657,-5.9007,-5.8889,-5.8703,-5.8046,-5.7881,-5.7881,-5.7881,-5.7881,-5.7881,-5.7881,-5.7881,-5.7881,-5.7881,-5.7881,-5.7881,-5.7881,-5.7881,0.0,0.0,0.0,0.0,-5.8592,-5.8879,-5.9674,-6.118,-6.1738,-6.2804,-6.4529,-6.4816,-6.5307,-6.6068,-6.6068,-6.6068,-6.6051,-6.4833,-6.3717,-6.2753,-6.2499,-6.2381,-6.2381,-6.2381,-6.2381,-6.2364,-6.2127,-6.2026,-6.1941,-6.1197,-6.0892,-6.0808,-6.003,-5.9573,-5.9218,-5.8237,-5.7881,-5.7881,-5.7881,-5.7881,-5.7881,-5.7881,-5.7881,-5.7881,-5.7881,-5.7881,-5.7881,-5.7881,-5.7881,-5.7881,-5.7881,-5.7881,-5.7881,-5.7881,-5.7881,-5.7881,-5.7881,-5.7881,-5.7881,-5.7881,-5.7881,-5.7881,-5.7881,-5.7881,-5.7881,-5.7881,-5.7881,-5.7881,-5.7881,-5.7881,-5.7881,-5.7881,-5.6562,-5.5681,-5.5681,-5.4329,-5.3501,-5.3501,-5.3501,-5.3501,-5.3501,-5.3501,-5.3501,-5.3501,-5.3501,-5.3501,-5.3501,-5.3501,-5.3501,0.0,-5.8246,-5.9177,-5.8772,-5.9648,-6.0362,-5.9471,-5.9297,-5.9113,-5.8388,-5.8082,-5.7881,-5.7881,-5.7881,-5.7881,-5.7881,-5.7881,-5.7881,-5.7881,-5.7881,-5.7881,-5.7881,-5.7881,0.0,0.0,0.0,0.0,-5.8981,-5.9522,-6.0588,-6.2296,-6.2888,-6.3954,-6.5628,-6.595,-6.6322,-6.6812,-6.6812,-6.6542,-6.6017,-6.5053,-6.3818,-6.2381,-6.2381,-6.2381,-6.2381,-6.2381,-6.2381,-6.2381,-6.2381,-6.2381,-6.233,-6.1873,-6.1687,-6.1603,-6.0825,-6.0537,-6.0317,-5.8812,-5.8287,-5.8254,-5.7983,-5.7881,-5.7881,-5.7881,-5.7881,-5.7881,-5.7881,-5.7881,-5.7881,-5.7881,-5.7881,-5.7881,-5.7881,-5.7881,-5.7881,-5.7881,-5.7881,-5.7881,-5.7881,-5.7881,-5.7881,-5.7881,-5.7881,-5.7881,-5.7881,-5.7881,-5.7881,-5.7881,-5.7881,-5.7881,-5.7881,-5.7881,-5.7881,-5.7881,-5.6562,-5.5681,-5.5681,-5.4329,-5.3501,-5.3501,-5.3501,-5.3501,-5.3501,-5.3501,-5.3501,-5.3501,-5.3501,-5.3501,-5.3501,-5.3501,-5.3501,-5.7639,-5.9042,-6.0403,-5.915,-6.0391,-6.1561,-6.0299,-5.9966,-5.9741,-5.8994,-5.8317,-5.7881,0.0,0.0,-5.7881,-5.7881,-5.7881,-5.7881,-5.7881,-5.7881,-5.7881,0.0,0.0,0.0,0.0,0.0,0.0,-5.9116,0.0,-6.1653,-6.2465,-6.3835,-6.4952,-6.5713,-6.644,-6.6812,-6.6812,-6.6779,-6.6034,-6.4597,-6.4563,-6.3785,-6.2381,-6.2381,-6.2381,-6.2381,-6.2381,-6.2381,-6.2381,-6.2381,-6.2381,-6.2381,-6.2381,-6.2381,-6.2313,-6.1603,-6.1366,-6.1146,-5.9658,-5.9082,-5.8896,-5.8135,-5.7881,-5.7881,-5.7881,-5.7881,-5.7881,-5.7881,-5.7881,-5.7881,-5.7881,-5.7881,-5.7881,-5.7881,-5.7881,-5.7881,-5.7881,-5.7881,-5.7881,-5.7881,-5.7881,-5.7881,-5.7881,-5.7881,-5.7881,-5.7881,-5.7881,-5.7881,-5.7881,-5.7881,-5.7881,-5.7881,-5.7881,-5.7881,-5.7881,-5.6562,-5.5681,-5.5681,-5.4329,-5.3501,-5.3501,-5.3501,-5.3501,-5.3501,-5.3501,-5.3501,-5.3501,-5.3501,-5.3501,-5.3501,-5.3501,-5.3501,-5.7325,-5.8215,-5.9207,-5.9364,-5.9969,-6.0424,-6.0079,-5.9561,-5.8977,-5.8298,-5.801,-5.7881,0.0,0.0,0.0,-5.7881,-5.7881,0.0,-5.7881,-5.7881,0.0,0.0,0.0,-5.8186,-5.8947,-5.9505,0.0,0.0,-6.1078,-6.211,-6.3937,-6.4394,-6.5189,-6.6491,-6.6711,-6.6812,-6.6812,-6.6254,-6.551,-6.4597,-6.4055,-6.3294,-6.2381,-6.2381,-6.2381,-6.2381,-6.2381,-6.2381,-6.2381,-6.2381,-6.2381,-6.2381,-6.2381,-6.2381,-6.2364,-6.2178,-6.211,-6.1975,-6.1044,-5.9962,-5.8896,-5.8135,-5.7881,-5.7881,-5.7881,-5.7881,-5.7881,-5.7881,-5.7881,-5.7881,-5.7881,-5.7881,-5.7881,-5.7881,-5.7881,-5.7881,-5.7881,-5.7881,-5.7881,-5.7881,-5.7881,-5.7881,-5.7881,-5.7881,-5.7881,-5.7881,-5.7881,-5.7881,-5.7881,-5.7881,-5.7881,-5.7881,-5.7881,-5.7881,-5.7881,-5.6562,-5.5681,-5.5681,-5.4329,-5.3501,-5.3501,-5.3501,-5.3501,-5.3501,-5.3501,-5.3501,-5.3501,-5.3501,-5.3501,-5.3501,-5.3501,-5.3501,-5.7623,-5.8384,-5.9065,-5.922,-6.0065,-6.0717,-6.0125,-5.9917,-5.9609,-5.896,-5.8563,0.0,0.0,0.0,0.0,0.0,0.0,0.0,-5.7881,-5.7881,-5.7881,0.0,-5.7881,0.0,-5.9387,-5.986,-6.0571,0.0,-6.1772,-6.2601,-6.4495,-6.4597,-6.529,-6.6762,-6.6812,-6.6643,-6.6322,-6.5899,-6.5155,-6.4123,-6.3717,-6.3108,-6.2381,-6.2381,-6.2381,-6.2381,0.0,-6.2381,-6.2381,-6.2381,-6.2381,-6.2381,-6.2381,-6.2381,-6.2381,-6.2381,-6.2381,-6.2279,-6.1552,-6.0503,-5.937,-5.8626,-5.8152,-5.7881,-5.7881,-5.7881,-5.7881,-5.7881,-5.7881,-5.7881,-5.7881,-5.7881,-5.7881,-5.7881,-5.7881,-5.7881,-5.7881,-5.7881,-5.7881,-5.7881,-5.7881,-5.7881,-5.7881,-5.7881,-5.7881,-5.7881,-5.7881,-5.7881,-5.7881,-5.7881,-5.7881,-5.7881,-5.7881,-5.7763,-5.7442,-5.6376,-5.5581,-5.5243,-5.4143,-5.3501,-5.3501,-5.3501,-5.3501,-5.3501,-5.3501,-5.3501,-5.3501,-5.3501,-5.3501,-5.3501,-5.3501,-5.3501,-5.8058,-5.8857,-5.9348,-5.8895,-6.0256,-6.1448,-6.0268,-6.0454,-6.0651,-5.9998,0.0,0.0,-5.8046,0.0,-5.801,-5.7918,0.0,-5.7881,-5.7881,-5.7881,-5.7881,-5.7881,-5.7983,-5.8575,-5.9962,-6.0199,-6.0842,-6.2279,-6.2381,-6.299,-6.4377,-6.4546,-6.5239,-6.6626,-6.6576,-6.6203,-6.5544,-6.5442,-6.4766,-6.3514,-6.3413,-6.3024,-6.2381,-6.2381,-6.2381,-6.2381,-6.2381,0.0,-6.2381,-6.2381,-6.2381,-6.2381,-6.2381,-6.2381,-6.2381,-6.2381,-6.2381,-6.2296,-6.167,-6.0858,-5.9979,-5.9252,-5.8507,-5.7881,-5.7881,-5.7881,-5.7881,-5.7881,-5.7881,-5.7881,-5.7881,-5.7881,-5.7881,-5.7881,-5.7881,-5.7881,-5.7881,-5.7881,-5.7881,-5.7881,-5.7881,-5.7881,-5.7881,-5.7881,-5.7881,-5.7881,-5.7881,-5.7881,-5.7881,-5.7881,-5.7881,-5.7881,-5.7797,-5.7492,-5.685,-5.6038,-5.5294,-5.4634,-5.3907,-5.3501,-5.3501,-5.3501,-5.3501,-5.3501,-5.3501,-5.3501,-5.3501,-5.3501,-5.3501,-5.3501,-5.3501,-5.3501,-5.7369,-5.807,-5.8741,-5.8666,-5.9501,-6.0299,-6.003,-6.0093,0.0,0.0,0.0,-5.9414,-5.8154,-5.8352,0.0,-5.7991,0.0,0.0,0.0,0.0,-5.7881,0.0,0.0,0.0,0.0,0.0,0.0,0.0,0.0,-6.277,-6.3649,-6.4275,-6.5002,-6.5848,-6.5307,-6.4918,-6.4783,-6.4191,-6.3768,-6.3514,-6.2888,-6.2516,-6.2381,-6.2381,-6.2381,-6.2381,-6.2381,0.0,-6.2381,-6.2381,-6.2381,-6.2381,-6.2381,-6.2381,-6.2381,-6.2381,-6.2381,-6.2364,-6.2245,-6.1281,-5.9979,-5.9252,-5.8507,-5.7881,-5.7881,-5.7881,-5.7881,-5.7881,-5.7881,-5.7881,-5.7881,-5.7881,-5.7881,-5.7881,-5.7881,-5.7881,-5.7881,-5.7881,-5.7881,-5.7881,-5.7881,-5.7881,-5.7881,-5.7881,-5.7881,-5.7881,-5.7881,-5.7881,-5.7881,-5.7881,-5.7881,-5.7881,-5.734,-5.6934,-5.6816,-5.5564,-5.4735,-5.46,-5.3907,-5.3501,-5.3501,-5.3501,-5.3501,-5.3501,-5.3501,-5.3501,-5.3501,-5.3501,-5.3501,-5.3501,-5.3501,-5.3501,-5.6811,-5.7909,-5.8874,-5.7832,-5.9043,-6.0331,-5.9594,0.0,0.0,0.0,0.0,-5.9676,-5.8616,0.0,0.0,0.0,0.0,0.0,0.0,0.0,0.0,0.0,0.0,0.0,0.0,0.0,0.0,0.0,0.0,-6.2719,-6.348,-6.4208,-6.4766,-6.5121,-6.4783,-6.4427,-6.4038,-6.37,-6.3328,-6.2922,-6.2567,-6.2381,-6.2381,-6.2381,-6.2381,-6.2381,-6.2381,0.0,-6.2381,-6.2381,-6.2381,-6.2381,-6.2381,-6.2381,-6.2381,-6.2381,-6.2381,-6.2381,-6.2381,-6.1383,-6.0047,-5.9691,-5.8812,-5.7881,-5.7881,-5.7881,-5.7881,-5.7881,-5.7881,-5.7881,-5.7881,-5.7881,-5.7881,-5.7881,-5.7881,-5.7881,-5.7881,-5.7881,-5.7881,-5.7881,-5.7881,-5.7881,-5.7881,-5.7881,-5.7881,-5.7881,-5.7881,-5.7881,-5.7881,-5.756,-5.7323,-5.7323,-5.7019,-5.6494,-5.5716,-5.5006,-5.4431,-5.4042,-5.3704,-5.3501,-5.3501,-5.3501,-5.3501,-5.3501,-5.3501,-5.3501,-5.3501,-5.3501,-5.3501,-5.3501,-5.3501,-5.3501,-5.6447,-5.7801,-5.8898,-5.7066,-5.8577,-6.0291,-5.9361,-5.9867,0.0,0.0,0.0,0.0,0.0,0.0,0.0,0.0,0.0,0.0,0.0,0.0,0.0,0.0,0.0,0.0,0.0,0.0,0.0,0.0,0.0,0.0,-6.348,-6.3903,-6.4208,-6.436,-6.4208,-6.3852,-6.3277,-6.3277,-6.2973,-6.2381,-6.2381,-6.2381,-6.2381,-6.2381,-6.2381,-6.2381,-6.2381,0.0,0.0,-6.2381,-6.2381,-6.2381,-6.2381,-6.2381,-6.2381,-6.2381,-6.2381,-6.2381,-6.2381,-6.1383,-6.0097,-6.0097,-5.9099,-5.7881,-5.7881,-5.7881,-5.7881,-5.7881,-5.7881,-5.7881,-5.7881,-5.7881,-5.7881,-5.7881,-5.7881,-5.7881,-5.7881,-5.7881,-5.7881,-5.7881,-5.7881,-5.7881,-5.7881,-5.7881,-5.7881,-5.7881,-5.7881,-5.7881,-5.7881,-5.7256,-5.6748,-5.6579,-5.6427,-5.5852,-5.4685,-5.4448,-5.411,-5.3551,-5.3501,-5.3501,-5.3501,-5.3501,-5.3501,-5.3501,-5.3501,-5.3501,-5.3501,-5.3501,-5.3501,-5.3501,-5.3501,-5.3501,-5.6447,-5.7388,-5.8197,-5.6926,-5.7793,-5.9155,-5.9745,0.0,0.0,0.0,-6.0406,-5.9774,0.0,0.0,0.0,0.0,0.0,0.0,0.0,0.0,0.0,0.0,0.0,0.0,0.0,0.0,0.0,0.0,0.0,0.0,-6.348,-6.2922,-6.2905,-6.3599,-6.2956,-6.2567,-6.2482,-6.2482,-6.2465,-6.2381,-6.2381,-6.2381,-6.2381,-6.2381,-6.2381,-6.2381,-6.2381,0.0,0.0,-6.2381,-6.2381,-6.2381,-6.2381,-6.2381,-6.2381,-6.2381,-6.2381,-6.2381,-6.2381,-6.1383,-6.0097,-6.0097,-5.9099,-5.7881,-5.7881,-5.7881,-5.7881,-5.7881,-5.7881,-5.7881,-5.7881,-5.7881,-5.7881,-5.7881,-5.7881,-5.7881,-5.7881,-5.7881,-5.7881,-5.7881,-5.7881,-5.7881,-5.7881,-5.7881,-5.7881,-5.7881,-5.7881,-5.7881,-5.7881,-5.7256,-5.6545,-5.5886,-5.5192,-5.4735,-5.46,-5.3991,-5.3568,-5.3501,-5.3501,-5.3501,-5.3501,-5.3501,-5.3501,-5.3501,-5.3501,-5.3501,-5.3501,-5.3501,-5.3501,-5.3501,-5.3501,-5.3501,-5.6017,-5.6799,-5.7678,-5.688,-5.7724,-5.9001,-5.9823,0.0,0.0,-6.0789,-6.0107,-5.9363,-5.9528,0.0,0.0,0.0,0.0,0.0,0.0,0.0,0.0,0.0,0.0,0.0,0.0,0.0,0.0,0.0,0.0,0.0,-6.2821,-6.255,-6.2533,-6.2821,-6.255,-6.2381,-6.2381,-6.2381,-6.2381,-6.2381,-6.2381,-6.2381,-6.2381,-6.2381,-6.2381,-6.2381,-6.2381,0.0,0.0,-6.2381,-6.2381,-6.2381,-6.2381,-6.2381,-6.2381,-6.2381,-6.2381,-6.233,-6.189,-6.1028,-6.003,-5.959,-5.8744,-5.7881,-5.7881,-5.7881,-5.7881,-5.7881,-5.7881,-5.7881,-5.7881,-5.7881,-5.7881,-5.7881,-5.7881,-5.7881,-5.7881,-5.7881,-5.7881,-5.7881,-5.7881,-5.7881,-5.7881,-5.7881,-5.7881,-5.7881,-5.7881,-5.7729,-5.7289,-5.6596,-5.5869,-5.5124,-5.4769,-5.4414,-5.3974,-5.367,-5.3501,-5.3501,-5.3501,-5.3501,-5.3501,-5.3501,-5.3501,-5.3501,-5.3501,-5.3501,-5.3501,-5.3501,-5.3501,-5.3501,-5.3501,-5.3501,-5.5961,-5.6397,-5.7068,-5.6739,-5.7552,-5.8712,0.0,0.0,0.0,-6.0819,-5.9706,-5.8806,-5.9528,0.0,0.0,0.0,0.0,0.0,0.0,0.0,0.0,0.0,0.0,0.0,0.0,0.0,0.0,0.0,0.0,0.0,0.0,-6.2381,-6.2381,-6.2381,-6.2381,-6.2381,-6.2381,-6.2381,-6.2381,-6.2381,-6.2381,-6.2381,-6.2381,-6.2381,-6.2381,-6.2381,-6.2381,0.0,0.0,-6.2381,-6.2381,-6.2381,-6.2381,-6.2381,-6.2381,-6.2381,-6.2245,-6.1992,-6.1484,-6.0639,-5.9691,-5.9184,-5.8507,-5.7881,-5.7881,-5.7881,-5.7881,-5.7881,-5.7881,-5.7881,-5.7881,-5.7881,-5.7881,-5.7881,-5.7881,-5.7881,-5.7881,-5.7881,-5.7881,-5.7881,-5.7881,-5.7881,-5.7881,-5.7881,-5.7881,-5.7881,-5.7695,-5.7391,-5.6867,-5.597,-5.5192,-5.4651,-5.4397,-5.4059,-5.3551,-5.3501,-5.3501,-5.3501,-5.3501,-5.3501,-5.3501,-5.3501,-5.3501,-5.3501,-5.3501,-5.3501,-5.3501,-5.3501,-5.3501,-5.3501,-5.3501,-5.3501,-5.6501,-5.6284,-5.6342,-5.6452,-5.7122,-5.8078,0.0,0.0,0.0,-6.0711,-5.933,-5.8118,-5.8806,-5.8369,0.0,0.0,0.0,0.0,0.0,0.0,0.0,0.0,0.0,0.0,0.0,0.0,0.0,0.0,0.0,0.0,0.0,-6.2381,-6.2381,-6.2381,-6.2381,-6.2381,-6.2381,-6.2381,-6.2381,-6.2381,-6.2381,-6.2381,-6.2381,-6.2381,-6.2381,0.0,0.0,0.0,0.0,-6.2381,-6.2381,-6.2381,-6.2381,-6.2381,-6.2381,-6.2381,-6.1941,-6.1315,-6.1298,-6.03,-5.9032,-5.9015,-5.8507,-5.7881,-5.7881,-5.7881,-5.7881,-5.7881,-5.7881,-5.7881,-5.7881,-5.7881,-5.7881,-5.7881,-5.7881,-5.7881,-5.7881,-5.7881,-5.7881,-5.7881,-5.7881,-5.7881,-5.7881,-5.7881,-5.7881,-5.7881,-5.7273,-5.6816,-5.6799,-5.5513,-5.46,-5.4583,-5.394,-5.3518,-5.3501,-5.3501,-5.3501,-5.3501,-5.3501,-5.3501,-5.3501,-5.3501,-5.3501,-5.3501,-5.3501,-5.3501,-5.3501,-5.3501,-5.3501,-5.3501,-5.3501,-5.3501,-5.6635,-5.651,-5.6788,-5.7747,-5.7895,-5.839,-6.0765,0.0,-5.9313,-6.0711,-5.9347,-5.8101,-5.8772,-5.8352,0.0,0.0,0.0,0.0,0.0,0.0,0.0,0.0,0.0,0.0,0.0,0.0,0.0,0.0,0.0,0.0,0.0,-6.2381,-6.2381,-6.2381,-6.2381,-6.2381,-6.2381,-6.2381,-6.2381,-6.2381,-6.2381,-6.2381,-6.2381,-6.2381,-6.2381,0.0,0.0,0.0,0.0,-6.2381,-6.2381,-6.2381,-6.2381,-6.2381,-6.233,-6.1823,-6.1501,-6.1146,-6.0097,-5.9421,-5.893,-5.8406,-5.8084,-5.7881,-5.7881,-5.7881,-5.7881,-5.7881,-5.7881,-5.7881,-5.7881,-5.7881,-5.7881,-5.7881,-5.7881,-5.7881,-5.7881,-5.7881,-5.7881,-5.7881,-5.7881,-5.7881,-5.7881,-5.7881,-5.7729,-5.7222,-5.6951,-5.6444,-5.5429,-5.4888,-5.4397,-5.3907,-5.3653,-5.3501,-5.3501,-5.3501,-5.3501,-5.3501,-5.3501,-5.3501,-5.3501,-5.3501,-5.3501,-5.3501,-5.3501,-5.3501,-5.3501,-5.3501,-5.3501,-5.3501,-5.3501,-5.3501,0.0,-5.6801,-5.6956,-5.7963,-5.7989,0.0,0.0,0.0,-5.9246,-6.045,-5.9396,-5.8334,-5.8493,-5.8388,0.0,0.0,0.0,0.0,0.0,0.0,0.0,0.0,0.0,0.0,0.0,0.0,0.0,0.0,0.0,0.0,0.0,-6.2381,-6.2381,-6.2381,-6.2381,-6.2381,-6.2381,-6.2381,-6.2381,-6.2381,-6.2381,-6.2381,-6.2381,-6.2381,-6.2381,0.0,0.0,0.0,0.0,-6.2381,-6.2381,-6.2381,-6.2381,-6.2229,-6.1924,-6.1467,-6.0943,-6.03,-5.9353,-5.8829,-5.8507,-5.8051,-5.7881,-5.7881,-5.7881,-5.7881,-5.7881,-5.7881,-5.7881,-5.7881,-5.7881,-5.7881,-5.7881,-5.7881,-5.7881,-5.7881,-5.7881,-5.7881,-5.7881,-5.7881,-5.7881,-5.7881,-5.7881,-5.7662,-5.7323,-5.6867,-5.6325,-5.5632,-5.4718,-5.4346,-5.4008,-5.3551,-5.3501,-5.3501,-5.3501,-5.3501,-5.3501,-5.3501,-5.3501,-5.3501,-5.3501,-5.3501,-5.3501,-5.3501,-5.3501,-5.3501,-5.3501,-5.3501,-5.3501,-5.3501,-5.3501,-5.3501,0.0,0.0,0.0,0.0,0.0,0.0,0.0,0.0,0.0,-5.9963,-5.9511,-5.8772,-5.8046,0.0,0.0,0.0,0.0,0.0,0.0,0.0,0.0,0.0,0.0,0.0,0.0,0.0,0.0,0.0,0.0,0.0,0.0,-6.2381,-6.2381,-6.2381,-6.2381,-6.2381,-6.2381,-6.2381,-6.2381,-6.2381,-6.2381,-6.2381,-6.2381,-6.2381,-6.2381,0.0,0.0,0.0,0.0,-6.2381,-6.2381,-6.2381,-6.233,-6.189,-6.1298,-6.118,-6.025,-5.9015,-5.8947,-5.8473,-5.7881,-5.7881,-5.7881,-5.7881,-5.7881,-5.7881,-5.7881,-5.7881,-5.7881,-5.7881,-5.7881,-5.7881,-5.7881,-5.7881,-5.7881,-5.7881,-5.7881,-5.7881,-5.7881,-5.7881,-5.7848,-5.7814,-5.7814,-5.7205,-5.6714,-5.6647,-5.548,-5.4566,-5.4515,-5.3923,-5.3501,-5.3501,-5.3501,-5.3501,-5.3501,-5.3501,-5.3501,-5.3501,-5.3501,-5.3501,-5.3501,-5.3501,-5.3501,-5.3501,-5.3501,-5.3501,-5.3501,-5.3501,-5.3501,-5.3501,-5.3501,-5.3501,-5.7909,0.0,-5.7825,-5.8342,0.0,0.0,0.0,0.0,0.0,0.0,0.0,0.0,0.0,0.0,0.0,0.0,0.0,0.0,0.0,0.0,0.0,0.0,0.0,0.0,0.0,0.0,0.0,0.0,0.0,0.0,0.0,-6.2381,-6.2381,-6.2381,-6.2381,-6.2381,-6.2381,-6.2381,-6.2381,-6.2381,-6.2381,-6.2381,-6.2381,-6.2381,-6.2381,0.0,0.0,0.0,-6.2381,-6.2381,-6.2381,-6.233,-6.1772,-6.145,-6.1163,-5.9996,-5.9319,-5.893,-5.8355,-5.8034,-5.7881,-5.7881,-5.7881,-5.7881,-5.7881,-5.7881,-5.7881,-5.7881,-5.7881,-5.7881,-5.7881,-5.7881,-5.7881,-5.7881,-5.7881,-5.7881,-5.7881,-5.7881,-5.7881,-5.7881,-5.7442,-5.7053,-5.7053,-5.6461,-5.5784,-5.5192,-5.4803,-5.4397,-5.3822,-5.3619,-5.3501,-5.3501,-5.3501,-5.3501,-5.3501,-5.3501,-5.3501,-5.3501,-5.3501,-5.3501,-5.3501,-5.3501,-5.3501,-5.3501,-5.3501,-5.3501,-5.3501,-5.3501,-5.3501,-5.3501,-5.3501,-5.3501,-5.7997,-5.7997,-5.8042,-5.8293,-5.8058,-5.8134,0.0,0.0,0.0,0.0,0.0,0.0,0.0,0.0,0.0,0.0,0.0,0.0,0.0,0.0,0.0,0.0,0.0,0.0,0.0,0.0,0.0,0.0,0.0,0.0,0.0,-6.2381,-6.2381,-6.2381,-6.2381,-6.2381,-6.2381,-6.2381,-6.2381,-6.2381,-6.2381,-6.2381,-6.2381,-6.2381,-6.2381,0.0,0.0,0.0,-6.2364,-6.2026,-6.189,-6.1823,-6.1044,-6.0554,-6.0148,-5.9319,-5.8795,-5.844,-5.8034,-5.7881,-5.7881,-5.7881,-5.7881,-5.7881,-5.7881,-5.7881,-5.7881,-5.7881,-5.7881,-5.7881,-5.7881,-5.7881,-5.7881,-5.7881,-5.7881,-5.7881,-5.7881,-5.7881,-5.7797,-5.7459,-5.707,-5.6697,-5.6359,-5.5683,-5.5057,-5.4651,-5.4296,-5.3957,-5.3551,-5.3501,-5.3501,-5.3501,-5.3501,-5.3501,-5.3501,-5.3501,-5.3501,-5.3501,-5.3501,-5.3501,-5.3501,-5.3501,-5.3501,-5.3501,-5.3501,-5.3501,-5.3501,-5.3501,-5.3501,-5.3501,-5.3501,-5.3501,-5.7997,-5.7997,-5.7973,-5.7815,-5.781,-5.7985,0.0,0.0,0.0,0.0,0.0,0.0,0.0,0.0,0.0,0.0,0.0,0.0,0.0,0.0,0.0,0.0,0.0,0.0,0.0,0.0,0.0,0.0,0.0,0.0,0.0,-6.2381,-6.2381,-6.2381,-6.2381,-6.2381,-6.2381,-6.2381,-6.2381,-6.2381,-6.2381,-6.2381,-6.2381,-6.2381,-6.233,-6.2229,0.0,0.0,-6.1992,-6.1366,-6.1129,-6.1044,-6.025,-5.9556,-5.8998,-5.8879,-5.844,-5.7881,-5.7881,-5.7881,-5.7881,-5.7881,-5.7881,-5.7881,-5.7881,-5.7881,-5.7881,-5.7881,-5.7881,-5.7881,-5.7881,-5.7881,-5.7881,-5.7881,-5.7881,-5.7865,-5.7746,-5.7729,-5.7509,-5.6782,-5.6545,-5.6275,-5.5649,-5.4921,-5.4431,-5.4431,-5.3907,-5.3501,-5.3501,-5.3501,-5.3501,-5.3501,-5.3501,-5.3501,-5.3501,-5.3501,-5.3501,-5.3501,-5.3501,-5.3501,-5.3501,-5.3501,-5.3501,-5.3501,-5.3501,-5.3501,-5.3501,-5.3501,-5.3501,-5.3501,-5.3501,-5.3501,-5.7997,-5.7997,-5.7973,-5.7815,-5.7812,-5.7881,0.0,0.0,0.0,0.0,0.0,0.0,0.0,0.0,0.0,0.0,0.0,0.0,0.0,0.0,0.0,0.0,0.0,0.0,0.0,0.0,0.0,0.0,0.0,0.0,0.0,-6.2381,-6.2381,-6.2381,-6.2381,-6.2381,-6.2381,-6.2381,-6.2381,-6.2381,-6.2381,-6.2381,-6.2381,-6.2381,-6.2059,-6.1467,0.0,-6.1078,-6.0436,-6.0334,-6.0283,-6.0216,-5.9471,-5.9116,-5.893,-5.8287,-5.7983,-5.7881,-5.7881,-5.7881,-5.7881,-5.7881,-5.7881,-5.7881,-5.7881,-5.7881,-5.7881,-5.7881,-5.7881,-5.7881,-5.7881,-5.7881,-5.7881,-5.7881,-5.7881,-5.7729,-5.7103,-5.6968,-5.6748,-5.6021,-5.5361,-5.4888,-5.4786,-5.416,-5.367,-5.367,-5.3568,-5.3501,-5.3501,-5.3501,-5.3501,-5.3501,-5.3501,-5.3501,-5.3501,-5.3501,-5.3501,-5.3501,-5.3501,-5.3501,-5.3501,-5.3501,-5.3501,-5.3501,-5.3501,-5.3501,-5.3501,-5.3501,-5.3501,-5.3501,-5.3501,-5.3501,-5.7997,-5.7774,-5.7565,-5.7745,-5.7745,-5.7674,0.0,0.0,0.0,0.0,0.0,0.0,0.0,0.0,0.0,0.0,0.0,0.0,0.0,0.0,0.0,0.0,0.0,0.0,0.0,0.0,0.0,0.0,0.0,0.0,-6.2381,-6.2381,-6.2381,-6.2381,-6.2381,-6.2195,-6.1806,-6.1806,-6.2009,-6.2381,-6.1992,-6.1806,-6.1789,-6.1349,-6.0977,-6.0655,0.0,-6.0436,-6.0063,-5.9674,-5.9522,-5.9438,-5.8693,-5.8406,-5.8355,-5.8017,-5.7881,-5.7881,-5.7881,-5.8137,-5.8423,-5.8423,-5.8423,-5.8423,-5.8423,-5.8173,-5.7881,-5.7881,-5.7881,-5.7881,-5.7881,-5.7881,-5.7881,-5.7881,-5.7594,-5.7205,-5.6867,-5.6494,-5.6004,-5.526,-5.482,-5.4465,-5.4059,-5.3721,-5.3501,-5.3501,-5.3501,-5.3501,-5.3501,-5.3501,-5.3501,-5.3501,-5.3501,-5.3501,-5.3501,-5.3501,-5.3501,-5.3501,-5.3501,-5.3501,-5.3501,-5.3501,-5.3501,-5.3501,-5.3501,-5.3501,-5.3501,-5.3501,-5.3501,-5.3501,-5.3501,-5.3501,-5.7997,-5.766,-5.7401,-5.7768,0.0,0.0,0.0,0.0,0.0,0.0,0.0,0.0,0.0,0.0,0.0,0.0,0.0,0.0,0.0,0.0,0.0,0.0,0.0,0.0,0.0,0.0,0.0,0.0,0.0,0.0,-6.2012,-6.2012,-6.2012,-6.2012,-6.2012,-6.174,-6.1181,-6.1181,-6.1392,-6.1839,-6.1281,-6.1049,-6.1087,-6.0385,-6.005,-5.9919,-5.9844,-5.9742,-5.9539,-5.8981,-5.8744,-5.8693,-5.8303,-5.8244,-5.8369,-5.8369,-5.8369,-5.8369,-5.8369,-5.872,-5.9163,-5.9163,-5.9163,-5.9163,-5.9163,-5.8789,-5.8369,-5.8369,-5.828,-5.8118,-5.7954,-5.7881,-5.7848,-5.7679,-5.7205,-5.6714,-5.6359,-5.5852,-5.5226,-5.4482,-5.4329,-5.416,-5.3602,-5.3501,-5.3501,-5.3501,-5.3501,-5.3501,-5.3501,-5.3501,-5.3501,-5.3501,-5.3501,-5.3501,-5.3501,-5.3501,-5.3501,-5.3501,-5.3501,-5.3501,-5.3501,-5.3501,-5.3501,-5.3501,-5.3501,-5.3501,-5.3501,-5.3501,-5.3501,-5.3501,-5.3501,-5.3501,-5.7997,-5.7973,-5.7932,-5.7973,0.0,0.0,0.0,0.0,0.0,0.0,0.0,0.0,0.0,0.0,0.0,0.0,0.0,0.0,0.0,0.0,0.0,0.0,0.0,0.0,0.0,0.0,0.0,0.0,0.0,0.0,-6.0808,-6.0808,-6.0808,-6.0808,-6.0808,-6.0791,-6.0723,-6.0723,-6.0571,-6.0266,-6.0216,-6.0258,-6.0462,-6.0207,-5.9817,-5.9358,-5.9174,-5.8693,-5.8034,-5.7983,-5.7966,-5.8039,-5.8598,-5.923,-5.9838,-5.9838,-5.9838,-5.9838,-5.9838,-5.987,-5.9902,-5.9902,-5.9902,-5.9902,-5.9902,-5.987,-5.9838,-5.9838,-5.938,-5.8668,-5.8046,-5.7881,-5.7729,-5.7036,-5.685,-5.6427,-5.504,-5.4718,-5.4448,-5.3721,-5.3585,-5.3568,-5.3518,-5.3501,-5.3501,-5.3501,-5.3501,-5.3501,-5.3501,-5.3501,-5.3501,-5.3501,-5.3501,-5.3501,-5.3501,-5.3501,-5.3501,-5.3501,-5.3501,-5.3501,-5.3501,-5.3501,-5.3501,-5.3501,-5.3501,-5.3501,-5.3501,-5.3501,-5.3501,-5.3501,-5.3501,-5.3501,-5.7997,-5.7726,-5.7522,-5.7909,0.0,0.0,0.0,0.0,0.0,0.0,0.0,0.0,0.0,0.0,0.0,0.0,0.0,0.0,0.0,0.0,0.0,0.0,0.0,0.0,0.0,0.0,0.0,0.0,0.0,0.0,0.0,-6.0691,-6.0691,-6.0691,-6.0691,-6.0469,-6.0008,-6.0008,-5.966,-5.8911,-5.9386,-5.9661,-5.9681,-5.9021,-5.8612,-5.8431,-5.8358,-5.8152,-5.7918,-5.8369,-5.8511,-5.8581,-5.9314,-5.9741,-5.9998,-5.9998,-5.9998,-5.9998,-5.9998,-6.0251,-6.0638,-6.0626,-6.0608,-6.062,-6.062,-6.0313,-5.9902,-5.9429,-5.88,-5.8255,-5.8461,-5.7868,-5.7154,-5.6867,-5.6105,-5.5277,-5.4718,-5.4228,-5.3822,-5.3551,-5.3501,-5.3501,-5.3501,-5.3501,-5.3501,-5.3501,-5.3501,-5.3501,-5.3501,-5.3501,-5.3501,-5.3501,-5.3501,-5.3501,-5.3501,-5.3501,-5.3501,-5.3501,-5.3501,-5.3501,-5.3501,-5.3501,-5.3501,-5.3501,-5.3501,-5.3501,-5.3501,-5.3501,-5.3501,-5.3501,-5.3501,-5.3501,-5.7997,-5.7703,-5.7474,0.0,0.0,0.0,0.0,0.0,0.0,0.0,0.0,0.0,0.0,0.0,0.0,0.0,0.0,0.0,0.0,0.0,0.0,0.0,0.0,0.0,0.0,0.0,0.0,0.0,0.0,0.0,0.0,-6.0138,-6.0138,-6.0138,-6.0138,-5.9898,-5.9402,-5.9402,-5.9092,-5.8473,-5.8931,-5.9079,-5.8953,-5.8228,-5.7918,-5.7991,-5.8137,-5.8209,-5.8263,-5.8977,-5.9363,-5.9609,-6.0125,-6.0454,-6.0638,-6.0638,-6.0638,-6.0638,-6.0638,-6.0927,-6.1315,-6.1332,-6.1315,-6.1268,-6.1075,-6.0699,-6.0104,-5.9149,-5.8369,-5.784,-5.8116,-5.7328,-5.6393,-5.6156,-5.5327,-5.4532,-5.4296,-5.3856,-5.3501,-5.3501,-5.3501,-5.3501,-5.3501,-5.3501,-5.3501,-5.3501,-5.3501,-5.3501,-5.3501,-5.3501,-5.3501,-5.3501,-5.3501,-5.3501,-5.3501,-5.3501,-5.3501,-5.3501,-5.3501,-5.3501,-5.3501,-5.3501,-5.3501,-5.3501,-5.3501,-5.3501,-5.3501,-5.3501,-5.3501,-5.3501,-5.3501,-5.3365,-5.7997,-5.7997,0.0,0.0,0.0,0.0,0.0,0.0,0.0,0.0,0.0,0.0,0.0,0.0,0.0,0.0,0.0,0.0,0.0,0.0,0.0,0.0,0.0,0.0,0.0,0.0,0.0,0.0,0.0,0.0,0.0,-5.9012,-5.9012,-5.9012,-5.9012,-5.9012,-5.9012,-5.9012,-5.9012,-5.9012,-5.8875,-5.8596,-5.8188,-5.7991,-5.8027,-5.826,-5.872,-5.8926,-5.896,-5.9709,-6.0406,-6.1016,-6.1016,-6.1401,-6.1996,-6.1996,-6.1996,-6.1996,-6.1996,-6.1996,-6.1996,-6.1996,-6.1978,-6.1877,-6.1192,-6.0998,-6.0653,-5.9201,-5.8296,-5.7598,-5.6857,-5.6184,-5.5513,-5.4769,-5.4583,-5.438,-5.367,-5.3501,-5.3501,-5.3501,-5.3501,-5.3501,-5.3501,-5.3501,-5.3501,-5.3501,-5.3501,-5.3501,-5.3501,-5.3501,-5.3501,-5.3501,-5.3501,-5.3501,-5.3501,-5.3501,-5.3501,-5.3501,-5.3501,-5.3501,-5.3501,-5.3501,-5.3501,-5.3501,-5.3501,-5.3501,-5.3501,-5.3501,-5.3501,-5.3501,-5.3501,-5.3061,-5.7997,0.0,0.0,0.0,0.0,0.0,0.0,0.0,0.0,0.0,0.0,0.0,0.0,0.0,0.0,0.0,0.0,0.0,0.0,0.0,0.0,0.0,0.0,0.0,0.0,0.0,0.0,0.0,0.0,0.0,0.0,-5.9012,-5.9012,-5.9012,-5.9012,-5.9012,-5.9012,-5.9483,-5.9631,-5.9515,-5.9934,-5.9596,-5.8631,-5.8841,-5.8977,-5.9079,-5.9689,-5.9914,-5.9867,-6.0468,-6.1104,-6.1692,-6.1692,-6.1822,-6.1996,-6.1996,-6.1996,-6.1996,-6.1996,-6.1996,-6.1996,-6.1996,-6.1616,-6.1118,-6.0918,-6.018,-5.9187,-5.8285,-5.7178,-5.6102,-5.5399,-5.4686,-5.4228,-5.4532,-5.4194,-5.3771,-5.3551,-5.3501,-5.3501,-5.3501,-5.3501,-5.3501,-5.3501,-5.3501,-5.3501,-5.3501,-5.3501,-5.3501,-5.3501,-5.3501,-5.3501,-5.3501,-5.3501,-5.3501,-5.3501,-5.3501,-5.3501,-5.3501,-5.3501,-5.3501,-5.3501,-5.3501,-5.3501,-5.3501,-5.3501,-5.3501,-5.3501,-5.3501,-5.3501,-5.3501,-5.2926,-5.2536,-5.7997,0.0,0.0,0.0,0.0,0.0,0.0,0.0,0.0,0.0,0.0,0.0,0.0,0.0,0.0,0.0,0.0,0.0,0.0,0.0,0.0,0.0,0.0,0.0,0.0,0.0,0.0,0.0,0.0,0.0,0.0,-5.9012,-5.9132,-5.9383,-5.9383,-5.9532,-5.9741,-6.0156,-6.0188,-5.9823,-6.0219,-6.0016,-5.9284,-5.9644,-5.9786,-5.9818,-6.0506,-6.0885,-6.1098,-6.1422,-6.174,-6.2087,-6.2087,-6.2033,-6.1996,-6.1996,-6.1797,-6.1507,-6.1507,-6.129,-6.1064,-6.1064,-6.0738,-6.0268,-6.0006,-5.9325,-5.8388,-5.7176,-5.6195,-5.5348,-5.4415,-5.3822,-5.3619,-5.4059,-5.3822,-5.3501,-5.3501,-5.3501,-5.3501,-5.3501,-5.3501,-5.3501,-5.3501,-5.3501,-5.3501,-5.3501,-5.3501,-5.3501,-5.3501,-5.3501,-5.3501,-5.3501,-5.3501,-5.3501,-5.3501,-5.3501,-5.3501,-5.3501,-5.3501,-5.3501,-5.3501,-5.3501,-5.3501,-5.3501,-5.3501,-5.3501,-5.3501,-5.3501,-5.3348,-5.301,-5.2536,-5.1995,0.0,0.0,0.0,0.0,0.0,0.0,0.0,0.0,0.0,0.0,0.0,0.0,0.0,0.0,0.0,0.0,0.0,0.0,0.0,0.0,0.0,0.0,0.0,0.0,0.0,0.0,0.0,0.0,0.0,0.0,0.0,-5.9148,-5.9433,-6.0065,-6.0097,-6.0313,-6.0808,-6.0926,-6.0694,-6.0097,-6.0192,-6.0219,-6.0131,-6.0291,-6.0414,-6.0567,-6.1225,-6.1806,-6.2305,-6.2305,-6.2164,-6.1985,-6.1985,-6.1896,-6.1761,-6.1761,-6.1308,-6.0701,-6.0701,-6.0212,-5.9615,-5.9615,-5.9561,-5.9383,-5.8785,-5.8488,-5.8017,-5.6105,-5.549,-5.5126,-5.3904,-5.3534,-5.3501,-5.3501,-5.3501,-5.3501,-5.3501,-5.3501,-5.3501,-5.3501,-5.3501,-5.3501,-5.3501,-5.3501,-5.3501,-5.3501,-5.3501,-5.3501,-5.3501,-5.3501,-5.3501,-5.3501,-5.3501,-5.3501,-5.3501,-5.3501,-5.3501,-5.3501,-5.3501,-5.3501,-5.3501,-5.3501,-5.3501,-5.3501,-5.3501,-5.3501,-5.3501,-5.3433,-5.301,-5.23,-5.2164,-5.1386,0.0,0.0,0.0,0.0,0.0,0.0,0.0,0.0,0.0,0.0,0.0,0.0,0.0,0.0,0.0,0.0,0.0,0.0,0.0,0.0,0.0,0.0,0.0,0.0,0.0,0.0,0.0,0.0,0.0,0.0,-6.0476,-6.0476,-6.0555,-6.0706,-6.0706,-6.0542,-6.0205,-6.1185,-6.134,0.0,-6.1723,-6.1865,-6.1238,-6.0439,-6.0651,-6.1612,-6.2131,-6.2084,-6.1594,-6.1492,-6.1025,-6.0332,-6.0332,-6.0227,-6.0122,-6.0122,-6.0013,-5.9868,-5.9868,-5.9742,-5.9615,-5.9615,-5.918,-5.8629,-5.8481,-5.7667,-5.6692,-5.6244,-5.5417,-5.4566,-5.4301,-5.3865,-5.3501,-5.3501,-5.3501,-5.3501,-5.3501,-5.3501,-5.3501,-5.3501,-5.3501,-5.3501,-5.3501,-5.3501,-5.3501,-5.3501,-5.3501,-5.3501,-5.3501,-5.3501,-5.3501,-5.3501,-5.3501,-5.3501,-5.3501,-5.3501,-5.3501,-5.3501,-5.3501,-5.3501,-5.3501,-5.3501,-5.3501,-5.3501,-5.3501,-5.3501,-5.3501,-5.2875,-5.2469,-5.2266,-5.1099,-5.0388,0.0,0.0,0.0,0.0,0.0,0.0,0.0,0.0,0.0,0.0,0.0,0.0,0.0,0.0,0.0,0.0,0.0,0.0,0.0,0.0,0.0,0.0,0.0,0.0,0.0,0.0,0.0,0.0,0.0,-6.0897,-6.0897,-6.0615,-6.0754,-6.1368,-6.0686,-6.0478,-6.0755,-6.1044,-6.0862,-6.0236,-6.0915,-6.0828,-6.0122,-6.0186,-6.0548,-6.1211,-6.1432,-6.1312,-6.0903,-6.0779,-6.0423,-5.9983,-5.9856,-5.9753,-5.9693,-5.9623,-5.9361,-5.9035,-5.9035,-5.8782,-5.8456,-5.8456,-5.8166,-5.7822,-5.7822,-5.7309,-5.6608,-5.5981,-5.5349,-5.4751,-5.4124,-5.3734,-5.3501,-5.3501,-5.3501,-5.3501,-5.3501,-5.3501,-5.3501,-5.3501,-5.3501,-5.3501,-5.3501,-5.3501,-5.3501,-5.3501,-5.3501,-5.3501,-5.3501,-5.3501,-5.3501,-5.3501,-5.3501,-5.3501,-5.3501,-5.3501,-5.3501,-5.3501,-5.3501,-5.3501,-5.3501,-5.3129,-5.3112,-5.3501,-5.3129,-5.2926,-5.2926,-5.2164,-5.1589,-5.1234,-5.0456,-4.9898,0.0,0.0,0.0,0.0,0.0,0.0,0.0,0.0,0.0,0.0,0.0,0.0,0.0,0.0,0.0,0.0,0.0,0.0,0.0,0.0,0.0,0.0,0.0,0.0,0.0,0.0,0.0,0.0,0.0,-6.0967,-6.0823,-6.0333,-6.054,-6.1606,-6.0456,-6.026,-6.1226,-6.0683,-6.0096,-5.9498,-5.9458,-5.9175,-5.8651,-5.9582,-6.0078,-6.0237,-6.0353,-6.0327,-6.0175,-6.006,-5.9938,-5.9761,-5.9545,-5.9438,-5.9405,-5.9302,-5.8841,-5.8261,-5.8261,-5.7844,-5.7282,-5.7239,-5.7239,-5.7213,-5.7206,-5.7138,-5.6819,-5.5766,-5.5349,-5.4966,-5.3931,-5.3584,-5.3501,-5.3501,-5.3501,-5.3501,-5.3501,-5.3501,-5.3501,-5.3501,-5.3501,-5.3501,-5.3501,-5.3501,-5.3501,-5.3501,-5.3501,-5.3501,-5.3501,-5.3501,-5.3501,-5.3501,-5.3501,-5.3501,-5.3501,-5.3501,-5.3501,-5.3501,-5.3365,-5.3298,-5.3298,-5.2536,-5.2418,-5.3095,-5.2452,-5.2114,-5.2114,-5.1386,-5.071,-5.0084,-4.9965,-4.9576,0.0,0.0,0.0,0.0,0.0,0.0,0.0,0.0,0.0,0.0,0.0,0.0,0.0,0.0,0.0,0.0,0.0,0.0,0.0,0.0,0.0,0.0,0.0,0.0,0.0,0.0,0.0,0.0,-6.1524,-6.1188,-6.0493,-6.0382,-6.0407,-6.0591,-6.039,-6.0142,-5.9792,-6.0176,-6.0096,-5.948,-5.9328,-5.9188,-5.9103,-5.855,-5.8781,-5.9655,-6.0188,-6.0015,-5.9349,-5.9349,-5.8857,-5.8121,-5.8097,-5.8002,-5.7887,-5.7862,-5.7808,-5.7717,-5.7717,-5.7644,-5.7528,-5.7412,-5.7363,-5.7338,-5.7257,-5.6837,-5.6393,-5.6211,-5.5379,-5.4485,-5.4313,-5.3898,-5.3501,-5.3501,-5.3501,-5.3501,-5.3501,-5.3501,-5.3501,-5.3501,-5.3501,-5.3501,-5.3501,-5.3501,-5.3501,-5.3501,-5.3501,-5.3501,-5.3501,-5.3501,-5.3501,-5.3501,-5.3501,-5.3501,-5.3501,-5.3501,-5.3501,-5.3501,-5.2858,-5.2469,-5.2469,-5.1758,-5.142,-5.1522,-5.142,-5.1369,-5.1369,-5.0608,-5.0185,-5.0067,-4.9441,-4.9086,0.0,0.0,0.0,0.0,0.0,0.0,0.0,0.0,0.0,0.0,0.0,0.0,0.0,0.0,0.0,0.0,0.0,0.0,0.0,0.0,0.0,0.0,0.0,0.0,0.0,0.0,0.0,0.0,-6.0933,-6.0768,-6.0419,-6.0071,-6.0046,-6.0377,-5.9633,-5.9247,-5.9322,-5.9144,-5.8925,-5.8647,-5.8558,-5.8529,-5.8529,-5.8162,-5.8247,-5.8671,-5.8948,-5.8859,-5.8529,-5.8459,-5.8215,-5.7904,-5.7745,-5.7697,-5.7697,-5.7625,-5.7601,-5.7601,-5.7601,-5.7601,-5.7601,-5.7528,-5.751,-5.7504,-5.7437,-5.722,-5.6948,-5.6617,-5.612,-5.5519,-5.4857,-5.4488,-5.4205,-5.3866,-5.3767,-5.3767,-5.3767,-5.3701,-5.3601,-5.3601,-5.3601,-5.3584,-5.3501,-5.3501,-5.3501,-5.3501,-5.3501,-5.3501,-5.3501,-5.3501,-5.3501,-5.3501,-5.3501,-5.3501,-5.3501,-5.3501,-5.3501,-5.3501,-5.2739,-5.23,-5.23,-5.12,-5.0591,-5.0591,-5.0591,-5.0591,-5.0591,-4.983,-4.9475,-4.9475,-4.9154,-4.9001,0.0,0.0,0.0,0.0,0.0,0.0,0.0,0.0,0.0,0.0,0.0,0.0,0.0,0.0,0.0,0.0,0.0,0.0,0.0,0.0,0.0,0.0,0.0,0.0,0.0,0.0,0.0,0.0,-6.0107,-6.0015,-5.9813,-5.9352,-5.9327,-5.9771,-5.8762,-5.8452,-5.8872,-5.8309,-5.7997,-5.7997,-5.7997,-5.7997,-5.7997,-5.7997,-5.7997,-5.7997,-5.7997,-5.7997,-5.7997,-5.7886,-5.7904,-5.7973,-5.7768,-5.7768,-5.7839,-5.7745,-5.7697,-5.7697,-5.7697,-5.7697,-5.7697,-5.7673,-5.7649,-5.7649,-5.7625,-5.7486,-5.727,-5.6827,-5.6581,-5.624,-5.5332,-5.5009,-5.4799,-5.4333,-5.4093,-5.398,-5.398,-5.3882,-5.3783,-5.3783,-5.3783,-5.375,-5.3651,-5.3635,-5.3635,-5.3635,-5.3635,-5.3635,-5.3635,-5.3635,-5.3635,-5.3635,-5.3584,-5.3551,-5.3551,-5.3534,-5.3501,-5.3501,-5.257,-5.2029,-5.2029,-5.064,-4.9876,-4.9876,-4.9938,-4.9907,-4.9813,-4.9272,-4.9032,-4.9063,-4.9001,-4.9032,0.0,0.0,0.0,0.0,0.0,0.0,0.0,0.0,0.0,0.0,0.0,0.0,0.0,0.0,0.0,0.0,0.0,0.0,0.0,0.0,0.0,0.0,0.0,0.0,0.0,0.0,0.0,0.0,-5.9258,-5.8933,-5.8162,-5.8102,-5.8084,-5.8125,-5.8047,-5.8028,-5.8052,-5.8015,-5.7997,-5.7997,-5.7997,-5.7997,-5.7997,-5.7997,-5.7997,-5.7997,-5.7997,-5.7997,-5.7997,-5.7997,-5.7997,-5.7997,-5.7973,-5.7973,-5.7997,-5.7973,-5.7973,-5.7973,-5.7973,-5.7973,-5.7973,-5.7815,-5.7792,-5.7768,-5.7649,-5.7202,-5.6731,-5.6704,-5.6249,-5.5752,-5.5678,-5.5285,-5.4874,-5.4844,-5.4428,-5.398,-5.398,-5.398,-5.398,-5.398,-5.398,-5.398,-5.3997,-5.398,-5.398,-5.398,-5.398,-5.398,-5.398,-5.398,-5.398,-5.398,-5.3816,-5.3684,-5.3684,-5.3584,-5.3501,-5.3501,-5.2097,-5.1268,-5.1268,-4.9955,-4.925,-4.925,-4.9449,-4.9358,-4.9069,-4.9018,-4.9063,-4.9199,-4.9063,-4.9063,0.0,0.0,0.0,0.0,0.0,0.0,0.0,0.0,0.0,0.0,0.0,0.0,0.0,0.0,0.0,0.0,0.0,0.0,0.0,0.0,0.0,0.0,0.0,0.0,0.0,0.0,0.0,0.0,0.0,-5.8309,-5.8015,-5.7997,-5.7997,-5.7997,-5.7997,-5.7997,-5.7997,-5.7997,-5.7997,-5.7997,-5.7997,-5.7997,-5.7997,-5.7997,-5.7997,-5.7997,-5.7997,-5.7997,-5.7997,-5.7997,-5.7997,-5.7997,-5.7997,-5.7997,-5.7997,-5.7997,-5.7997,-5.7997,-5.7997,-5.7997,-5.7997,-5.795,-5.7927,-5.7927,-5.7862,-5.7703,-5.754,-5.754,-5.7073,-5.6518,-5.6167,-5.5669,-5.5134,-5.4741,-5.4494,-5.4303,-5.4303,-5.4303,-5.4271,-5.4143,-5.4143,-5.411,-5.4013,-5.398,-5.398,-5.398,-5.398,-5.398,-5.398,-5.398,-5.398,-5.398,-5.3948,-5.3849,-5.37,-5.3651,-5.3568,-5.3501,-5.2161,-5.1378,-5.1378,-5.009,-4.9381,-4.9381,-4.9441,-4.9458,-4.9337,-4.9337,-4.9367,-4.9398,-4.9199,-4.9138,0.0,0.0,0.0,0.0,0.0,0.0,0.0,0.0,0.0,0.0,0.0,0.0,0.0,0.0,0.0,0.0,0.0,0.0,0.0,0.0,0.0,0.0,0.0,0.0,0.0,0.0,0.0,0.0,0.0,0.0,-5.7997,-5.7997,-5.7997,-5.7997,-5.7997,-5.7997,-5.7997,-5.7997,-5.7997,-5.7997,-5.7997,-5.7997,-5.7997,-5.7997,-5.7997,-5.7997,-5.7997,-5.7997,-5.7997,-5.7997,-5.7997,-5.7997,-5.7997,-5.7997,-5.7997,-5.7997,-5.7997,-5.7997,-5.7997,-5.7997,-5.7997,-5.7997,-5.7997,-5.7997,-5.7997,-5.7997,-5.7997,-5.7997,-5.7708,-5.7284,-5.6713,-5.5999,-5.5254,-5.4652,-5.4512,-5.4512,-5.4512,-5.4512,-5.448,-5.4335,-5.4303,-5.4271,-5.4175,-5.4192,-5.4192,-5.4192,-5.4192,-5.4192,-5.4192,-5.4192,-5.4192,-5.4192,-5.411,-5.4013,-5.3865,-5.3849,-5.375,-5.3685,-5.2355,-5.1568,-5.1568,-5.0273,-4.9577,-4.9577,-4.9637,-4.9683,-4.9683,-4.9547,-4.95,-4.956,-4.932,-4.9168,0.0,0.0,0.0,0.0,0.0,0.0,0.0,0.0,0.0,0.0,0.0,0.0,0.0,0.0,0.0,0.0,0.0,0.0,0.0,0.0,0.0,0.0,0.0,0.0,0.0,0.0,0.0,0.0,-5.7997,-5.7997,-5.7997,-5.7997,-5.7997,-5.7997,-5.7997,-5.7997,-5.7997,-5.7997,-5.7997,-5.7997,-5.7997,-5.7997,-5.7997,-5.7997,-5.7997,-5.7997,-5.7997,-5.7997,-5.7997,-5.7997,-5.7997,-5.7997,-5.7997,-5.7997,-5.7997,-5.7997,-5.7997,-5.7997,-5.7997,-5.7997,-5.7997,-5.7997,-5.7997,-5.7997,-5.7997,-5.7997,-5.7997,-5.7997,-5.7997,-5.7821,-5.7216,-5.6258,-5.5254,-5.4683,-5.4512,-5.4512,-5.4512,-5.4512,-5.4512,-5.4512,-5.4512,-5.4512,-5.4512,-5.4512,-5.4512,-5.4512,-5.4512,-5.4512,-5.4512,-5.4512,-5.4512,-5.4512,-5.4335,-5.4207,-5.419,-5.4078,-5.4013,-5.398,-5.2562,-5.1725,-5.1725,-5.0425,-4.9708,-4.9708,-4.9889,-5.0011,-5.0011,-4.9666,-4.956,-4.9708,-4.9381,-4.9138,-5.7997,0.0,0.0,0.0,0.0,0.0,0.0,0.0,0.0,0.0,0.0,0.0,0.0,0.0,0.0,0.0,0.0,0.0,0.0,0.0,0.0,0.0,0.0,0.0,0.0,0.0,0.0,0.0,-5.7997,-5.7997,-5.7997,-5.7997,-5.7997,-5.7997,-5.7997,-5.7997,-5.7997,-5.7997,-5.7997,-5.7997,-5.7997,-5.7997,-5.7997,-5.7997,-5.7997,-5.7997,-5.7997,-5.7997,-5.7997,-5.7997,-5.7997,-5.7997,-5.7997,-5.7997,-5.7997,-5.7997,-5.7997,-5.7997,-5.7997,-5.7997,-5.7997,-5.7997,-5.7997,-5.7997,-5.7997,-5.7997,-5.7997,-5.7997,-5.7703,-5.7216,-5.6678,-5.5971,-5.5373,-5.5194,-5.4803,-5.4512,-5.4512,-5.4512,-5.4512,-5.4512,-5.4512,-5.4512,-5.4512,-5.4512,-5.4512,-5.4512,-5.4512,-5.4512,-5.4512,-5.4512,-5.4512,-5.4512,-5.4448,-5.4367,-5.419,-5.4175,-5.411,-5.403,-5.2689,-5.1929,-5.1929,-5.0639,-4.9935,-4.9935,-4.9964,-5.0011,-5.0011,-4.9906,-4.9877,-4.9906,-4.9666,-4.95,0.0,0.0,0.0,0.0,0.0,0.0,0.0,-5.7997,0.0,0.0,0.0,0.0,0.0,0.0,0.0,0.0,0.0,0.0,0.0,0.0,0.0,0.0,0.0,0.0,0.0,0.0,0.0,-5.7997,-5.7997,-5.7997,-5.7997,-5.7997,-5.7997,-5.7997,-5.7997,-5.7997,-5.7997,-5.7997,-5.7997,-5.7997,-5.7997,-5.7997,-5.7997,-5.7997,-5.7997,-5.7997,-5.7997,-5.7997,-5.7997,-5.7997,-5.7997,-5.7997,-5.7997,-5.7997,-5.7997,-5.7997,-5.7997,-5.7997,-5.7997,-5.7997,-5.7997,-5.7997,-5.7997,-5.7997,-5.7997,-5.7997,-5.7997,-5.7997,-5.7565,-5.704,-5.6713,-5.6221,-5.5716,-5.5443,-5.5122,-5.4821,-5.4557,-5.4512,-5.4512,-5.4512,-5.4512,-5.4512,-5.4512,-5.4512,-5.4512,-5.4512,-5.4512,-5.4512,-5.4512,-5.4512,-5.4512,-5.4512,-5.4512,-5.4448,-5.4335,-5.4335,-5.4183,-5.3761,-5.2705,-5.1945,-5.1636,-5.0573,-5.0011,-5.0011,-5.0011,-5.0011,-5.0011,-5.0011,-4.9964,-4.986,-4.9737,-4.9619,0.0,0.0,0.0,0.0,0.0,0.0,-5.7997,-5.7997,-5.7997,0.0,0.0,0.0,0.0,0.0,0.0,0.0,0.0,0.0,0.0,0.0,0.0,0.0,0.0,0.0,0.0,-5.7721,-5.7721,-5.7721,-5.7721,-5.7721,-5.7721,-5.7813,-5.7868,-5.7868,-5.7941,-5.7997,-5.7997,-5.7997,-5.7997,-5.7997,-5.7997,-5.7997,-5.7997,-5.7997,-5.7997,-5.7997,-5.7997,-5.7997,-5.7997,-5.7997,-5.7997,-5.7997,-5.7997,-5.7997,-5.7997,-5.7997,-5.7997,-5.7997,-5.7997,-5.7997,-5.7997,-5.7997,-5.7997,-5.7997,-5.7997,-5.7997,-5.7997,-5.7997,-5.7613,-5.7191,-5.7191,-5.6739,-5.6166,-5.5647,-5.5402,-5.5134,-5.462,-5.4512,-5.4512,-5.4512,-5.4512,-5.4512,-5.4512,-5.4512,-5.4512,-5.4512,-5.4512,-5.4512,-5.4512,-5.4512,-5.4512,-5.4512,-5.4512,-5.4512,-5.4512,-5.4512,-5.4201,-5.346,-5.2649,-5.186,-5.1149,-5.039,-5.0011,-5.0011,-5.0011,-5.0011,-5.0011,-5.0011,-4.9906,-4.9737,-4.9737,-4.9666,0.0,0.0,0.0,0.0,0.0,0.0,-5.7997,-5.7997,-5.7997,0.0,0.0,0.0,0.0,0.0,0.0,0.0,0.0,0.0,0.0,0.0,0.0,0.0,0.0,0.0,0.0,-5.6069,-5.6069,-5.6069,-5.6069,-5.6069,-5.6069,-5.6675,-5.7042,-5.7042,-5.7666,-5.7997,-5.7997,-5.7997,-5.7997,-5.7997,-5.7997,-5.7997,-5.7997,-5.7997,-5.7997,-5.7997,-5.7997,-5.7997,-5.7997,-5.7997,-5.7997,-5.7997,-5.7997,-5.7997,-5.7997,-5.7997,-5.7997,-5.7997,-5.7997,-5.7997,-5.7997,-5.7997,-5.7997,-5.7997,-5.7997,-5.7997,-5.7997,-5.7997,-5.7909,-5.7821,-5.7821,-5.7058,-5.6276,-5.6166,-5.5385,-5.4652,-5.4543,-5.4512,-5.4512,-5.4512,-5.4512,-5.4512,-5.4512,-5.4512,-5.4512,-5.4512,-5.4512,-5.4512,-5.4512,-5.4512,-5.4512,-5.4512,-5.4512,-5.4512,-5.4512,-5.4512,-5.4201,-5.346,-5.2649,-5.186,-5.1149,-5.039,-5.0011,-5.0011,-5.0011,-5.0011,-5.0011,-5.0011,-4.9982,-4.9935,-4.9935,-4.9935,0.0,0.0,0.0,-5.7997,0.0,0.0,0.0,-5.7997,-5.7997,0.0,0.0,0.0,0.0,0.0,0.0,0.0,0.0,0.0,0.0,0.0,0.0,0.0,0.0,0.0,0.0,-5.5614,-5.5614,-5.5614,-5.5614,-5.5614,-5.5614,-5.5978,-5.6198,-5.6198,-5.6583,-5.6785,-5.6785,-5.6785,-5.6785,-5.6785,-5.6785,-5.7005,-5.7409,-5.7409,-5.7611,-5.7997,-5.7997,-5.7997,-5.7997,-5.7997,-5.7997,-5.7997,-5.7997,-5.7997,-5.7997,-5.7997,-5.7997,-5.7997,-5.7997,-5.7997,-5.7997,-5.7997,-5.7997,-5.7997,-5.7997,-5.7997,-5.7997,-5.7997,-5.7997,-5.7997,-5.7997,-5.7565,-5.6989,-5.6438,-5.583,-5.5224,-5.462,-5.4512,-5.4512,-5.4512,-5.4512,-5.4512,-5.4512,-5.4512,-5.4512,-5.4512,-5.4512,-5.4512,-5.4512,-5.4512,-5.4512,-5.4512,-5.4512,-5.4512,-5.4512,-5.4512,-5.4011,-5.2873,-5.2412,-5.1688,-5.0614,-5.02,-5.0011,-5.0011,-5.0011,-5.0011,-5.0011,-5.0011,-5.0011,-5.0011,-5.0011,-5.0011,0.0,0.0,0.0,0.0,0.0,-5.7997,0.0,0.0,0.0,0.0,0.0,0.0,0.0,0.0,0.0,0.0,0.0,0.0,0.0,0.0,0.0,0.0,0.0,0.0,0.0,-5.5133,-5.5133,-5.5133,-5.5133,-5.5133,-5.5133,-5.5262,-5.5354,-5.5354,-5.5522,-5.5614,-5.5614,-5.5614,-5.5614,-5.5614,-5.5614,-5.5941,-5.6565,-5.6565,-5.6914,-5.7538,-5.7538,-5.7538,-5.7538,-5.7538,-5.7538,-5.7574,-5.7868,-5.7997,-5.7997,-5.7997,-5.7997,-5.7997,-5.7997,-5.7997,-5.7997,-5.7997,-5.7997,-5.7997,-5.7997,-5.7997,-5.7997,-5.7997,-5.7997,-5.7997,-5.7997,-5.7909,-5.7589,-5.6678,-5.6384,-5.6027,-5.5061,-5.4759,-5.4665,-5.4665,-5.4589,-5.4512,-5.4512,-5.4512,-5.4512,-5.4512,-5.4512,-5.4512,-5.4512,-5.4512,-5.4512,-5.4512,-5.4512,-5.4512,-5.4512,-5.4512,-5.3856,-5.2291,-5.2188,-5.1563,-5.0062,-5.0011,-5.0011,-5.0011,-5.0011,-5.0011,-5.0011,-5.0011,-5.0011,-5.0011,-5.0011,-5.0011,0.0,0.0,0.0,0.0,-5.7997,0.0,0.0,0.0,-5.7997,-5.7997,0.0,0.0,0.0,0.0,0.0,0.0,0.0,0.0,0.0,0.0,0.0,0.0,0.0,0.0,0.0,0.0,-5.3482,-5.3482,-5.3482,-5.3482,-5.3482,-5.4161,-5.4546,-5.4546,-5.5225,-5.5614,-5.5614,-5.5614,-5.5614,-5.5614,-5.5614,-5.5669,-5.5739,-5.5739,-5.5798,-5.589,-5.589,-5.589,-5.589,-5.589,-5.589,-5.5996,-5.7428,-5.7997,-5.7997,-5.7997,-5.7997,-5.7997,-5.7997,-5.7997,-5.7997,-5.7997,-5.7997,-5.7997,-5.7997,-5.7997,-5.7997,-5.7997,-5.7997,-5.7997,-5.7997,-5.7613,-5.7166,-5.704,-5.6652,-5.6276,-5.6138,-5.5676,-5.5313,-5.5313,-5.4865,-5.4512,-5.4512,-5.4512,-5.4512,-5.4512,-5.4512,-5.4512,-5.4512,-5.4512,-5.4512,-5.4512,-5.4512,-5.4512,-5.4512,-5.4512,-5.3856,-5.2291,-5.2188,-5.1563,-5.0062,-5.0011,-5.0011,-5.0011,-5.0011,-5.0011,-5.0011,-5.0011,-5.0011,-5.0011,-5.0011,-5.0011,0.0,0.0,0.0,0.0,0.0,0.0,-5.7997,0.0,-5.7997,0.0,0.0,0.0,0.0,0.0,0.0,0.0,0.0,0.0,0.0,0.0,0.0,0.0,0.0,0.0,0.0,0.0,0.0,0.0,-5.3185,-5.3185,-5.3185,-5.3537,-5.3702,-5.3702,-5.4032,-5.4216,-5.4216,-5.4216,-5.4216,-5.4216,-5.4216,-5.4454,-5.4895,-5.4895,-5.5152,-5.5614,-5.5614,-5.5614,-5.5614,-5.5614,-5.5614,-5.5666,-5.6326,-5.6895,-5.7299,-5.7299,-5.7593,-5.7997,-5.7997,-5.7997,-5.7997,-5.7997,-5.7997,-5.7997,-5.7997,-5.7997,-5.7997,-5.7997,-5.7997,-5.7997,-5.7997,-5.7797,-5.7522,-5.7191,-5.6938,-5.666,-5.6384,-5.583,-5.5385,-5.5385,-5.4926,-5.4512,-5.4512,-5.4512,-5.4512,-5.4512,-5.4512,-5.4512,-5.4512,-5.4512,-5.4512,-5.4512,-5.4512,-5.4512,-5.4512,-5.4115,-5.3391,-5.2257,-5.1407,-5.0666,-5.0028,-5.0011,-5.0011,-5.0011,-5.0011,-5.0011,-5.0011,-5.0011,-5.0011,-5.0011,-5.0011,-5.0011,-5.7997,0.0,0.0,0.0,0.0,0.0,0.0,0.0,0.0,0.0,0.0,0.0,0.0,0.0,0.0,0.0,0.0,0.0,0.0,0.0,0.0,0.0,0.0,0.0,0.0,0.0,0.0,-5.3185,-5.3185,-5.3185,-5.3185,-5.3185,-5.3185,-5.3185,-5.3185,-5.3185,-5.3185,-5.3185,-5.3185,-5.3185,-5.3185,-5.3518,-5.4069,-5.4069,-5.4399,-5.4932,-5.4932,-5.4932,-5.4932,-5.4932,-5.4932,-5.4932,-5.4932,-5.5427,-5.618,-5.64,-5.684,-5.7373,-5.7593,-5.7813,-5.7997,-5.7997,-5.7997,-5.7997,-5.7997,-5.7997,-5.7941,-5.7721,-5.7666,-5.7611,-5.7391,-5.7336,-5.7184,-5.6606,-5.6563,-5.6489,-5.5821,-5.5314,-5.4955,-5.4811,-5.4283,-5.3873,-5.3873,-5.4236,-5.4512,-5.4512,-5.4512,-5.4512,-5.4512,-5.4512,-5.4512,-5.4512,-5.4512,-5.4512,-5.4512,-5.3822,-5.2977,-5.1946,-5.0718,-5.0011,-5.0011,-5.0011,-5.0011,-5.0011,-5.0011,-5.0011,-5.0011,-5.0011,-5.0011,-5.0011,-5.0011,-5.0011,0.0,0.0,0.0,-5.7997,0.0,0.0,0.0,0.0,-5.7776,0.0,0.0,0.0,0.0,0.0,0.0,-5.4436,0.0,0.0,0.0,0.0,0.0,0.0,0.0,0.0,0.0,0.0,0.0,-5.3185,-5.3185,-5.3185,-5.3185,-5.3185,-5.3185,-5.3185,-5.3185,-5.3185,-5.3185,-5.3185,-5.3185,-5.3185,-5.3185,-5.3203,-5.3243,-5.3243,-5.324,-5.3277,-5.3277,-5.3277,-5.3277,-5.3277,-5.3277,-5.3277,-5.3277,-5.3775,-5.4564,-5.5335,-5.5669,-5.5776,-5.6565,-5.7354,-5.7997,-5.7997,-5.7997,-5.7997,-5.7997,-5.7997,-5.7831,-5.706,-5.684,-5.6657,-5.5868,-5.5688,-5.5536,-5.5002,-5.5272,-5.5341,-5.4302,-5.4,-5.3789,-5.3261,-5.2683,-5.2257,-5.2257,-5.3529,-5.4512,-5.4512,-5.4512,-5.4512,-5.4512,-5.4512,-5.4512,-5.4512,-5.4512,-5.4512,-5.4512,-5.3822,-5.2753,-5.1235,-5.0424,-5.0011,-5.0011,-5.0011,-5.0011,-5.0011,-5.0011,-5.0011,-5.0011,-5.0011,-5.0011,-5.0011,-5.0011,-5.0011,0.0,0.0,-5.7997,-5.7997,0.0,0.0,0.0,0.0,0.0,0.0,0.0,0.0,0.0,0.0,0.0,-5.4399,-5.372,0.0,0.0,0.0,0.0,0.0,0.0,0.0,0.0,0.0,0.0,-5.3185,-5.3185,-5.3185,-5.3185,-5.3185,-5.3185,-5.3185,-5.3185,-5.3185,-5.3185,-5.3185,-5.3185,-5.3185,-5.3185,-5.3185,-5.3185,-5.3185,-5.3185,-5.3185,-5.3185,-5.3185,-5.3185,-5.3185,-5.3185,-5.3185,-5.3185,-5.3369,-5.3702,-5.4509,-5.5133,-5.5629,-5.5904,-5.618,-5.64,-5.64,-5.64,-5.64,-5.64,-5.64,-5.6345,-5.6069,-5.5996,-5.5941,-5.5666,-5.5614,-5.5552,-5.5377,-5.5463,-5.5507,-5.5135,-5.4719,-5.4263,-5.3744,-5.3134,-5.2613,-5.2261,-5.2619,-5.2963,-5.2963,-5.2963,-5.2963,-5.2963,-5.2963,-5.2963,-5.2963,-5.2963,-5.2963,-5.2963,-5.2321,-5.1459,-5.0442,-5.0149,-5.0011,-5.0011,-5.0011,-5.0011,-5.0011,-5.0011,-5.0011,-5.0011,-5.0011,-5.0011,-5.0011,-5.0011,-5.0011,-5.7997,-5.7997,0.0,-5.7997,-5.7997,0.0,-5.7336,0.0,-5.6565,0.0,0.0,0.0,0.0,0.0,0.0,-5.3977,-5.3555,0.0,0.0,-5.3185,0.0,0.0,0.0,0.0,0.0,0.0,-5.3185,-5.3185,-5.3185,-5.3185,0.0,0.0,-5.3185,-5.3185,-5.3185,-5.3185,-5.3185,-5.3185,-5.3185,-5.3185,-5.3185,-5.3185,-5.3185,-5.3185,-5.3185,-5.3185,-5.3185,-5.3185,-5.3185,-5.3185,-5.3185,-5.3185,-5.3185,-5.3185,-5.3259,-5.3794,-5.4473,-5.517,-5.517,-5.5354,-5.5614,-5.5614,-5.5614,-5.5614,-5.5614,-5.5614,-5.5614,-5.5614,-5.5372,-5.517,-5.517,-5.495,-5.4686,-5.4513,-5.462,-5.4642,-5.425,-5.4023,-5.3725,-5.3184,-5.2768,-5.238,-5.2053,-5.1813,-5.1817,-5.2162,-5.2188,-5.2188,-5.2188,-5.2188,-5.2188,-5.2188,-5.2188,-5.2084,-5.1808,-5.136,-5.0804,-5.0062,-5.0011,-5.0011,-5.0011,-5.0011,-5.0131,-5.039,-5.0131,-5.0131,-5.039,-5.0131,-5.0011,-5.0011,-5.0011,-5.0011]},{"header":{"parameterUnit":"m.s-1","parameterCategory":1,"la1":30.6,"la2":29.2853,"lo1":-89.7004,"lo2":-87.6739,"dy":0.0162,"dx":0.0183,"nx":112,"ny":82,"refTime":"2023-06-09T06:00:00:Z","depth":0,"parameterNumber":3,"parameterNumberName":"V-component_of_WINDS"},"data":[0.0,0.0,0.0,0.0,0.0,0.0,0.0,0.0,0.0,0.0,0.0,0.0,0.0,0.0,0.0,0.0,0.0,0.0,0.0,0.0,0.0,0.0,0.0,0.0,0.0,0.0,0.0,0.0,0.0,0.0,0.0,0.0,0.0,0.0,0.0,0.0,0.0,0.0,0.0,0.0,0.0,0.0,0.0,0.0,0.0,0.0,0.0,0.0,0.0,0.0,0.0,0.0,0.0,0.0,0.0,0.0,0.0,0.0,0.0,0.0,0.0,0.0,0.0,0.0,0.0,0.0,0.0,0.0,0.0,0.0,0.0,0.0,0.0,0.0,0.0,0.0,0.0,0.0,0.0,0.0,0.0,0.0,0.0,0.0,0.0,0.0,0.0,0.0,0.0,0.0,-2.0183,-2.0183,-2.0183,-2.0183,-2.0183,-1.9989,-1.9835,-1.9835,0.0,0.0,0.0,0.0,0.0,0.0,0.0,0.0,0.0,0.0,0.0,0.0,0.0,0.0,0.0,0.0,0.0,0.0,0.0,0.0,0.0,0.0,0.0,0.0,0.0,0.0,0.0,0.0,0.0,0.0,0.0,0.0,0.0,0.0,0.0,0.0,0.0,0.0,0.0,0.0,0.0,0.0,0.0,0.0,0.0,0.0,0.0,0.0,0.0,0.0,0.0,0.0,0.0,0.0,0.0,0.0,0.0,0.0,0.0,0.0,0.0,0.0,0.0,0.0,0.0,0.0,0.0,0.0,0.0,0.0,0.0,0.0,0.0,0.0,0.0,0.0,0.0,0.0,0.0,0.0,0.0,0.0,0.0,0.0,0.0,0.0,0.0,0.0,0.0,0.0,0.0,0.0,0.0,0.0,0.0,0.0,0.0,0.0,0.0,0.0,0.0,0.0,0.0,0.0,-2.0183,-2.0183,-2.0183,-2.0183,-2.0183,-2.0139,-2.0164,-2.0164,0.0,0.0,0.0,0.0,0.0,0.0,0.0,0.0,0.0,0.0,0.0,0.0,0.0,0.0,0.0,0.0,0.0,0.0,0.0,0.0,0.0,0.0,0.0,0.0,0.0,0.0,0.0,0.0,0.0,0.0,0.0,0.0,0.0,0.0,0.0,0.0,0.0,0.0,0.0,0.0,0.0,0.0,0.0,0.0,0.0,0.0,0.0,0.0,0.0,0.0,0.0,0.0,0.0,0.0,0.0,0.0,0.0,0.0,0.0,0.0,0.0,0.0,0.0,0.0,0.0,0.0,0.0,0.0,0.0,0.0,0.0,0.0,0.0,0.0,0.0,0.0,0.0,0.0,0.0,0.0,0.0,0.0,0.0,0.0,0.0,0.0,0.0,0.0,0.0,0.0,0.0,0.0,0.0,0.0,0.0,0.0,0.0,0.0,0.0,0.0,0.0,0.0,0.0,-2.0764,-2.0764,-2.0764,-2.0764,-2.0764,-2.0764,-2.0603,-2.0446,-2.0446,-2.0055,0.0,0.0,0.0,0.0,0.0,0.0,0.0,0.0,0.0,0.0,0.0,0.0,0.0,0.0,0.0,0.0,0.0,0.0,0.0,0.0,0.0,0.0,0.0,0.0,0.0,0.0,0.0,0.0,0.0,0.0,0.0,0.0,0.0,0.0,0.0,0.0,0.0,0.0,0.0,0.0,0.0,0.0,0.0,0.0,0.0,0.0,0.0,0.0,0.0,0.0,0.0,0.0,0.0,0.0,0.0,0.0,0.0,0.0,0.0,0.0,0.0,0.0,0.0,0.0,0.0,0.0,0.0,0.0,0.0,0.0,0.0,0.0,0.0,0.0,0.0,0.0,0.0,0.0,0.0,0.0,0.0,0.0,0.0,0.0,0.0,0.0,0.0,0.0,0.0,0.0,0.0,0.0,0.0,0.0,0.0,0.0,0.0,0.0,0.0,0.0,0.0,0.0,-2.1211,-2.1211,-2.1211,-2.1211,-2.1211,-2.1211,-2.0984,-2.0837,-2.0837,-2.0475,0.0,0.0,0.0,0.0,0.0,0.0,0.0,0.0,0.0,0.0,0.0,0.0,0.0,0.0,0.0,0.0,0.0,0.0,0.0,0.0,0.0,0.0,0.0,0.0,0.0,0.0,0.0,0.0,0.0,0.0,0.0,0.0,0.0,0.0,0.0,0.0,0.0,0.0,0.0,0.0,0.0,0.0,0.0,0.0,0.0,0.0,0.0,0.0,0.0,0.0,0.0,0.0,0.0,0.0,0.0,0.0,0.0,0.0,0.0,0.0,0.0,0.0,0.0,0.0,0.0,0.0,0.0,0.0,0.0,0.0,0.0,0.0,0.0,0.0,0.0,0.0,0.0,0.0,0.0,0.0,0.0,0.0,0.0,0.0,0.0,0.0,0.0,0.0,0.0,0.0,0.0,0.0,0.0,0.0,0.0,0.0,0.0,0.0,0.0,0.0,0.0,0.0,-2.1211,-2.1211,-2.1211,-2.1211,-2.1211,-2.1211,-2.1189,-2.1174,-2.1174,-2.0867,0.0,0.0,0.0,0.0,0.0,0.0,0.0,0.0,0.0,0.0,0.0,0.0,0.0,0.0,0.0,0.0,0.0,0.0,0.0,0.0,0.0,0.0,0.0,0.0,0.0,0.0,0.0,0.0,0.0,0.0,0.0,0.0,0.0,0.0,0.0,0.0,0.0,0.0,0.0,0.0,0.0,0.0,0.0,0.0,0.0,0.0,0.0,0.0,0.0,0.0,0.0,0.0,0.0,0.0,0.0,0.0,0.0,0.0,0.0,0.0,0.0,0.0,0.0,0.0,0.0,0.0,0.0,0.0,0.0,0.0,0.0,0.0,0.0,0.0,0.0,0.0,0.0,0.0,0.0,0.0,0.0,0.0,0.0,0.0,0.0,0.0,0.0,0.0,0.0,0.0,0.0,0.0,0.0,0.0,0.0,0.0,0.0,0.0,0.0,0.0,0.0,0.0,-2.1211,-2.1211,0.0,-2.1211,-2.1211,-2.1211,-2.1211,-2.1211,-2.1211,0.0,0.0,0.0,0.0,0.0,0.0,0.0,0.0,0.0,0.0,0.0,0.0,0.0,0.0,0.0,0.0,0.0,0.0,0.0,0.0,0.0,0.0,0.0,0.0,0.0,0.0,0.0,0.0,0.0,0.0,0.0,0.0,0.0,0.0,0.0,0.0,0.0,0.0,0.0,0.0,0.0,0.0,0.0,0.0,0.0,0.0,0.0,0.0,0.0,0.0,0.0,0.0,0.0,0.0,0.0,0.0,0.0,0.0,0.0,0.0,0.0,0.0,0.0,0.0,0.0,0.0,0.0,0.0,0.0,0.0,0.0,0.0,0.0,0.0,0.0,0.0,0.0,0.0,0.0,0.0,0.0,0.0,0.0,0.0,0.0,0.0,0.0,0.0,0.0,0.0,0.0,0.0,0.0,0.0,0.0,0.0,0.0,0.0,0.0,0.0,0.0,0.0,-2.1268,-2.1211,-2.1211,0.0,-2.1211,-2.1211,-2.1211,-2.1211,-2.1211,-2.1211,0.0,0.0,0.0,0.0,0.0,0.0,0.0,0.0,0.0,0.0,0.0,0.0,0.0,0.0,0.0,0.0,0.0,0.0,0.0,0.0,0.0,0.0,0.0,0.0,0.0,0.0,0.0,0.0,0.0,0.0,0.0,0.0,0.0,0.0,0.0,0.0,0.0,0.0,0.0,0.0,0.0,0.0,0.0,0.0,0.0,0.0,0.0,0.0,0.0,0.0,0.0,0.0,0.0,0.0,0.0,0.0,0.0,0.0,0.0,0.0,0.0,0.0,0.0,0.0,0.0,0.0,0.0,0.0,0.0,0.0,0.0,0.0,0.0,0.0,0.0,0.0,0.0,0.0,0.0,0.0,0.0,0.0,0.0,0.0,0.0,0.0,0.0,0.0,0.0,0.0,0.0,0.0,0.0,0.0,0.0,0.0,0.0,0.0,0.0,0.0,0.0,0.0,-2.139,-2.1218,-2.1218,-2.1275,-2.1218,-2.1218,-2.1211,-2.1218,-2.1211,0.0,0.0,0.0,0.0,0.0,0.0,0.0,0.0,0.0,0.0,0.0,0.0,0.0,0.0,0.0,0.0,0.0,0.0,0.0,0.0,0.0,0.0,0.0,0.0,0.0,0.0,0.0,0.0,0.0,0.0,0.0,0.0,0.0,0.0,0.0,0.0,0.0,0.0,0.0,0.0,0.0,0.0,0.0,0.0,0.0,0.0,0.0,0.0,0.0,0.0,0.0,0.0,0.0,0.0,0.0,0.0,0.0,0.0,0.0,0.0,0.0,0.0,0.0,0.0,0.0,0.0,0.0,0.0,0.0,0.0,0.0,0.0,0.0,0.0,0.0,0.0,0.0,0.0,0.0,0.0,0.0,0.0,0.0,0.0,0.0,0.0,0.0,0.0,0.0,0.0,0.0,0.0,0.0,0.0,0.0,0.0,0.0,0.0,0.0,0.0,0.0,0.0,0.0,-2.4515,-2.3829,-2.3597,-2.4466,-2.3771,-2.3154,-2.2912,-2.2055,-2.1452,-2.1225,0.0,0.0,0.0,0.0,0.0,0.0,0.0,0.0,0.0,0.0,0.0,0.0,0.0,0.0,0.0,0.0,0.0,0.0,0.0,0.0,0.0,0.0,0.0,0.0,0.0,0.0,0.0,0.0,0.0,0.0,0.0,0.0,0.0,0.0,0.0,0.0,0.0,0.0,0.0,0.0,0.0,0.0,0.0,0.0,0.0,0.0,0.0,0.0,0.0,0.0,0.0,0.0,0.0,0.0,0.0,0.0,0.0,0.0,0.0,0.0,0.0,0.0,0.0,0.0,0.0,0.0,0.0,0.0,0.0,0.0,0.0,0.0,0.0,0.0,0.0,0.0,0.0,0.0,0.0,0.0,0.0,0.0,0.0,0.0,0.0,0.0,0.0,0.0,0.0,0.0,0.0,0.0,0.0,0.0,0.0,0.0,0.0,0.0,0.0,0.0,0.0,0.0,-2.5941,-2.5352,-2.4944,-2.5236,-2.4535,-2.4045,-2.3829,-2.2627,-2.1979,-2.215,0.0,0.0,0.0,0.0,0.0,0.0,0.0,0.0,0.0,0.0,0.0,0.0,0.0,0.0,0.0,0.0,0.0,0.0,0.0,0.0,0.0,0.0,0.0,0.0,0.0,0.0,0.0,0.0,0.0,0.0,0.0,0.0,0.0,0.0,0.0,0.0,0.0,0.0,0.0,0.0,0.0,0.0,0.0,0.0,0.0,0.0,0.0,0.0,0.0,0.0,0.0,0.0,0.0,0.0,0.0,0.0,0.0,0.0,0.0,0.0,0.0,0.0,0.0,0.0,0.0,0.0,0.0,0.0,0.0,0.0,0.0,0.0,0.0,0.0,0.0,0.0,0.0,0.0,0.0,0.0,0.0,0.0,0.0,0.0,0.0,0.0,0.0,0.0,0.0,0.0,0.0,0.0,0.0,0.0,0.0,0.0,0.0,0.0,0.0,0.0,0.0,0.0,-2.6565,-2.6334,-2.5861,-2.4809,-2.4633,-2.4507,-2.4475,-2.3206,-2.2831,-2.3785,0.0,0.0,0.0,0.0,0.0,0.0,0.0,0.0,0.0,0.0,0.0,0.0,0.0,0.0,0.0,0.0,0.0,0.0,0.0,0.0,0.0,0.0,0.0,0.0,0.0,0.0,0.0,0.0,0.0,0.0,0.0,0.0,0.0,0.0,0.0,0.0,0.0,0.0,0.0,0.0,0.0,0.0,0.0,0.0,0.0,0.0,0.0,0.0,0.0,0.0,0.0,0.0,0.0,0.0,0.0,0.0,0.0,0.0,0.0,0.0,-2.482,0.0,0.0,0.0,0.0,0.0,0.0,0.0,0.0,0.0,0.0,0.0,0.0,0.0,0.0,0.0,0.0,0.0,0.0,0.0,0.0,0.0,0.0,0.0,0.0,0.0,0.0,0.0,0.0,0.0,0.0,0.0,0.0,0.0,0.0,0.0,0.0,0.0,0.0,0.0,0.0,0.0,-2.9773,-2.8917,-2.8555,-2.9346,-2.8496,-2.7762,-2.7508,-2.5374,-2.4463,-2.5433,-2.3348,0.0,0.0,0.0,0.0,0.0,0.0,0.0,0.0,0.0,0.0,0.0,0.0,0.0,0.0,0.0,0.0,0.0,0.0,0.0,0.0,0.0,0.0,0.0,0.0,0.0,0.0,0.0,0.0,0.0,0.0,0.0,0.0,0.0,0.0,0.0,0.0,0.0,0.0,0.0,0.0,0.0,0.0,0.0,0.0,0.0,0.0,0.0,0.0,0.0,0.0,0.0,0.0,0.0,0.0,0.0,0.0,0.0,0.0,0.0,0.0,-2.6624,0.0,0.0,0.0,0.0,0.0,0.0,0.0,0.0,0.0,0.0,0.0,0.0,0.0,0.0,0.0,0.0,0.0,0.0,0.0,0.0,0.0,0.0,0.0,0.0,0.0,0.0,0.0,0.0,0.0,0.0,0.0,0.0,0.0,0.0,0.0,0.0,0.0,0.0,0.0,0.0,-3.083,-3.0274,-2.9903,-2.9903,-2.9353,-2.8838,-2.8676,-2.6884,-2.6194,-2.7164,-2.5335,0.0,0.0,0.0,0.0,0.0,0.0,0.0,0.0,0.0,0.0,0.0,0.0,0.0,0.0,0.0,0.0,0.0,0.0,0.0,0.0,0.0,0.0,0.0,0.0,0.0,0.0,0.0,0.0,0.0,0.0,0.0,0.0,0.0,0.0,0.0,0.0,0.0,0.0,0.0,0.0,0.0,0.0,0.0,0.0,0.0,0.0,0.0,0.0,0.0,0.0,0.0,0.0,0.0,-2.8243,-2.8682,-2.6679,-2.919,-2.9725,-2.8795,-2.9054,-2.901,-2.8637,-2.8887,0.0,0.0,0.0,0.0,0.0,0.0,0.0,0.0,0.0,0.0,0.0,0.0,0.0,0.0,0.0,0.0,0.0,0.0,0.0,0.0,0.0,0.0,0.0,0.0,-2.8146,-2.8316,-2.6216,0.0,0.0,0.0,0.0,0.0,0.0,0.0,0.0,0.0,0.0,0.0,-3.0889,-3.0889,-3.046,-2.9353,-2.9226,-2.9226,-2.9226,-2.8095,-2.7783,-2.8879,-2.7438,-2.6606,0.0,0.0,0.0,0.0,0.0,0.0,0.0,0.0,0.0,0.0,0.0,0.0,0.0,0.0,0.0,0.0,0.0,0.0,0.0,0.0,0.0,0.0,0.0,0.0,0.0,0.0,0.0,0.0,0.0,0.0,0.0,0.0,-2.2535,-2.3728,0.0,0.0,0.0,0.0,0.0,0.0,0.0,0.0,0.0,0.0,0.0,0.0,0.0,-2.7818,-2.768,-2.7869,-2.7895,-2.7756,-2.8314,-2.8386,-2.808,-2.9987,-3.0707,-3.0662,-3.2125,0.0,-3.0059,-3.1214,0.0,0.0,0.0,0.0,0.0,0.0,0.0,0.0,0.0,0.0,0.0,0.0,0.0,0.0,0.0,0.0,0.0,0.0,0.0,0.0,0.0,0.0,-2.7254,-2.8385,-2.8801,-2.8801,0.0,-2.8376,-2.8801,-3.0098,-2.9303,0.0,0.0,0.0,0.0,0.0,0.0,0.0,-3.0889,-3.0889,-3.083,-3.0645,-3.0645,-3.0645,-3.0645,-2.9422,-2.9207,-3.0509,-2.8271,-2.7778,-2.9546,-2.8667,0.0,0.0,0.0,0.0,0.0,0.0,0.0,0.0,0.0,0.0,0.0,0.0,0.0,0.0,0.0,0.0,0.0,0.0,0.0,0.0,0.0,0.0,0.0,0.0,0.0,0.0,0.0,0.0,0.0,-2.2337,-2.2673,-2.3445,-2.3841,-2.4475,0.0,0.0,0.0,0.0,0.0,0.0,0.0,0.0,0.0,-2.8011,-2.8915,-2.9109,-2.8578,-2.9393,-2.9436,-2.8824,-3.0429,-3.0746,-3.0039,-3.1626,-3.2298,-3.2371,-3.3078,-3.2879,-3.2022,-3.2613,-3.2871,-3.2871,0.0,0.0,0.0,0.0,-3.2725,-3.2519,-3.2519,-3.2363,-3.2229,-3.2229,0.0,0.0,0.0,0.0,0.0,0.0,0.0,0.0,0.0,0.0,-3.0051,-3.0604,-3.0724,-3.0724,-3.0724,-3.0724,-3.0581,0.0,-2.9285,-2.9353,-3.0645,0.0,0.0,0.0,0.0,-3.0889,-3.0889,-3.0889,-3.0889,-3.0889,-3.0889,-3.0889,-3.0889,-3.0333,-3.0274,-3.083,-2.9853,-2.9592,-3.0538,-2.9805,-2.9441,0.0,0.0,0.0,0.0,0.0,0.0,0.0,0.0,0.0,0.0,0.0,0.0,0.0,0.0,0.0,0.0,0.0,0.0,0.0,0.0,0.0,0.0,0.0,0.0,0.0,0.0,0.0,0.0,-2.3178,-2.3558,-2.4471,-2.5186,-2.5859,0.0,0.0,0.0,0.0,0.0,0.0,-2.8263,-2.9934,-3.0411,-2.9476,-3.044,-3.0705,-2.9992,-3.1018,-3.1102,-3.029,-3.2374,-3.2829,-3.1845,-3.2892,-3.3418,-3.3418,-3.3418,-3.3418,-3.3418,-3.3418,-3.3418,-3.3418,-3.3418,-3.3418,-3.3418,-3.3418,-3.3223,-3.2949,-3.2949,-3.2754,-3.249,-3.249,-3.249,-3.249,-3.249,0.0,0.0,0.0,0.0,-3.2305,-3.2258,-3.2229,-3.2229,-3.2229,-3.2229,-3.2229,-3.2229,-3.2229,-3.1721,0.0,-2.972,-2.9999,-3.0888,0.0,0.0,0.0,0.0,-3.0889,-3.0889,-3.0889,-3.0889,-3.0889,-3.0889,-3.0889,-3.0889,-3.0889,-3.0889,-3.0889,-3.0889,-3.0889,-3.0889,-3.0557,-3.0322,-3.0195,0.0,0.0,0.0,0.0,0.0,0.0,0.0,0.0,0.0,0.0,0.0,0.0,0.0,0.0,0.0,0.0,0.0,0.0,0.0,0.0,0.0,0.0,0.0,0.0,0.0,0.0,0.0,0.0,0.0,-2.8316,-2.7607,0.0,0.0,0.0,0.0,-2.9498,-3.1009,-3.143,-3.0146,-3.1689,-3.264,-3.2568,-3.3019,-3.3233,-3.3189,-3.3262,-3.3272,-3.3155,-3.3355,-3.3355,-3.3292,-3.3355,-3.3418,-3.3418,-3.3418,-3.3418,-3.3418,-3.3418,-3.3418,-3.3418,-3.3418,-3.3418,-3.3418,-3.3418,-3.3408,-3.3389,-3.3389,-3.3379,-3.3359,-3.3359,-3.3359,-3.3359,-3.3359,-3.3359,0.0,0.0,-3.2764,-3.2666,-3.2275,-3.2229,-3.2229,-3.2229,-3.2229,-3.2229,-3.2229,-3.2229,-3.2158,0.0,-3.2039,-3.1902,-3.1562,0.0,-3.1348,-3.0957,-3.0889,-3.0889,-3.0889,-3.0889,-3.0889,-3.0889,-3.0889,-3.0889,-3.0889,-3.0889,-3.0889,-3.0889,-3.0889,-3.0889,-3.0889,-3.0869,-3.0644,-3.0205,-3.0156,0.0,0.0,0.0,0.0,0.0,0.0,0.0,0.0,0.0,0.0,0.0,0.0,0.0,0.0,0.0,0.0,0.0,0.0,0.0,0.0,0.0,0.0,0.0,0.0,0.0,0.0,0.0,0.0,-2.7555,-2.8248,0.0,-2.9993,-3.0809,-3.1239,-3.1239,-3.207,-3.2374,-3.1922,-3.271,-3.3203,-3.3203,-3.334,-3.3418,-3.3418,-3.3418,-3.3418,-3.3418,-3.3418,-3.3418,-3.3418,-3.3418,-3.3418,-3.3418,-3.3418,-3.3418,-3.3418,-3.3418,-3.3418,-3.3418,-3.3418,-3.3418,-3.3418,-3.3418,-3.3418,-3.3418,-3.3418,-3.3418,-3.3418,-3.3418,-3.3418,-3.3418,-3.3418,-3.3418,-3.3389,-3.3242,-3.3203,-3.3164,-3.3008,-3.2978,-3.2978,-3.2978,-3.2978,-3.2978,-3.2978,-3.2978,-3.2978,-3.2978,-3.2539,-3.2119,-3.1963,-3.1934,-3.1885,-3.1738,-3.1719,-3.1719,-3.1719,-3.1465,-3.1299,-3.1299,-3.1055,-3.0889,-3.0889,-3.0889,-3.0889,-3.0889,-3.0889,-3.0889,-3.0889,-3.0889,-3.081,-3.0644,-3.0342,-3.0049,0.0,0.0,0.0,0.0,0.0,0.0,0.0,0.0,0.0,0.0,0.0,0.0,0.0,0.0,0.0,0.0,0.0,0.0,0.0,0.0,0.0,0.0,0.0,0.0,0.0,0.0,-2.805,-2.848,-2.9679,-3.0484,-3.0484,-3.1613,-3.2383,-3.2383,-3.2764,-3.3008,-3.3008,-3.3271,-3.3418,-3.3418,-3.3418,-3.3418,-3.3418,-3.3418,-3.3418,-3.3418,-3.3418,-3.3418,-3.3418,-3.3418,-3.3418,-3.3418,-3.3418,-3.3418,-3.3418,-3.3418,-3.3418,-3.3418,-3.3418,-3.3418,-3.3418,-3.3418,-3.3418,-3.3418,-3.3418,-3.3418,-3.3418,-3.3418,-3.3418,-3.3418,-3.3418,-3.3418,-3.3418,-3.3418,-3.3418,-3.3418,-3.3418,-3.3418,-3.3418,-3.3418,-3.3418,-3.3418,-3.3418,-3.3418,-3.3418,-3.3418,-3.2969,-3.2549,-3.2402,-3.2383,-3.2334,-3.2187,-3.2229,-3.2229,-3.2229,-3.1914,-3.1738,-3.1738,-3.1357,-3.1103,-3.1103,-3.0976,-3.0889,-3.0889,-3.0889,-3.0889,-3.0889,-3.0889,-3.0889,-3.0889,-3.043,-3.0195,-3.0195,0.0,0.0,0.0,0.0,0.0,0.0,0.0,0.0,0.0,0.0,0.0,0.0,0.0,0.0,0.0,0.0,0.0,0.0,0.0,0.0,0.0,0.0,0.0,-2.8998,-2.9338,-3.0088,-3.1354,-3.1924,-3.2248,-3.2248,-3.2568,-3.2812,-3.2812,-3.3193,-3.3418,-3.3418,-3.3418,-3.3418,-3.3418,-3.3418,-3.3418,-3.3418,-3.3418,-3.3418,-3.3418,-3.3418,-3.3418,-3.3418,-3.3418,-3.3418,-3.3418,-3.3418,-3.3418,-3.3418,-3.3418,-3.3418,-3.3418,-3.3418,-3.3418,-3.3418,-3.3418,-3.3418,-3.3418,-3.3418,-3.3418,-3.3418,-3.3418,-3.3418,-3.3418,-3.3418,-3.3418,-3.3418,-3.3418,-3.3418,-3.3418,-3.3418,-3.3418,-3.3418,-3.3418,-3.3418,-3.3418,-3.3418,-3.3418,-3.3418,-3.3418,-3.3418,-3.3291,-3.2891,-3.2812,-3.2676,-3.2275,-3.2268,0.0,-3.2268,-3.2258,-3.2248,-3.2248,-3.1797,-3.1533,-3.1514,-3.1143,-3.0898,-3.0889,-3.0889,-3.0889,-3.0889,-3.0889,-3.0889,-3.0889,-3.0449,-3.0215,-3.0215,0.0,0.0,0.0,0.0,0.0,0.0,0.0,0.0,0.0,0.0,0.0,0.0,0.0,0.0,0.0,0.0,0.0,0.0,0.0,0.0,0.0,0.0,-3.0784,-3.0784,-3.088,-3.1252,-3.1953,-3.2363,-3.2627,-3.2627,-3.2998,-3.3252,-3.3252,-3.3359,-3.3418,-3.3418,-3.3418,-3.3418,-3.3418,-3.3418,-3.3418,-3.3418,-3.3418,-3.3418,-3.3418,-3.3418,-3.3418,-3.3418,-3.3418,-3.3418,-3.3418,-3.3418,-3.3418,-3.3418,-3.3418,-3.3418,-3.3418,-3.3418,-3.3418,-3.3418,-3.3418,-3.3418,-3.3418,-3.3418,-3.3418,-3.3418,-3.3418,-3.3418,-3.3418,-3.3418,-3.3418,-3.3418,-3.3418,-3.3418,-3.3418,-3.3418,-3.3418,-3.3418,-3.3418,-3.3418,-3.3418,-3.3418,-3.3418,-3.3418,-3.3418,-3.3418,-3.3389,-3.3271,-3.3252,-3.3213,-3.3096,-3.3076,0.0,-3.3076,-3.2812,-3.2627,-3.2627,-3.2246,-3.1865,-3.1543,-3.1406,-3.1211,-3.0908,-3.0889,-3.0889,-3.0889,-3.0889,-3.0889,-3.0889,-3.0762,-3.0703,0.0,0.0,0.0,0.0,0.0,0.0,0.0,0.0,0.0,0.0,0.0,0.0,0.0,0.0,0.0,0.0,0.0,0.0,0.0,0.0,0.0,0.0,-3.1787,-3.1855,-3.2031,-3.2051,-3.2148,-3.2402,-3.2803,-3.3057,-3.3057,-3.3281,-3.3418,-3.3418,-3.3418,-3.3418,-3.3418,-3.3418,-3.3418,-3.3418,-3.3418,-3.3418,-3.3418,-3.3418,-3.3418,-3.3418,-3.3418,-3.3418,-3.3418,-3.3418,-3.3418,-3.3418,-3.3418,-3.3418,-3.3418,-3.3418,-3.3418,0.0,0.0,0.0,0.0,0.0,-3.3418,-3.3418,-3.3418,-3.3418,-3.3418,-3.3418,-3.3418,-3.3418,-3.3418,-3.3418,-3.3418,-3.3418,-3.3418,-3.3418,-3.3418,-3.3418,-3.3418,-3.3418,-3.3418,-3.3418,-3.3418,-3.3418,-3.3418,-3.3418,-3.3418,0.0,-3.3418,-3.3418,-3.3418,-3.3418,-3.3418,-3.3418,-3.3418,-3.3213,-3.3057,-3.3057,-3.2685,-3.2334,-3.208,-3.1728,0.0,0.0,0.0,-3.0889,-3.0889,-3.0889,0.0,0.0,0.0,-3.0889,-3.0889,0.0,0.0,0.0,-2.8975,-2.8662,0.0,0.0,0.0,0.0,0.0,0.0,0.0,0.0,0.0,0.0,0.0,0.0,0.0,0.0,0.0,0.0,-3.2297,-3.2383,-3.2803,-3.2861,-3.2861,-3.2861,-3.3193,-3.3418,-3.3418,-3.3418,-3.3418,-3.3418,-3.3418,-3.3418,-3.3418,0.0,0.0,0.0,0.0,-3.3418,-3.3418,-3.3418,-3.3418,-3.3418,-3.3418,-3.3418,-3.3418,-3.3418,-3.3418,-3.3418,-3.3418,-3.3418,-3.3418,-3.3418,-3.3418,-3.3418,-3.3418,-3.3418,-3.3418,-3.3418,-3.3418,-3.3418,-3.3418,0.0,0.0,-3.3418,-3.3418,-3.3418,-3.3418,-3.3418,-3.3418,-3.3418,-3.3418,-3.3418,-3.3418,-3.3418,-3.3418,-3.3418,-3.3418,-3.3418,-3.3418,-3.3418,-3.3418,-3.3418,-3.3418,-3.3418,-3.3418,-3.3418,-3.3418,-3.3418,-3.3418,-3.3418,-3.3418,-3.3418,-3.3418,-3.3418,0.0,0.0,-3.2803,-3.2051,-3.1572,-3.1523,-3.1123,-3.0889,-3.0889,-3.0889,-3.0889,-3.0889,-3.0889,-3.0889,-3.0889,-3.0889,-3.0674,-3.0254,-2.9443,-2.9033,0.0,0.0,0.0,0.0,0.0,0.0,0.0,0.0,0.0,0.0,0.0,0.0,0.0,0.0,0.0,-3.2617,-3.2676,-3.2822,-3.3242,-3.3301,-3.3301,-3.3301,-3.3369,-3.3418,-3.3418,-3.3418,-3.3418,-3.3418,-3.3418,-3.3418,-3.3418,-3.3418,-3.3418,-3.3418,-3.3418,-3.3418,-3.3418,-3.3418,-3.3418,-3.3418,0.0,0.0,-3.3418,-3.3418,-3.3418,-3.3418,-3.3418,-3.3418,-3.3418,-3.3418,-3.3418,-3.3418,-3.3418,-3.3418,-3.3418,-3.3418,-3.3418,-3.3418,-3.3418,-3.3418,-3.3418,-3.3418,-3.3418,-3.3418,-3.3418,-3.3418,0.0,-3.3418,-3.3418,-3.3418,-3.3418,-3.3418,-3.3418,-3.3418,-3.3418,-3.3418,-3.3418,-3.3418,-3.3418,-3.3418,-3.3418,-3.3418,-3.3418,-3.3418,-3.3418,-3.3418,-3.3418,-3.3418,-3.3418,-3.3418,-3.3418,-3.3418,-3.335,-3.3164,-3.2822,-3.2334,-3.1894,-3.1543,-3.1123,-3.0889,-3.0889,-3.0889,-3.0889,-3.0889,-3.0889,-3.0889,-3.0889,-3.0889,-3.084,-3.0742,-3.0205,-2.9766,0.0,0.0,0.0,0.0,0.0,0.0,0.0,0.0,0.0,0.0,0.0,-3.0754,0.0,0.0,-3.2861,-3.3076,-3.3105,-3.3184,-3.3389,-3.3418,-3.3418,-3.3418,-3.3418,-3.3418,-3.3418,-3.3418,-3.3418,-3.3418,-3.3418,-3.3418,-3.3418,-3.3418,-3.3418,-3.3418,-3.3418,-3.3418,-3.3418,-3.3643,-3.375,-3.375,-3.3955,-3.4062,-3.4062,-3.4062,-3.4062,-3.4053,-3.3838,-3.375,-3.373,-3.3516,-3.3418,-3.3418,-3.3418,-3.3418,-3.3418,-3.3418,-3.3418,-3.3418,-3.3418,-3.3418,-3.3418,-3.3418,-3.3418,-3.3418,-3.3418,-3.3418,-3.3418,-3.3418,-3.3418,-3.3418,-3.3418,-3.3418,-3.3418,-3.3418,-3.3418,-3.3418,-3.3418,-3.3418,-3.3418,-3.3418,-3.3418,-3.3418,-3.3418,-3.3418,-3.3418,-3.3418,-3.3418,-3.3418,-3.3418,-3.3418,-3.3418,-3.3418,-3.3418,-3.334,-3.3125,-3.2529,-3.1982,-3.1543,-3.1123,-3.0889,-3.0889,-3.0889,-3.0889,-3.0889,-3.0889,-3.0889,-3.0889,-3.0889,-3.0889,-3.0889,-3.0654,-3.0312,0.0,0.0,0.0,0.0,0.0,0.0,0.0,0.0,-2.8102,-3.2004,-3.1956,-3.1684,-3.3151,-3.3418,-3.3418,-3.3418,-3.3418,-3.3418,-3.3418,-3.3418,-3.3418,-3.3418,-3.3418,-3.3418,-3.3418,-3.3418,-3.3418,-3.3418,-3.3418,-3.3418,-3.3418,-3.3418,-3.3457,-3.3545,-3.3545,-3.3584,-3.3672,-3.4023,-3.4189,-3.4199,-3.4541,-3.4697,-3.4697,-3.4697,-3.4697,-3.4678,-3.4346,-3.4189,-3.416,-3.373,-3.3545,-3.3545,-3.3457,-3.3418,-3.3418,-3.3418,-3.3418,-3.3418,-3.3418,-3.3418,-3.3418,-3.3418,-3.3418,-3.3418,-3.3418,-3.3418,-3.3418,-3.3418,-3.3418,-3.3418,-3.3418,-3.3418,-3.3418,-3.3418,-3.3418,-3.3418,-3.3418,-3.3418,-3.3418,-3.3418,-3.3418,-3.3418,-3.3418,-3.3418,-3.3418,-3.3418,-3.3418,-3.3418,-3.3418,-3.3418,-3.3418,-3.3418,-3.3418,-3.3389,-3.331,-3.2607,-3.1982,-3.1543,-3.1123,-3.0889,-3.0889,-3.0889,-3.0889,-3.0889,-3.0889,-3.0889,-3.0889,-3.0889,-3.0889,-3.0889,-3.0889,-3.0693,-2.3106,-2.3106,-2.3429,-2.4937,-2.54,-2.6143,0.0,0.0,-3.0303,-3.2386,-3.2669,-3.2733,-3.3277,-3.3418,-3.3418,-3.3418,-3.3418,-3.3418,-3.3418,-3.3418,-3.3418,-3.3418,-3.3418,-3.3418,-3.3418,-3.3418,-3.3418,-3.3418,-3.3418,-3.3418,-3.3418,-3.3418,-3.3603,-3.3994,-3.4004,-3.418,-3.4551,-3.4609,-3.4629,-3.4629,-3.4678,-3.4697,-3.4697,-3.4697,-3.4697,-3.4697,-3.4648,-3.4629,-3.46,-3.417,-3.4004,-3.3965,-3.3574,-3.3418,-3.3418,-3.3418,-3.3418,-3.3418,-3.3418,-3.3418,-3.3418,-3.3418,-3.3418,-3.3418,-3.3418,-3.3418,-3.3418,-3.3418,-3.3418,-3.3418,-3.3418,-3.3418,-3.3418,-3.3418,-3.3418,-3.3418,-3.3418,-3.3418,-3.3418,-3.3418,-3.3418,-3.3418,-3.3418,-3.3418,-3.3418,-3.3418,-3.3418,-3.3418,-3.3418,-3.3418,-3.3418,-3.3418,-3.3418,-3.3271,-3.29,-3.2441,-3.1982,-3.1543,-3.1123,-3.0889,-3.0889,-3.0889,-3.0889,-3.0889,-3.0889,-3.0889,-3.0889,-3.0889,-3.0889,-3.0889,-3.0889,-3.0859,-2.3106,-2.3106,0.0,0.0,-2.5325,-2.5802,-2.9699,-3.0067,-3.0302,-3.2667,-3.3164,-3.3213,-3.3389,-3.3418,-3.3418,0.0,-3.3418,-3.3418,-3.3418,-3.3418,-3.3418,-3.3418,-3.3418,-3.3418,-3.3418,-3.3418,-3.3418,-3.3418,-3.3418,-3.3535,-3.3789,-3.3799,-3.4121,-3.4814,-3.4844,-3.5039,-3.5459,-3.5723,-3.585,-3.585,-3.585,-3.585,-3.584,-3.5586,-3.5332,-3.5107,-3.5107,-3.4951,-3.4687,-3.4512,-3.4434,-3.4394,-3.3965,-3.3799,-3.3769,-3.3516,-3.3418,-3.3418,-3.3418,-3.3418,-3.3418,-3.3418,-3.3418,-3.3418,-3.3418,-3.3418,-3.3418,-3.3418,-3.3418,-3.3418,-3.3418,-3.3418,-3.3418,-3.3418,-3.3418,-3.3418,-3.3418,-3.3418,-3.3418,-3.3418,-3.3418,-3.3418,-3.3418,-3.3418,-3.3418,-3.3418,-3.3418,-3.3418,-3.3418,-3.3418,-3.3418,-3.3418,-3.3418,-3.335,-3.3174,-3.2549,-3.209,-3.1904,-3.1269,-3.0889,-3.0889,-3.0889,-3.0889,-3.0889,-3.0889,-3.0889,-3.0889,-3.0889,-3.0889,-3.0889,-3.0889,-3.0889,-2.3676,0.0,0.0,-2.5666,-2.5492,-2.5807,-2.9731,-3.021,-3.0484,-3.2902,-3.3418,-3.3418,-3.3418,-3.3418,-3.3418,-3.3418,-3.3418,-3.3418,-3.3418,-3.3418,-3.3418,-3.3418,-3.3418,-3.3418,-3.3418,-3.3418,-3.3418,-3.3418,-3.3535,-3.374,-3.4053,-3.4307,-3.4785,-3.5537,-3.5684,-3.5947,-3.6367,-3.6689,-3.6846,-3.6846,-3.6728,-3.667,-3.665,-3.6221,-3.585,-3.5566,-3.5566,-3.5371,-3.5059,-3.4941,-3.4892,-3.4853,-3.4414,-3.4248,-3.4189,-3.376,-3.3525,-3.3418,-3.3418,-3.3418,-3.3418,-3.3418,-3.3418,-3.3418,-3.3418,-3.3418,-3.3418,-3.3418,-3.3418,-3.3418,-3.3418,-3.3418,-3.3418,-3.3418,-3.3418,-3.3418,-3.3418,-3.3418,-3.3418,-3.3418,-3.3418,-3.3418,-3.3418,-3.3418,-3.3418,-3.3418,-3.3418,-3.3418,-3.3418,-3.3418,-3.3418,-3.3418,-3.3418,-3.3418,-3.3418,-3.2656,-3.2229,-3.2229,-3.1367,-3.0889,-3.0889,-3.0889,-3.0889,-3.0889,-3.0889,-3.0889,-3.0889,-3.0889,-3.0889,-3.0889,-3.0889,-3.0889,0.0,0.0,-2.4374,-2.5664,-2.6302,-2.7011,-2.8515,-3.0079,-3.1643,-3.3092,-3.3418,-3.3418,-3.3418,-3.3418,-3.3418,-3.3418,-3.3418,-3.3418,-3.3418,-3.3418,-3.3418,-3.3418,-3.3418,-3.3418,0.0,-3.3418,-3.3418,-3.3418,-3.3809,-3.4062,-3.4072,-3.4883,-3.5557,-3.5986,-3.6406,-3.6836,-3.7256,-3.7275,-3.7275,-3.7275,-3.6865,-3.667,-3.665,-3.6221,-3.6016,-3.6006,-3.6006,-3.5986,-3.5947,-3.5537,-3.5371,-3.5322,-3.4863,-3.4678,-3.4629,-3.4209,-3.3779,-3.3418,-3.3418,-3.3418,-3.3418,-3.3418,-3.3418,-3.3418,-3.3418,-3.3418,-3.3418,-3.3418,-3.3418,-3.3418,-3.3418,-3.3418,-3.3418,-3.3418,-3.3418,-3.3418,-3.3418,-3.3418,-3.3418,-3.3418,-3.3418,-3.3418,-3.3418,-3.3418,-3.3418,-3.3418,-3.3418,-3.3418,-3.3418,-3.3418,-3.3418,-3.3418,-3.3418,-3.3418,-3.3418,-3.2656,-3.2229,-3.2229,-3.1367,-3.0889,-3.0889,-3.0889,-3.0889,-3.0889,-3.0889,-3.0889,-3.0889,-3.0889,-3.0889,-3.0889,-3.0889,-3.0889,0.0,0.0,-2.4129,-2.5737,-2.6439,-2.7344,-2.9904,-3.0901,-3.1707,-3.3092,-3.3418,-3.3418,-3.3418,-3.3418,-3.3418,-3.3418,-3.3418,-3.3418,-3.3418,-3.3418,-3.3418,-3.3418,-3.3418,0.0,0.0,0.0,0.0,-3.3828,-3.3994,-3.4453,-3.5322,-3.5644,-3.626,-3.7256,-3.7422,-3.7705,-3.8144,-3.8144,-3.8144,-3.8135,-3.7432,-3.6787,-3.623,-3.6084,-3.6016,-3.6016,-3.6016,-3.6016,-3.6006,-3.5869,-3.581,-3.5762,-3.5332,-3.5156,-3.5107,-3.4658,-3.4394,-3.4189,-3.3623,-3.3418,-3.3418,-3.3418,-3.3418,-3.3418,-3.3418,-3.3418,-3.3418,-3.3418,-3.3418,-3.3418,-3.3418,-3.3418,-3.3418,-3.3418,-3.3418,-3.3418,-3.3418,-3.3418,-3.3418,-3.3418,-3.3418,-3.3418,-3.3418,-3.3418,-3.3418,-3.3418,-3.3418,-3.3418,-3.3418,-3.3418,-3.3418,-3.3418,-3.3418,-3.3418,-3.3418,-3.2656,-3.2229,-3.2229,-3.1367,-3.0889,-3.0889,-3.0889,-3.0889,-3.0889,-3.0889,-3.0889,-3.0889,-3.0889,-3.0889,-3.0889,-3.0889,-3.0889,0.0,-2.3978,-2.4436,-2.6552,-2.6557,-2.6875,-2.9895,-3.054,-3.0936,-3.2365,-3.3029,-3.3418,-3.3418,-3.3418,-3.3418,-3.3418,-3.3418,-3.3418,-3.3418,-3.3418,-3.3418,-3.3418,-3.3418,0.0,0.0,0.0,0.0,-3.4053,-3.4365,-3.498,-3.5967,-3.6309,-3.6924,-3.7891,-3.8076,-3.8291,-3.8574,-3.8574,-3.8418,-3.8115,-3.7559,-3.6846,-3.6016,-3.6016,-3.6016,-3.6016,-3.6016,-3.6016,-3.6016,-3.6016,-3.6016,-3.5986,-3.5723,-3.5615,-3.5566,-3.5117,-3.4951,-3.4824,-3.3955,-3.3652,-3.3633,-3.3476,-3.3418,-3.3418,-3.3418,-3.3418,-3.3418,-3.3418,-3.3418,-3.3418,-3.3418,-3.3418,-3.3418,-3.3418,-3.3418,-3.3418,-3.3418,-3.3418,-3.3418,-3.3418,-3.3418,-3.3418,-3.3418,-3.3418,-3.3418,-3.3418,-3.3418,-3.3418,-3.3418,-3.3418,-3.3418,-3.3418,-3.3418,-3.3418,-3.3418,-3.2656,-3.2229,-3.2229,-3.1367,-3.0889,-3.0889,-3.0889,-3.0889,-3.0889,-3.0889,-3.0889,-3.0889,-3.0889,-3.0889,-3.0889,-3.0889,-3.0889,-2.5062,-2.5062,-2.5252,-2.774,-2.6809,-2.5973,-2.86,-2.9248,-2.9705,-3.112,-3.2492,-3.3418,0.0,0.0,-3.3418,-3.3418,-3.3418,-3.3418,-3.3418,-3.3418,-3.3418,0.0,0.0,0.0,0.0,0.0,0.0,-3.4131,0.0,-3.5596,-3.6064,-3.6855,-3.75,-3.7939,-3.8359,-3.8574,-3.8574,-3.8555,-3.8125,-3.7295,-3.7275,-3.6826,-3.6016,-3.6016,-3.6016,-3.6016,-3.6016,-3.6016,-3.6016,-3.6016,-3.6016,-3.6016,-3.6016,-3.6016,-3.5976,-3.5566,-3.543,-3.5303,-3.4443,-3.4111,-3.4004,-3.3564,-3.3418,-3.3418,-3.3418,-3.3418,-3.3418,-3.3418,-3.3418,-3.3418,-3.3418,-3.3418,-3.3418,-3.3418,-3.3418,-3.3418,-3.3418,-3.3418,-3.3418,-3.3418,-3.3418,-3.3418,-3.3418,-3.3418,-3.3418,-3.3418,-3.3418,-3.3418,-3.3418,-3.3418,-3.3418,-3.3418,-3.3418,-3.3418,-3.3418,-3.2656,-3.2229,-3.2229,-3.1367,-3.0889,-3.0889,-3.0889,-3.0889,-3.0889,-3.0889,-3.0889,-3.0889,-3.0889,-3.0889,-3.0889,-3.0889,-3.0889,-2.3598,-2.4711,-2.5667,-2.5352,-2.67,-2.8337,-2.906,-3.0021,-3.1194,-3.2565,-3.3155,-3.3418,0.0,0.0,0.0,-3.3418,-3.3418,0.0,-3.3418,-3.3418,0.0,0.0,0.0,-3.3594,-3.4033,-3.4355,0.0,0.0,-3.5264,-3.5859,-3.6914,-3.7178,-3.7637,-3.8389,-3.8516,-3.8574,-3.8574,-3.8252,-3.7822,-3.7295,-3.6982,-3.6543,-3.6016,-3.6016,-3.6016,-3.6016,-3.6016,-3.6016,-3.6016,-3.6016,-3.6016,-3.6016,-3.6016,-3.6016,-3.6006,-3.5898,-3.5859,-3.5781,-3.5244,-3.4619,-3.4004,-3.3564,-3.3418,-3.3418,-3.3418,-3.3418,-3.3418,-3.3418,-3.3418,-3.3418,-3.3418,-3.3418,-3.3418,-3.3418,-3.3418,-3.3418,-3.3418,-3.3418,-3.3418,-3.3418,-3.3418,-3.3418,-3.3418,-3.3418,-3.3418,-3.3418,-3.3418,-3.3418,-3.3418,-3.3418,-3.3418,-3.3418,-3.3418,-3.3418,-3.3418,-3.2656,-3.2229,-3.2229,-3.1367,-3.0889,-3.0889,-3.0889,-3.0889,-3.0889,-3.0889,-3.0889,-3.0889,-3.0889,-3.0889,-3.0889,-3.0889,-3.0889,-2.3281,-2.4258,-2.5453,-2.598,-2.6821,-2.775,-2.892,-2.9304,-2.9882,-3.1267,-3.2046,0.0,0.0,0.0,0.0,0.0,0.0,0.0,-3.3418,-3.3418,-3.3418,0.0,-3.3418,0.0,-3.4287,-3.456,-3.4971,0.0,-3.5664,-3.6142,-3.7236,-3.7295,-3.7695,-3.8545,-3.8574,-3.8476,-3.8291,-3.8047,-3.7617,-3.7021,-3.6787,-3.6435,-3.6016,-3.6016,-3.6016,-3.6016,0.0,-3.6016,-3.6016,-3.6016,-3.6016,-3.6016,-3.6016,-3.6016,-3.6016,-3.6016,-3.6016,-3.5957,-3.5537,-3.4932,-3.4277,-3.3848,-3.3574,-3.3418,-3.3418,-3.3418,-3.3418,-3.3418,-3.3418,-3.3418,-3.3418,-3.3418,-3.3418,-3.3418,-3.3418,-3.3418,-3.3418,-3.3418,-3.3418,-3.3418,-3.3418,-3.3418,-3.3418,-3.3418,-3.3418,-3.3418,-3.3418,-3.3418,-3.3418,-3.3418,-3.3418,-3.3418,-3.3418,-3.335,-3.3164,-3.2549,-3.209,-3.1894,-3.126,-3.0889,-3.0889,-3.0889,-3.0889,-3.0889,-3.0889,-3.0889,-3.0889,-3.0889,-3.0889,-3.0889,-3.0889,-3.0889,-2.3457,-2.3929,-2.5039,-2.7777,-2.7064,-2.6241,-2.8666,-2.8271,-2.78,-2.9182,0.0,0.0,-3.3092,0.0,-3.3155,-3.3355,0.0,-3.3418,-3.3418,-3.3418,-3.3418,-3.3418,-3.3476,-3.3818,-3.4619,-3.4756,-3.5127,-3.5957,-3.6016,-3.6367,-3.7168,-3.7266,-3.7666,-3.8467,-3.8437,-3.8223,-3.7842,-3.7783,-3.7392,-3.667,-3.6611,-3.6387,-3.6016,-3.6016,-3.6016,-3.6016,-3.6016,0.0,-3.6016,-3.6016,-3.6016,-3.6016,-3.6016,-3.6016,-3.6016,-3.6016,-3.6016,-3.5967,-3.5605,-3.5137,-3.4629,-3.4209,-3.3779,-3.3418,-3.3418,-3.3418,-3.3418,-3.3418,-3.3418,-3.3418,-3.3418,-3.3418,-3.3418,-3.3418,-3.3418,-3.3418,-3.3418,-3.3418,-3.3418,-3.3418,-3.3418,-3.3418,-3.3418,-3.3418,-3.3418,-3.3418,-3.3418,-3.3418,-3.3418,-3.3418,-3.3418,-3.3418,-3.3369,-3.3193,-3.2822,-3.2353,-3.1924,-3.1543,-3.1123,-3.0889,-3.0889,-3.0889,-3.0889,-3.0889,-3.0889,-3.0889,-3.0889,-3.0889,-3.0889,-3.0889,-3.0889,-3.0889,-2.3179,-2.45,-2.6,-2.6504,-2.7588,-2.86,-2.9117,-2.8986,0.0,0.0,0.0,-3.0354,-3.2902,-3.2428,0.0,-3.3228,0.0,0.0,0.0,0.0,-3.3418,0.0,0.0,0.0,0.0,0.0,0.0,0.0,0.0,-3.624,-3.6748,-3.7109,-3.7529,-3.8017,-3.7705,-3.748,-3.7402,-3.706,-3.6816,-3.667,-3.6309,-3.6094,-3.6016,-3.6016,-3.6016,-3.6016,-3.6016,0.0,-3.6016,-3.6016,-3.6016,-3.6016,-3.6016,-3.6016,-3.6016,-3.6016,-3.6016,-3.6006,-3.5937,-3.5381,-3.4629,-3.4209,-3.3779,-3.3418,-3.3418,-3.3418,-3.3418,-3.3418,-3.3418,-3.3418,-3.3418,-3.3418,-3.3418,-3.3418,-3.3418,-3.3418,-3.3418,-3.3418,-3.3418,-3.3418,-3.3418,-3.3418,-3.3418,-3.3418,-3.3418,-3.3418,-3.3418,-3.3418,-3.3418,-3.3418,-3.3418,-3.3418,-3.3105,-3.2871,-3.2803,-3.208,-3.1601,-3.1523,-3.1123,-3.0889,-3.0889,-3.0889,-3.0889,-3.0889,-3.0889,-3.0889,-3.0889,-3.0889,-3.0889,-3.0889,-3.0889,-3.0889,-2.3969,-2.4581,-2.5599,-2.7739,-2.8241,-2.8534,-2.9956,0.0,0.0,0.0,0.0,-2.9835,-3.1909,0.0,0.0,0.0,0.0,0.0,0.0,0.0,0.0,0.0,0.0,0.0,0.0,0.0,0.0,0.0,0.0,-3.6211,-3.665,-3.707,-3.7392,-3.7598,-3.7402,-3.7197,-3.6973,-3.6777,-3.6562,-3.6328,-3.6123,-3.6016,-3.6016,-3.6016,-3.6016,-3.6016,-3.6016,0.0,-3.6016,-3.6016,-3.6016,-3.6016,-3.6016,-3.6016,-3.6016,-3.6016,-3.6016,-3.6016,-3.6016,-3.5439,-3.4668,-3.4463,-3.3955,-3.3418,-3.3418,-3.3418,-3.3418,-3.3418,-3.3418,-3.3418,-3.3418,-3.3418,-3.3418,-3.3418,-3.3418,-3.3418,-3.3418,-3.3418,-3.3418,-3.3418,-3.3418,-3.3418,-3.3418,-3.3418,-3.3418,-3.3418,-3.3418,-3.3418,-3.3418,-3.3232,-3.3096,-3.3096,-3.292,-3.2617,-3.2168,-3.1758,-3.1426,-3.1201,-3.1006,-3.0889,-3.0889,-3.0889,-3.0889,-3.0889,-3.0889,-3.0889,-3.0889,-3.0889,-3.0889,-3.0889,-3.0889,-3.0889,-2.4764,-2.4535,-2.5001,-2.9155,-2.8887,-2.8114,-3.0328,-2.9361,0.0,0.0,0.0,0.0,0.0,0.0,0.0,0.0,0.0,0.0,0.0,0.0,0.0,0.0,0.0,0.0,0.0,0.0,0.0,0.0,0.0,0.0,-3.665,-3.6894,-3.707,-3.7158,-3.707,-3.6865,-3.6533,-3.6533,-3.6357,-3.6016,-3.6016,-3.6016,-3.6016,-3.6016,-3.6016,-3.6016,-3.6016,0.0,0.0,-3.6016,-3.6016,-3.6016,-3.6016,-3.6016,-3.6016,-3.6016,-3.6016,-3.6016,-3.6016,-3.5439,-3.4697,-3.4697,-3.4121,-3.3418,-3.3418,-3.3418,-3.3418,-3.3418,-3.3418,-3.3418,-3.3418,-3.3418,-3.3418,-3.3418,-3.3418,-3.3418,-3.3418,-3.3418,-3.3418,-3.3418,-3.3418,-3.3418,-3.3418,-3.3418,-3.3418,-3.3418,-3.3418,-3.3418,-3.3418,-3.3057,-3.2764,-3.2666,-3.2578,-3.2246,-3.1572,-3.1435,-3.124,-3.0918,-3.0889,-3.0889,-3.0889,-3.0889,-3.0889,-3.0889,-3.0889,-3.0889,-3.0889,-3.0889,-3.0889,-3.0889,-3.0889,-3.0889,-2.4764,-2.436,-2.4703,-2.9084,-2.9447,-2.8772,-2.9301,0.0,0.0,0.0,-2.8328,-2.9639,0.0,0.0,0.0,0.0,0.0,0.0,0.0,0.0,0.0,0.0,0.0,0.0,0.0,0.0,0.0,0.0,0.0,0.0,-3.665,-3.6328,-3.6318,-3.6719,-3.6348,-3.6123,-3.6074,-3.6074,-3.6064,-3.6016,-3.6016,-3.6016,-3.6016,-3.6016,-3.6016,-3.6016,-3.6016,0.0,0.0,-3.6016,-3.6016,-3.6016,-3.6016,-3.6016,-3.6016,-3.6016,-3.6016,-3.6016,-3.6016,-3.5439,-3.4697,-3.4697,-3.4121,-3.3418,-3.3418,-3.3418,-3.3418,-3.3418,-3.3418,-3.3418,-3.3418,-3.3418,-3.3418,-3.3418,-3.3418,-3.3418,-3.3418,-3.3418,-3.3418,-3.3418,-3.3418,-3.3418,-3.3418,-3.3418,-3.3418,-3.3418,-3.3418,-3.3418,-3.3418,-3.3057,-3.2646,-3.2266,-3.1865,-3.1601,-3.1523,-3.1172,-3.0928,-3.0889,-3.0889,-3.0889,-3.0889,-3.0889,-3.0889,-3.0889,-3.0889,-3.0889,-3.0889,-3.0889,-3.0889,-3.0889,-3.0889,-3.0889,-2.5676,-2.5512,-2.5604,-2.9217,-2.9412,-2.8777,-2.9097,0.0,0.0,-2.7543,-2.8912,-3.041,-3.0086,0.0,0.0,0.0,0.0,0.0,0.0,0.0,0.0,0.0,0.0,0.0,0.0,0.0,0.0,0.0,0.0,0.0,-3.6269,-3.6113,-3.6103,-3.6269,-3.6113,-3.6016,-3.6016,-3.6016,-3.6016,-3.6016,-3.6016,-3.6016,-3.6016,-3.6016,-3.6016,-3.6016,-3.6016,0.0,0.0,-3.6016,-3.6016,-3.6016,-3.6016,-3.6016,-3.6016,-3.6016,-3.6016,-3.5986,-3.5732,-3.5234,-3.4658,-3.4404,-3.3916,-3.3418,-3.3418,-3.3418,-3.3418,-3.3418,-3.3418,-3.3418,-3.3418,-3.3418,-3.3418,-3.3418,-3.3418,-3.3418,-3.3418,-3.3418,-3.3418,-3.3418,-3.3418,-3.3418,-3.3418,-3.3418,-3.3418,-3.3418,-3.3418,-3.333,-3.3076,-3.2676,-3.2256,-3.1826,-3.1621,-3.1416,-3.1162,-3.0986,-3.0889,-3.0889,-3.0889,-3.0889,-3.0889,-3.0889,-3.0889,-3.0889,-3.0889,-3.0889,-3.0889,-3.0889,-3.0889,-3.0889,-3.0889,-3.0889,-2.5798,-2.5925,-2.6007,-2.8677,-2.893,-2.8477,0.0,0.0,0.0,-2.7477,-2.9687,-3.1515,-3.0086,0.0,0.0,0.0,0.0,0.0,0.0,0.0,0.0,0.0,0.0,0.0,0.0,0.0,0.0,0.0,0.0,0.0,0.0,-3.6016,-3.6016,-3.6016,-3.6016,-3.6016,-3.6016,-3.6016,-3.6016,-3.6016,-3.6016,-3.6016,-3.6016,-3.6016,-3.6016,-3.6016,-3.6016,0.0,0.0,-3.6016,-3.6016,-3.6016,-3.6016,-3.6016,-3.6016,-3.6016,-3.5937,-3.5791,-3.5498,-3.501,-3.4463,-3.417,-3.3779,-3.3418,-3.3418,-3.3418,-3.3418,-3.3418,-3.3418,-3.3418,-3.3418,-3.3418,-3.3418,-3.3418,-3.3418,-3.3418,-3.3418,-3.3418,-3.3418,-3.3418,-3.3418,-3.3418,-3.3418,-3.3418,-3.3418,-3.3418,-3.331,-3.3135,-3.2832,-3.2314,-3.1865,-3.1553,-3.1406,-3.1211,-3.0918,-3.0889,-3.0889,-3.0889,-3.0889,-3.0889,-3.0889,-3.0889,-3.0889,-3.0889,-3.0889,-3.0889,-3.0889,-3.0889,-3.0889,-3.0889,-3.0889,-3.0889,-2.4641,-2.5133,-2.5528,-2.7229,-2.786,-2.7858,0.0,0.0,0.0,-2.7668,-3.0475,-3.2965,-3.1515,-3.2438,0.0,0.0,0.0,0.0,0.0,0.0,0.0,0.0,0.0,0.0,0.0,0.0,0.0,0.0,0.0,0.0,0.0,-3.6016,-3.6016,-3.6016,-3.6016,-3.6016,-3.6016,-3.6016,-3.6016,-3.6016,-3.6016,-3.6016,-3.6016,-3.6016,-3.6016,0.0,0.0,0.0,0.0,-3.6016,-3.6016,-3.6016,-3.6016,-3.6016,-3.6016,-3.6016,-3.5762,-3.54,-3.5391,-3.4814,-3.4082,-3.4072,-3.3779,-3.3418,-3.3418,-3.3418,-3.3418,-3.3418,-3.3418,-3.3418,-3.3418,-3.3418,-3.3418,-3.3418,-3.3418,-3.3418,-3.3418,-3.3418,-3.3418,-3.3418,-3.3418,-3.3418,-3.3418,-3.3418,-3.3418,-3.3418,-3.3066,-3.2803,-3.2793,-3.2051,-3.1523,-3.1514,-3.1143,-3.0898,-3.0889,-3.0889,-3.0889,-3.0889,-3.0889,-3.0889,-3.0889,-3.0889,-3.0889,-3.0889,-3.0889,-3.0889,-3.0889,-3.0889,-3.0889,-3.0889,-3.0889,-3.0889,-2.4332,-2.4571,-2.4766,-2.6165,-2.7151,-2.7383,-2.595,0.0,-3.0466,-2.7668,-3.0484,-3.2956,-3.1579,-3.2428,0.0,0.0,0.0,0.0,0.0,0.0,0.0,0.0,0.0,0.0,0.0,0.0,0.0,0.0,0.0,0.0,0.0,-3.6016,-3.6016,-3.6016,-3.6016,-3.6016,-3.6016,-3.6016,-3.6016,-3.6016,-3.6016,-3.6016,-3.6016,-3.6016,-3.6016,0.0,0.0,0.0,0.0,-3.6016,-3.6016,-3.6016,-3.6016,-3.6016,-3.5986,-3.5693,-3.5508,-3.5303,-3.4697,-3.4307,-3.4023,-3.3721,-3.3535,-3.3418,-3.3418,-3.3418,-3.3418,-3.3418,-3.3418,-3.3418,-3.3418,-3.3418,-3.3418,-3.3418,-3.3418,-3.3418,-3.3418,-3.3418,-3.3418,-3.3418,-3.3418,-3.3418,-3.3418,-3.3418,-3.333,-3.3037,-3.2881,-3.2588,-3.2002,-3.1689,-3.1406,-3.1123,-3.0976,-3.0889,-3.0889,-3.0889,-3.0889,-3.0889,-3.0889,-3.0889,-3.0889,-3.0889,-3.0889,-3.0889,-3.0889,-3.0889,-3.0889,-3.0889,-3.0889,-3.0889,-3.0889,-3.0889,0.0,-2.3891,-2.4176,-2.4604,-2.6198,0.0,0.0,0.0,-3.0595,-2.8188,-3.0346,-3.2502,-3.2174,-3.2365,0.0,0.0,0.0,0.0,0.0,0.0,0.0,0.0,0.0,0.0,0.0,0.0,0.0,0.0,0.0,0.0,0.0,-3.6016,-3.6016,-3.6016,-3.6016,-3.6016,-3.6016,-3.6016,-3.6016,-3.6016,-3.6016,-3.6016,-3.6016,-3.6016,-3.6016,0.0,0.0,0.0,0.0,-3.6016,-3.6016,-3.6016,-3.6016,-3.5928,-3.5752,-3.5488,-3.5185,-3.4814,-3.4267,-3.3965,-3.3779,-3.3516,-3.3418,-3.3418,-3.3418,-3.3418,-3.3418,-3.3418,-3.3418,-3.3418,-3.3418,-3.3418,-3.3418,-3.3418,-3.3418,-3.3418,-3.3418,-3.3418,-3.3418,-3.3418,-3.3418,-3.3418,-3.3418,-3.3291,-3.3096,-3.2832,-3.2519,-3.2119,-3.1592,-3.1377,-3.1182,-3.0918,-3.0889,-3.0889,-3.0889,-3.0889,-3.0889,-3.0889,-3.0889,-3.0889,-3.0889,-3.0889,-3.0889,-3.0889,-3.0889,-3.0889,-3.0889,-3.0889,-3.0889,-3.0889,-3.0889,-3.0889,0.0,0.0,0.0,0.0,0.0,0.0,0.0,0.0,0.0,-2.9165,-3.0077,-3.1579,-3.3092,0.0,0.0,0.0,0.0,0.0,0.0,0.0,0.0,0.0,0.0,0.0,0.0,0.0,0.0,0.0,0.0,0.0,0.0,-3.6016,-3.6016,-3.6016,-3.6016,-3.6016,-3.6016,-3.6016,-3.6016,-3.6016,-3.6016,-3.6016,-3.6016,-3.6016,-3.6016,0.0,0.0,0.0,0.0,-3.6016,-3.6016,-3.6016,-3.5986,-3.5732,-3.5391,-3.5322,-3.4785,-3.4072,-3.4033,-3.376,-3.3418,-3.3418,-3.3418,-3.3418,-3.3418,-3.3418,-3.3418,-3.3418,-3.3418,-3.3418,-3.3418,-3.3418,-3.3418,-3.3418,-3.3418,-3.3418,-3.3418,-3.3418,-3.3418,-3.3418,-3.3398,-3.3379,-3.3379,-3.3027,-3.2744,-3.2705,-3.2031,-3.1504,-3.1475,-3.1133,-3.0889,-3.0889,-3.0889,-3.0889,-3.0889,-3.0889,-3.0889,-3.0889,-3.0889,-3.0889,-3.0889,-3.0889,-3.0889,-3.0889,-3.0889,-3.0889,-3.0889,-3.0889,-3.0889,-3.0889,-3.0889,-3.0889,-2.1292,0.0,-2.1908,-2.2469,0.0,0.0,0.0,0.0,0.0,0.0,0.0,0.0,0.0,0.0,0.0,0.0,0.0,0.0,0.0,0.0,0.0,0.0,0.0,0.0,0.0,0.0,0.0,0.0,0.0,0.0,0.0,-3.6016,-3.6016,-3.6016,-3.6016,-3.6016,-3.6016,-3.6016,-3.6016,-3.6016,-3.6016,-3.6016,-3.6016,-3.6016,-3.6016,0.0,0.0,0.0,-3.6016,-3.6016,-3.6016,-3.5986,-3.5664,-3.5478,-3.5312,-3.4639,-3.4248,-3.4023,-3.3691,-3.3506,-3.3418,-3.3418,-3.3418,-3.3418,-3.3418,-3.3418,-3.3418,-3.3418,-3.3418,-3.3418,-3.3418,-3.3418,-3.3418,-3.3418,-3.3418,-3.3418,-3.3418,-3.3418,-3.3418,-3.3418,-3.3164,-3.2939,-3.2939,-3.2598,-3.2207,-3.1865,-3.1641,-3.1406,-3.1074,-3.0957,-3.0889,-3.0889,-3.0889,-3.0889,-3.0889,-3.0889,-3.0889,-3.0889,-3.0889,-3.0889,-3.0889,-3.0889,-3.0889,-3.0889,-3.0889,-3.0889,-3.0889,-3.0889,-3.0889,-3.0889,-3.0889,-3.0889,-2.1109,-2.1109,-2.1269,-2.194,-2.3457,-2.4601,0.0,0.0,0.0,0.0,0.0,0.0,0.0,0.0,0.0,0.0,0.0,0.0,0.0,0.0,0.0,0.0,0.0,0.0,0.0,0.0,0.0,0.0,0.0,0.0,0.0,-3.6016,-3.6016,-3.6016,-3.6016,-3.6016,-3.6016,-3.6016,-3.6016,-3.6016,-3.6016,-3.6016,-3.6016,-3.6016,-3.6016,0.0,0.0,0.0,-3.6006,-3.581,-3.5732,-3.5693,-3.5244,-3.4961,-3.4726,-3.4248,-3.3945,-3.374,-3.3506,-3.3418,-3.3418,-3.3418,-3.3418,-3.3418,-3.3418,-3.3418,-3.3418,-3.3418,-3.3418,-3.3418,-3.3418,-3.3418,-3.3418,-3.3418,-3.3418,-3.3418,-3.3418,-3.3418,-3.3369,-3.3174,-3.2949,-3.2734,-3.2539,-3.2148,-3.1787,-3.1553,-3.1348,-3.1152,-3.0918,-3.0889,-3.0889,-3.0889,-3.0889,-3.0889,-3.0889,-3.0889,-3.0889,-3.0889,-3.0889,-3.0889,-3.0889,-3.0889,-3.0889,-3.0889,-3.0889,-3.0889,-3.0889,-3.0889,-3.0889,-3.0889,-3.0889,-3.0889,-2.1109,-2.1109,-2.1172,-2.1544,-2.2918,-2.3944,0.0,0.0,0.0,0.0,0.0,0.0,0.0,0.0,0.0,0.0,0.0,0.0,0.0,0.0,0.0,0.0,0.0,0.0,0.0,0.0,0.0,0.0,0.0,0.0,0.0,-3.6016,-3.6016,-3.6016,-3.6016,-3.6016,-3.6016,-3.6016,-3.6016,-3.6016,-3.6016,-3.6016,-3.6016,-3.6016,-3.5986,-3.5928,0.0,0.0,-3.5791,-3.543,-3.5293,-3.5244,-3.4785,-3.4385,-3.4062,-3.3994,-3.374,-3.3418,-3.3418,-3.3418,-3.3418,-3.3418,-3.3418,-3.3418,-3.3418,-3.3418,-3.3418,-3.3418,-3.3418,-3.3418,-3.3418,-3.3418,-3.3418,-3.3418,-3.3418,-3.3408,-3.334,-3.333,-3.3203,-3.2783,-3.2646,-3.249,-3.2129,-3.1709,-3.1426,-3.1426,-3.1123,-3.0889,-3.0889,-3.0889,-3.0889,-3.0889,-3.0889,-3.0889,-3.0889,-3.0889,-3.0889,-3.0889,-3.0889,-3.0889,-3.0889,-3.0889,-3.0889,-3.0889,-3.0889,-3.0889,-3.0889,-3.0889,-3.0889,-3.0889,-3.0889,-3.0889,-2.1109,-2.1109,-2.1172,-2.1544,-2.1831,-2.2363,0.0,0.0,0.0,0.0,0.0,0.0,0.0,0.0,0.0,0.0,0.0,0.0,0.0,0.0,0.0,0.0,0.0,0.0,0.0,0.0,0.0,0.0,0.0,0.0,0.0,-3.6016,-3.6016,-3.6016,-3.6016,-3.6016,-3.6016,-3.6016,-3.6016,-3.6016,-3.6016,-3.6016,-3.6016,-3.6016,-3.583,-3.5488,0.0,-3.5264,-3.4892,-3.4834,-3.4805,-3.4766,-3.4336,-3.4131,-3.4023,-3.3652,-3.3476,-3.3418,-3.3418,-3.3418,-3.3418,-3.3418,-3.3418,-3.3418,-3.3418,-3.3418,-3.3418,-3.3418,-3.3418,-3.3418,-3.3418,-3.3418,-3.3418,-3.3418,-3.3418,-3.333,-3.2969,-3.2891,-3.2764,-3.2344,-3.1963,-3.1689,-3.1631,-3.1269,-3.0986,-3.0986,-3.0928,-3.0889,-3.0889,-3.0889,-3.0889,-3.0889,-3.0889,-3.0889,-3.0889,-3.0889,-3.0889,-3.0889,-3.0889,-3.0889,-3.0889,-3.0889,-3.0889,-3.0889,-3.0889,-3.0889,-3.0889,-3.0889,-3.0889,-3.0889,-3.0889,-3.0889,-2.1109,-2.1601,-2.2097,-2.1734,-2.1734,-2.2139,0.0,0.0,0.0,0.0,0.0,0.0,0.0,0.0,0.0,0.0,0.0,0.0,0.0,0.0,0.0,0.0,0.0,0.0,0.0,0.0,0.0,0.0,0.0,0.0,-3.6016,-3.6016,-3.6016,-3.6016,-3.6016,-3.5908,-3.5684,-3.5684,-3.5801,-3.6016,-3.5791,-3.5684,-3.5674,-3.542,-3.5205,-3.5019,0.0,-3.4892,-3.4678,-3.4453,-3.4365,-3.4316,-3.3887,-3.3721,-3.3691,-3.3496,-3.3418,-3.3418,-3.3418,-3.2892,-3.2301,-3.2301,-3.2301,-3.2301,-3.2301,-3.2829,-3.3418,-3.3418,-3.3418,-3.3418,-3.3418,-3.3418,-3.3418,-3.3418,-3.3252,-3.3027,-3.2832,-3.2617,-3.2334,-3.1904,-3.165,-3.1445,-3.1211,-3.1016,-3.0889,-3.0889,-3.0889,-3.0889,-3.0889,-3.0889,-3.0889,-3.0889,-3.0889,-3.0889,-3.0889,-3.0889,-3.0889,-3.0889,-3.0889,-3.0889,-3.0889,-3.0889,-3.0889,-3.0889,-3.0889,-3.0889,-3.0889,-3.0889,-3.0889,-3.0889,-3.0889,-3.0889,-2.1109,-2.1846,-2.2466,-2.167,0.0,0.0,0.0,0.0,0.0,0.0,0.0,0.0,0.0,0.0,0.0,0.0,0.0,0.0,0.0,0.0,0.0,0.0,0.0,0.0,0.0,0.0,0.0,0.0,0.0,0.0,-3.5443,-3.5443,-3.5443,-3.5443,-3.5443,-3.5288,-3.4968,-3.4968,-3.5266,-3.5703,-3.5381,-3.5158,-3.5091,-3.4863,-3.4583,-3.442,-3.4551,-3.4492,-3.4375,-3.4053,-3.3916,-3.3887,-3.3154,-3.2702,-3.2438,-3.2438,-3.2438,-3.2438,-3.2438,-3.1717,-3.0798,-3.0798,-3.0798,-3.0798,-3.0798,-3.1588,-3.2438,-3.2438,-3.2638,-3.2965,-3.3292,-3.3418,-3.3398,-3.3301,-3.3027,-3.2744,-3.2539,-3.2246,-3.1885,-3.1455,-3.1367,-3.1269,-3.0947,-3.0889,-3.0889,-3.0889,-3.0889,-3.0889,-3.0889,-3.0889,-3.0889,-3.0889,-3.0889,-3.0889,-3.0889,-3.0889,-3.0889,-3.0889,-3.0889,-3.0889,-3.0889,-3.0889,-3.0889,-3.0889,-3.0889,-3.0889,-3.0889,-3.0889,-3.0889,-3.0889,-3.0889,-3.0889,-2.1109,-2.1172,-2.1229,-2.1172,0.0,0.0,0.0,0.0,0.0,0.0,0.0,0.0,0.0,0.0,0.0,0.0,0.0,0.0,0.0,0.0,0.0,0.0,0.0,0.0,0.0,0.0,0.0,0.0,0.0,0.0,-3.388,-3.388,-3.388,-3.388,-3.388,-3.387,-3.3832,-3.3832,-3.4182,-3.4795,-3.4766,-3.4615,-3.4295,-3.4585,-3.4362,-3.3669,-3.3992,-3.3887,-3.3506,-3.3476,-3.3467,-3.334,-3.1982,-3.0669,-2.9509,-2.9509,-2.9509,-2.9509,-2.9509,-2.9444,-2.9378,-2.9378,-2.9378,-2.9378,-2.9378,-2.9444,-2.9509,-2.9509,-3.0419,-3.1771,-3.3092,-3.3418,-3.333,-3.293,-3.2822,-3.2578,-3.1777,-3.1592,-3.1435,-3.1016,-3.0937,-3.0928,-3.0898,-3.0889,-3.0889,-3.0889,-3.0889,-3.0889,-3.0889,-3.0889,-3.0889,-3.0889,-3.0889,-3.0889,-3.0889,-3.0889,-3.0889,-3.0889,-3.0889,-3.0889,-3.0889,-3.0889,-3.0889,-3.0889,-3.0889,-3.0889,-3.0889,-3.0889,-3.0889,-3.0889,-3.0889,-3.0889,-2.1109,-2.1727,-2.2153,-2.1292,0.0,0.0,0.0,0.0,0.0,0.0,0.0,0.0,0.0,0.0,0.0,0.0,0.0,0.0,0.0,0.0,0.0,0.0,0.0,0.0,0.0,0.0,0.0,0.0,0.0,0.0,0.0,-3.3728,-3.3728,-3.3728,-3.3728,-3.3605,-3.3349,-3.3349,-3.3411,-3.3585,-3.3856,-3.3927,-3.3852,-3.3904,-3.3754,-3.3481,-3.3608,-3.3574,-3.3355,-3.2438,-3.21,-3.1973,-3.0549,-2.9705,-2.9182,-2.9182,-2.9182,-2.9182,-2.9182,-2.8657,-2.7874,-2.7949,-2.7941,-2.7866,-2.7866,-2.8526,-2.9378,-3.0281,-3.0691,-3.1138,-3.1907,-3.2574,-3.2998,-3.2832,-3.2393,-3.1914,-3.1592,-3.1309,-3.1074,-3.0918,-3.0889,-3.0889,-3.0889,-3.0889,-3.0889,-3.0889,-3.0889,-3.0889,-3.0889,-3.0889,-3.0889,-3.0889,-3.0889,-3.0889,-3.0889,-3.0889,-3.0889,-3.0889,-3.0889,-3.0889,-3.0889,-3.0889,-3.0889,-3.0889,-3.0889,-3.0889,-3.0889,-3.0889,-3.0889,-3.0889,-3.0889,-3.0889,-2.1109,-2.179,-2.2278,0.0,0.0,0.0,0.0,0.0,0.0,0.0,0.0,0.0,0.0,0.0,0.0,0.0,0.0,0.0,0.0,0.0,0.0,0.0,0.0,0.0,0.0,0.0,0.0,0.0,0.0,0.0,0.0,-3.2993,-3.2993,-3.2993,-3.2993,-3.2861,-3.2589,-3.2589,-3.2503,-3.2412,-3.2834,-3.317,-3.3354,-3.3364,-3.3355,-3.3228,-3.2892,-3.2765,-3.2629,-3.1194,-3.041,-2.9882,-2.892,-2.8271,-2.7874,-2.7874,-2.7874,-2.7874,-2.7874,-2.7286,-2.6501,-2.6509,-2.6501,-2.6561,-2.6953,-2.7742,-2.8829,-3.0057,-3.0547,-3.0754,-3.0901,-3.1778,-3.2559,-3.2422,-3.1943,-3.1484,-3.1348,-3.1094,-3.0889,-3.0889,-3.0889,-3.0889,-3.0889,-3.0889,-3.0889,-3.0889,-3.0889,-3.0889,-3.0889,-3.0889,-3.0889,-3.0889,-3.0889,-3.0889,-3.0889,-3.0889,-3.0889,-3.0889,-3.0889,-3.0889,-3.0889,-3.0889,-3.0889,-3.0889,-3.0889,-3.0889,-3.0889,-3.0889,-3.0889,-3.0889,-3.0889,-3.081,-2.1109,-2.1109,0.0,0.0,0.0,0.0,0.0,0.0,0.0,0.0,0.0,0.0,0.0,0.0,0.0,0.0,0.0,0.0,0.0,0.0,0.0,0.0,0.0,0.0,0.0,0.0,0.0,0.0,0.0,0.0,0.0,-3.1377,-3.1377,-3.1377,-3.1377,-3.1377,-3.1377,-3.1377,-3.1377,-3.1377,-3.1717,-3.223,-3.2921,-3.3228,-3.3165,-3.2794,-3.1717,-3.1249,-3.1185,-2.977,-2.8328,-2.7086,-2.7086,-2.6301,-2.5127,-2.5127,-2.5127,-2.5127,-2.5127,-2.5127,-2.5127,-2.5127,-2.5119,-2.5315,-2.6686,-2.7078,-2.7322,-2.8317,-2.9623,-3.0626,-3.0231,-3.1143,-3.2051,-3.1621,-3.1514,-3.1396,-3.0986,-3.0889,-3.0889,-3.0889,-3.0889,-3.0889,-3.0889,-3.0889,-3.0889,-3.0889,-3.0889,-3.0889,-3.0889,-3.0889,-3.0889,-3.0889,-3.0889,-3.0889,-3.0889,-3.0889,-3.0889,-3.0889,-3.0889,-3.0889,-3.0889,-3.0889,-3.0889,-3.0889,-3.0889,-3.0889,-3.0889,-3.0889,-3.0889,-3.0889,-3.0889,-3.0635,-2.1109,0.0,0.0,0.0,0.0,0.0,0.0,0.0,0.0,0.0,0.0,0.0,0.0,0.0,0.0,0.0,0.0,0.0,0.0,0.0,0.0,0.0,0.0,0.0,0.0,0.0,0.0,0.0,0.0,0.0,0.0,-3.1377,-3.1377,-3.1377,-3.1377,-3.1377,-3.1377,-3.039,-3.0056,-3.0242,-2.9313,-3.0039,-3.2166,-3.1534,-3.1194,-3.1001,-2.9678,-2.9222,-2.9361,-2.8196,-2.6886,-2.5712,-2.5712,-2.545,-2.5127,-2.5127,-2.5127,-2.5127,-2.5127,-2.5127,-2.5127,-2.5127,-2.4973,-2.4849,-2.5233,-2.5778,-2.6584,-2.7879,-2.8977,-2.9987,-3.0867,-3.1177,-3.1309,-3.1484,-3.1289,-3.1045,-3.0918,-3.0889,-3.0889,-3.0889,-3.0889,-3.0889,-3.0889,-3.0889,-3.0889,-3.0889,-3.0889,-3.0889,-3.0889,-3.0889,-3.0889,-3.0889,-3.0889,-3.0889,-3.0889,-3.0889,-3.0889,-3.0889,-3.0889,-3.0889,-3.0889,-3.0889,-3.0889,-3.0889,-3.0889,-3.0889,-3.0889,-3.0889,-3.0889,-3.0889,-3.0557,-3.0332,-2.1109,0.0,0.0,0.0,0.0,0.0,0.0,0.0,0.0,0.0,0.0,0.0,0.0,0.0,0.0,0.0,0.0,0.0,0.0,0.0,0.0,0.0,0.0,0.0,0.0,0.0,0.0,0.0,0.0,0.0,0.0,-3.1377,-3.1111,-3.0584,-3.0584,-3.0251,-2.9705,-2.8854,-2.8789,-2.9583,-2.8723,-2.9191,-3.0861,-2.99,-2.9483,-2.9418,-2.7974,-2.7187,-2.6804,-2.6151,-2.5495,-2.4849,-2.4849,-2.4984,-2.5127,-2.5127,-2.5046,-2.4929,-2.4929,-2.4841,-2.4671,-2.4671,-2.454,-2.4503,-2.5086,-2.5641,-2.6455,-2.8196,-2.9097,-2.974,-3.0943,-3.1074,-3.0957,-3.1211,-3.1074,-3.0889,-3.0889,-3.0889,-3.0889,-3.0889,-3.0889,-3.0889,-3.0889,-3.0889,-3.0889,-3.0889,-3.0889,-3.0889,-3.0889,-3.0889,-3.0889,-3.0889,-3.0889,-3.0889,-3.0889,-3.0889,-3.0889,-3.0889,-3.0889,-3.0889,-3.0889,-3.0889,-3.0889,-3.0889,-3.0889,-3.0889,-3.0889,-3.0889,-3.0801,-3.0605,-3.0332,-3.0019,0.0,0.0,0.0,0.0,0.0,0.0,0.0,0.0,0.0,0.0,0.0,0.0,0.0,0.0,0.0,0.0,0.0,0.0,0.0,0.0,0.0,0.0,0.0,0.0,0.0,0.0,0.0,0.0,0.0,0.0,0.0,-3.1037,-3.0446,-2.9134,-2.9068,-2.8526,-2.7312,-2.7047,-2.766,-2.9068,-2.8871,-2.8723,-2.8681,-2.8435,-2.8172,-2.7842,-2.6463,-2.5128,-2.3917,-2.3917,-2.4174,-2.4417,-2.4417,-2.4694,-2.5031,-2.5031,-2.4848,-2.4525,-2.4525,-2.4327,-2.4086,-2.4086,-2.4064,-2.4294,-2.556,-2.6041,-2.6516,-2.8587,-2.9349,-2.9698,-3.0497,-3.083,-3.0889,-3.0889,-3.0889,-3.0889,-3.0889,-3.0889,-3.0889,-3.0889,-3.0889,-3.0889,-3.0889,-3.0889,-3.0889,-3.0889,-3.0889,-3.0889,-3.0889,-3.0889,-3.0889,-3.0889,-3.0889,-3.0889,-3.0889,-3.0889,-3.0889,-3.0889,-3.0889,-3.0889,-3.0889,-3.0889,-3.0889,-3.0889,-3.0889,-3.0889,-3.0889,-3.085,-3.0605,-3.0195,-3.0117,-2.9668,0.0,0.0,0.0,0.0,0.0,0.0,0.0,0.0,0.0,0.0,0.0,0.0,0.0,0.0,0.0,0.0,0.0,0.0,0.0,0.0,0.0,0.0,0.0,0.0,0.0,0.0,0.0,0.0,0.0,0.0,-2.804,-2.804,-2.7916,-2.7585,-2.7585,-2.799,-2.8797,-2.6604,-2.6195,0.0,-2.533,-2.4136,-2.3968,-2.7464,-2.78,-2.5599,-2.4474,-2.3676,-2.3259,-2.3528,-2.3655,-2.3765,-2.3765,-2.4028,-2.4291,-2.4291,-2.4247,-2.4188,-2.4188,-2.4137,-2.4086,-2.4086,-2.391,-2.3762,-2.4074,-2.4701,-2.5464,-2.5929,-2.7479,-2.909,-2.9253,-3.0089,-3.0889,-3.0889,-3.0889,-3.0889,-3.0889,-3.0889,-3.0889,-3.0889,-3.0889,-3.0889,-3.0889,-3.0889,-3.0889,-3.0889,-3.0889,-3.0889,-3.0889,-3.0889,-3.0889,-3.0889,-3.0889,-3.0889,-3.0889,-3.0889,-3.0889,-3.0889,-3.0889,-3.0889,-3.0889,-3.0889,-3.0889,-3.0889,-3.0889,-3.0889,-3.0889,-3.0527,-3.0293,-3.0176,-2.9502,-2.9092,0.0,0.0,0.0,0.0,0.0,0.0,0.0,0.0,0.0,0.0,0.0,0.0,0.0,0.0,0.0,0.0,0.0,0.0,0.0,0.0,0.0,0.0,0.0,0.0,0.0,0.0,0.0,0.0,0.0,-2.7113,-2.7113,-2.7784,-2.7527,-2.6128,-2.6624,-2.6611,-2.6024,-2.4354,-2.4282,-2.5646,-2.4149,-2.3731,-2.4291,-2.5315,-2.5003,-2.3497,-2.2969,-2.2619,-2.2544,-2.2876,-2.3043,-2.31,-2.3427,-2.3688,-2.3891,-2.4014,-2.3984,-2.3852,-2.3852,-2.3749,-2.3618,-2.3618,-2.3501,-2.3362,-2.3362,-2.3738,-2.4394,-2.566,-2.6996,-2.8274,-2.954,-3.0401,-3.0889,-3.0889,-3.0889,-3.0889,-3.0889,-3.0889,-3.0889,-3.0889,-3.0889,-3.0889,-3.0889,-3.0889,-3.0889,-3.0889,-3.0889,-3.0889,-3.0889,-3.0889,-3.0889,-3.0889,-3.0889,-3.0889,-3.0889,-3.0889,-3.0889,-3.0889,-3.0889,-3.0889,-3.0889,-3.0674,-3.0664,-3.0889,-3.0674,-3.0557,-3.0557,-3.0117,-2.9785,-2.958,-2.9131,-2.8809,0.0,0.0,0.0,0.0,0.0,0.0,0.0,0.0,0.0,0.0,0.0,0.0,0.0,0.0,0.0,0.0,0.0,0.0,0.0,0.0,0.0,0.0,0.0,0.0,0.0,0.0,0.0,0.0,0.0,-2.6272,-2.621,-2.7416,-2.6954,-2.4578,-2.5429,-2.4883,-2.2739,-2.2237,-2.2693,-2.4114,-2.3796,-2.4285,-2.5426,-2.2946,-2.2015,-2.2372,-2.2116,-2.1957,-2.1976,-2.2232,-2.2336,-2.2418,-2.2932,-2.3263,-2.34,-2.3659,-2.355,-2.3317,-2.3317,-2.3151,-2.2926,-2.2981,-2.2981,-2.3043,-2.3113,-2.323,-2.3899,-2.6078,-2.6996,-2.7855,-2.9971,-3.0704,-3.0889,-3.0889,-3.0889,-3.0889,-3.0889,-3.0889,-3.0889,-3.0889,-3.0889,-3.0889,-3.0889,-3.0889,-3.0889,-3.0889,-3.0889,-3.0889,-3.0889,-3.0889,-3.0889,-3.0889,-3.0889,-3.0889,-3.0889,-3.0889,-3.0889,-3.0889,-3.081,-3.0771,-3.0771,-3.0332,-3.0264,-3.0654,-3.0283,-3.0088,-3.0088,-2.9668,-2.9277,-2.8916,-2.8848,-2.8623,0.0,0.0,0.0,0.0,0.0,0.0,0.0,0.0,0.0,0.0,0.0,0.0,0.0,0.0,0.0,0.0,0.0,0.0,0.0,0.0,0.0,0.0,0.0,0.0,0.0,0.0,0.0,0.0,-2.3003,-2.2953,-2.2693,-2.2877,-2.2811,-2.2428,-2.2579,-2.3011,-2.3855,-2.2649,-2.2693,-2.4107,-2.2626,-2.2056,-2.2171,-2.1528,-2.2197,-2.3724,-2.2504,-2.1844,-2.1675,-2.1675,-2.1713,-2.1731,-2.1794,-2.2047,-2.2293,-2.2356,-2.2335,-2.23,-2.23,-2.2272,-2.2299,-2.2543,-2.2668,-2.2731,-2.2988,-2.3907,-2.4887,-2.5248,-2.6935,-2.8742,-2.9107,-3.003,-3.0889,-3.0889,-3.0889,-3.0889,-3.0889,-3.0889,-3.0889,-3.0889,-3.0889,-3.0889,-3.0889,-3.0889,-3.0889,-3.0889,-3.0889,-3.0889,-3.0889,-3.0889,-3.0889,-3.0889,-3.0889,-3.0889,-3.0889,-3.0889,-3.0889,-3.0889,-3.0518,-3.0293,-3.0293,-2.9883,-2.9687,-2.9746,-2.9687,-2.9658,-2.9658,-2.9219,-2.8975,-2.8906,-2.8545,-2.834,0.0,0.0,0.0,0.0,0.0,0.0,0.0,0.0,0.0,0.0,0.0,0.0,0.0,0.0,0.0,0.0,0.0,0.0,0.0,0.0,0.0,0.0,0.0,0.0,0.0,0.0,0.0,0.0,-2.2178,-2.2118,-2.1991,-2.2759,-2.2825,-2.205,-2.2593,-2.2891,-2.2697,-2.1893,-2.1811,-2.2439,-2.1676,-2.1303,-2.1303,-2.1169,-2.1561,-2.2375,-2.1747,-2.1423,-2.1303,-2.1494,-2.1477,-2.1362,-2.1734,-2.1859,-2.1859,-2.2048,-2.2111,-2.2111,-2.2111,-2.2111,-2.2111,-2.2299,-2.2292,-2.2362,-2.248,-2.2973,-2.3589,-2.4324,-2.5354,-2.6555,-2.8026,-2.882,-2.9431,-3.0167,-3.0343,-3.0343,-3.0343,-3.046,-3.0635,-3.0635,-3.0635,-3.0704,-3.0889,-3.0889,-3.0889,-3.0889,-3.0889,-3.0889,-3.0889,-3.0889,-3.0889,-3.0889,-3.0889,-3.0889,-3.0889,-3.0889,-3.0889,-3.0889,-3.0449,-3.0195,-3.0195,-2.956,-2.9209,-2.9209,-2.9209,-2.9209,-2.9209,-2.8769,-2.8564,-2.8564,-2.8379,-2.8291,0.0,0.0,0.0,0.0,0.0,0.0,0.0,0.0,0.0,0.0,0.0,0.0,0.0,0.0,0.0,0.0,0.0,0.0,0.0,0.0,0.0,0.0,0.0,0.0,0.0,0.0,0.0,0.0,-2.1877,-2.1844,-2.177,-2.2783,-2.2848,-2.1829,-2.263,-2.2511,-2.1501,-2.1223,-2.1109,-2.1109,-2.1109,-2.1109,-2.1109,-2.1109,-2.1109,-2.1109,-2.1109,-2.1109,-2.1109,-2.1355,-2.1362,-2.1172,-2.167,-2.167,-2.1481,-2.1734,-2.1859,-2.1859,-2.1859,-2.1859,-2.1859,-2.1922,-2.1985,-2.1985,-2.2048,-2.2355,-2.2849,-2.3829,-2.4309,-2.504,-2.6987,-2.7727,-2.8224,-2.9194,-2.9677,-2.9922,-2.9922,-3.0098,-3.0274,-3.0274,-3.0274,-3.0333,-3.0587,-3.0655,-3.0655,-3.0655,-3.0655,-3.0655,-3.0655,-3.0655,-3.0655,-3.0655,-3.0704,-3.0762,-3.0762,-3.083,-3.0889,-3.0889,-3.0351,-3.0039,-3.0039,-2.9163,-2.8651,-2.8651,-2.8542,-2.8597,-2.876,-2.8447,-2.8237,-2.8184,-2.8291,-2.8237,0.0,0.0,0.0,0.0,0.0,0.0,0.0,0.0,0.0,0.0,0.0,0.0,0.0,0.0,0.0,0.0,0.0,0.0,0.0,0.0,0.0,0.0,0.0,0.0,0.0,0.0,0.0,0.0,-2.1641,-2.145,-2.1169,-2.1219,-2.1212,-2.1156,-2.1199,-2.1192,-2.1129,-2.1116,-2.1109,-2.1109,-2.1109,-2.1109,-2.1109,-2.1109,-2.1109,-2.1109,-2.1109,-2.1109,-2.1109,-2.1109,-2.1109,-2.1109,-2.1172,-2.1172,-2.1109,-2.1172,-2.1172,-2.1172,-2.1172,-2.1172,-2.1172,-2.1544,-2.1607,-2.167,-2.1985,-2.2966,-2.4008,-2.407,-2.497,-2.5924,-2.6037,-2.7039,-2.8035,-2.8095,-2.9016,-2.9922,-2.9922,-2.9922,-2.9922,-2.9922,-2.9922,-2.9922,-2.9931,-2.9922,-2.9922,-2.9922,-2.9922,-2.9922,-2.9922,-2.9922,-2.9922,-2.9922,-3.0216,-3.045,-3.045,-3.0704,-3.0889,-3.0889,-3.0078,-2.96,-2.96,-2.8552,-2.7935,-2.7935,-2.7622,-2.7783,-2.833,-2.8301,-2.8184,-2.7906,-2.8184,-2.8184,0.0,0.0,0.0,0.0,0.0,0.0,0.0,0.0,0.0,0.0,0.0,0.0,0.0,0.0,0.0,0.0,0.0,0.0,0.0,0.0,0.0,0.0,0.0,0.0,0.0,0.0,0.0,0.0,0.0,-2.1223,-2.1116,-2.1109,-2.1109,-2.1109,-2.1109,-2.1109,-2.1109,-2.1109,-2.1109,-2.1109,-2.1109,-2.1109,-2.1109,-2.1109,-2.1109,-2.1109,-2.1109,-2.1109,-2.1109,-2.1109,-2.1109,-2.1109,-2.1109,-2.1109,-2.1109,-2.1109,-2.1109,-2.1109,-2.1109,-2.1109,-2.1109,-2.1235,-2.1299,-2.1299,-2.1418,-2.179,-2.216,-2.216,-2.3131,-2.4355,-2.5154,-2.633,-2.7564,-2.8421,-2.8975,-2.9331,-2.9331,-2.9331,-2.939,-2.9627,-2.9627,-2.9686,-2.9863,-2.9922,-2.9922,-2.9922,-2.9922,-2.9922,-2.9922,-2.9922,-2.9922,-2.9922,-2.9981,-3.0157,-3.0382,-3.0509,-3.0694,-3.0889,-2.9888,-2.929,-2.929,-2.8195,-2.7584,-2.7584,-2.7476,-2.7485,-2.7701,-2.7701,-2.7647,-2.7593,-2.7906,-2.8014,0.0,0.0,0.0,0.0,0.0,0.0,0.0,0.0,0.0,0.0,0.0,0.0,0.0,0.0,0.0,0.0,0.0,0.0,0.0,0.0,0.0,0.0,0.0,0.0,0.0,0.0,0.0,0.0,0.0,0.0,-2.1109,-2.1109,-2.1109,-2.1109,-2.1109,-2.1109,-2.1109,-2.1109,-2.1109,-2.1109,-2.1109,-2.1109,-2.1109,-2.1109,-2.1109,-2.1109,-2.1109,-2.1109,-2.1109,-2.1109,-2.1109,-2.1109,-2.1109,-2.1109,-2.1109,-2.1109,-2.1109,-2.1109,-2.1109,-2.1109,-2.1109,-2.1109,-2.1109,-2.1109,-2.1109,-2.1109,-2.1109,-2.1109,-2.172,-2.2709,-2.4,-2.5668,-2.7323,-2.8677,-2.8984,-2.8984,-2.8984,-2.8984,-2.9044,-2.9272,-2.9331,-2.939,-2.9568,-2.9577,-2.9577,-2.9577,-2.9577,-2.9577,-2.9577,-2.9577,-2.9577,-2.9577,-2.9686,-2.9863,-3.0089,-3.0157,-3.0333,-3.0528,-2.9546,-2.8954,-2.8954,-2.7867,-2.7269,-2.7269,-2.7161,-2.7116,-2.7116,-2.7323,-2.7368,-2.726,-2.7691,-2.796,0.0,0.0,0.0,0.0,0.0,0.0,0.0,0.0,0.0,0.0,0.0,0.0,0.0,0.0,0.0,0.0,0.0,0.0,0.0,0.0,0.0,0.0,0.0,0.0,0.0,0.0,0.0,0.0,-2.1109,-2.1109,-2.1109,-2.1109,-2.1109,-2.1109,-2.1109,-2.1109,-2.1109,-2.1109,-2.1109,-2.1109,-2.1109,-2.1109,-2.1109,-2.1109,-2.1109,-2.1109,-2.1109,-2.1109,-2.1109,-2.1109,-2.1109,-2.1109,-2.1109,-2.1109,-2.1109,-2.1109,-2.1109,-2.1109,-2.1109,-2.1109,-2.1109,-2.1109,-2.1109,-2.1109,-2.1109,-2.1109,-2.1109,-2.1109,-2.1109,-2.1475,-2.2827,-2.5048,-2.7323,-2.8618,-2.8984,-2.8984,-2.8984,-2.8984,-2.8984,-2.8984,-2.8984,-2.8984,-2.8984,-2.8984,-2.8984,-2.8984,-2.8984,-2.8984,-2.8984,-2.8984,-2.8984,-2.8984,-2.9272,-2.9509,-2.9499,-2.9745,-2.9863,-2.9922,-2.9136,-2.8672,-2.8672,-2.7592,-2.6989,-2.6989,-2.6736,-2.6591,-2.6591,-2.7107,-2.726,-2.6989,-2.7584,-2.8014,-2.1109,0.0,0.0,0.0,0.0,0.0,0.0,0.0,0.0,0.0,0.0,0.0,0.0,0.0,0.0,0.0,0.0,0.0,0.0,0.0,0.0,0.0,0.0,0.0,0.0,0.0,0.0,0.0,-2.1109,-2.1109,-2.1109,-2.1109,-2.1109,-2.1109,-2.1109,-2.1109,-2.1109,-2.1109,-2.1109,-2.1109,-2.1109,-2.1109,-2.1109,-2.1109,-2.1109,-2.1109,-2.1109,-2.1109,-2.1109,-2.1109,-2.1109,-2.1109,-2.1109,-2.1109,-2.1109,-2.1109,-2.1109,-2.1109,-2.1109,-2.1109,-2.1109,-2.1109,-2.1109,-2.1109,-2.1109,-2.1109,-2.1109,-2.1109,-2.179,-2.2827,-2.4131,-2.5729,-2.7082,-2.7444,-2.8301,-2.8984,-2.8984,-2.8984,-2.8984,-2.8984,-2.8984,-2.8984,-2.8984,-2.8984,-2.8984,-2.8984,-2.8984,-2.8984,-2.8984,-2.8984,-2.8984,-2.8984,-2.9103,-2.9213,-2.9499,-2.9568,-2.9686,-2.9872,-2.8906,-2.8342,-2.8342,-2.728,-2.6691,-2.6691,-2.6636,-2.6591,-2.6591,-2.6745,-2.68,-2.6745,-2.7107,-2.7368,0.0,0.0,0.0,0.0,0.0,0.0,0.0,-2.1109,0.0,0.0,0.0,0.0,0.0,0.0,0.0,0.0,0.0,0.0,0.0,0.0,0.0,0.0,0.0,0.0,0.0,0.0,0.0,-2.1109,-2.1109,-2.1109,-2.1109,-2.1109,-2.1109,-2.1109,-2.1109,-2.1109,-2.1109,-2.1109,-2.1109,-2.1109,-2.1109,-2.1109,-2.1109,-2.1109,-2.1109,-2.1109,-2.1109,-2.1109,-2.1109,-2.1109,-2.1109,-2.1109,-2.1109,-2.1109,-2.1109,-2.1109,-2.1109,-2.1109,-2.1109,-2.1109,-2.1109,-2.1109,-2.1109,-2.1109,-2.1109,-2.1109,-2.1109,-2.1109,-2.2097,-2.3263,-2.4,-2.5178,-2.6277,-2.6892,-2.7633,-2.831,-2.8856,-2.8984,-2.8984,-2.8984,-2.8984,-2.8984,-2.8984,-2.8984,-2.8984,-2.8984,-2.8984,-2.8984,-2.8984,-2.8984,-2.8984,-2.8984,-2.8984,-2.9103,-2.9272,-2.9272,-2.9266,-2.9266,-2.8468,-2.7984,-2.7818,-2.7032,-2.6591,-2.6591,-2.6591,-2.6591,-2.6591,-2.6591,-2.6636,-2.6791,-2.6935,-2.7152,0.0,0.0,0.0,0.0,0.0,0.0,-2.1109,-2.1109,-2.1109,0.0,0.0,0.0,0.0,0.0,0.0,0.0,0.0,0.0,0.0,0.0,0.0,0.0,0.0,0.0,0.0,-2.1009,-2.1009,-2.1009,-2.1009,-2.1009,-2.1009,-2.1042,-2.1062,-2.1062,-2.1089,-2.1109,-2.1109,-2.1109,-2.1109,-2.1109,-2.1109,-2.1109,-2.1109,-2.1109,-2.1109,-2.1109,-2.1109,-2.1109,-2.1109,-2.1109,-2.1109,-2.1109,-2.1109,-2.1109,-2.1109,-2.1109,-2.1109,-2.1109,-2.1109,-2.1109,-2.1109,-2.1109,-2.1109,-2.1109,-2.1109,-2.1109,-2.1109,-2.1109,-2.1971,-2.2889,-2.2889,-2.3938,-2.5301,-2.6468,-2.7021,-2.7564,-2.8737,-2.8984,-2.8984,-2.8984,-2.8984,-2.8984,-2.8984,-2.8984,-2.8984,-2.8984,-2.8984,-2.8984,-2.8984,-2.8984,-2.8984,-2.8984,-2.8984,-2.8984,-2.8984,-2.8984,-2.8819,-2.8425,-2.7994,-2.7647,-2.7196,-2.6793,-2.6591,-2.6591,-2.6591,-2.6591,-2.6591,-2.6591,-2.6745,-2.6935,-2.6935,-2.7107,0.0,0.0,0.0,0.0,0.0,0.0,-2.1109,-2.1109,-2.1109,0.0,0.0,0.0,0.0,0.0,0.0,0.0,0.0,0.0,0.0,0.0,0.0,0.0,0.0,0.0,0.0,-2.0408,-2.0408,-2.0408,-2.0408,-2.0408,-2.0408,-2.0628,-2.0762,-2.0762,-2.0989,-2.1109,-2.1109,-2.1109,-2.1109,-2.1109,-2.1109,-2.1109,-2.1109,-2.1109,-2.1109,-2.1109,-2.1109,-2.1109,-2.1109,-2.1109,-2.1109,-2.1109,-2.1109,-2.1109,-2.1109,-2.1109,-2.1109,-2.1109,-2.1109,-2.1109,-2.1109,-2.1109,-2.1109,-2.1109,-2.1109,-2.1109,-2.1109,-2.1109,-2.1292,-2.1475,-2.1475,-2.327,-2.5056,-2.5301,-2.7013,-2.8677,-2.8925,-2.8984,-2.8984,-2.8984,-2.8984,-2.8984,-2.8984,-2.8984,-2.8984,-2.8984,-2.8984,-2.8984,-2.8984,-2.8984,-2.8984,-2.8984,-2.8984,-2.8984,-2.8984,-2.8984,-2.8819,-2.8425,-2.7994,-2.7647,-2.7196,-2.6793,-2.6591,-2.6591,-2.6591,-2.6591,-2.6591,-2.6591,-2.6646,-2.6691,-2.6691,-2.6691,0.0,0.0,0.0,-2.1109,0.0,0.0,0.0,-2.1109,-2.1109,0.0,0.0,0.0,0.0,0.0,0.0,0.0,0.0,0.0,0.0,0.0,0.0,0.0,0.0,0.0,0.0,-2.0173,-2.0173,-2.0173,-2.0173,-2.0173,-2.0173,-2.0374,-2.0454,-2.0454,-2.0595,-2.0668,-2.0668,-2.0668,-2.0668,-2.0668,-2.0668,-2.0748,-2.0895,-2.0895,-2.0969,-2.1109,-2.1109,-2.1109,-2.1109,-2.1109,-2.1109,-2.1109,-2.1109,-2.1109,-2.1109,-2.1109,-2.1109,-2.1109,-2.1109,-2.1109,-2.1109,-2.1109,-2.1109,-2.1109,-2.1109,-2.1109,-2.1109,-2.1109,-2.1109,-2.1109,-2.1109,-2.2097,-2.3387,-2.4687,-2.6034,-2.7383,-2.8737,-2.8984,-2.8984,-2.8984,-2.8984,-2.8984,-2.8984,-2.8984,-2.8984,-2.8984,-2.8984,-2.8984,-2.8984,-2.8984,-2.8984,-2.8984,-2.8984,-2.8984,-2.8984,-2.8984,-2.8718,-2.8113,-2.7941,-2.7555,-2.6912,-2.6692,-2.6591,-2.6591,-2.6591,-2.6591,-2.6591,-2.6591,-2.6591,-2.6591,-2.6591,-2.6591,0.0,0.0,0.0,0.0,0.0,-2.1109,0.0,0.0,0.0,0.0,0.0,0.0,0.0,0.0,0.0,0.0,0.0,0.0,0.0,0.0,0.0,0.0,0.0,0.0,0.0,-2.0067,-2.0067,-2.0067,-2.0067,-2.0067,-2.0067,-2.0114,-2.0147,-2.0147,-2.014,-2.0173,-2.0173,-2.0173,-2.0173,-2.0173,-2.0173,-2.0361,-2.0588,-2.0588,-2.0715,-2.0942,-2.0942,-2.0942,-2.0942,-2.0942,-2.0942,-2.0955,-2.1062,-2.1109,-2.1109,-2.1109,-2.1109,-2.1109,-2.1109,-2.1109,-2.1109,-2.1109,-2.1109,-2.1109,-2.1109,-2.1109,-2.1109,-2.1109,-2.1109,-2.1109,-2.1109,-2.1292,-2.2034,-2.4131,-2.481,-2.5607,-2.7753,-2.843,-2.8609,-2.8609,-2.8797,-2.8984,-2.8984,-2.8984,-2.8984,-2.8984,-2.8984,-2.8984,-2.8984,-2.8984,-2.8984,-2.8984,-2.8984,-2.8984,-2.8984,-2.8984,-2.8636,-2.7877,-2.7822,-2.7416,-2.6619,-2.6591,-2.6591,-2.6591,-2.6591,-2.6591,-2.6591,-2.6591,-2.6591,-2.6591,-2.6591,-2.6591,0.0,0.0,0.0,0.0,-2.1109,0.0,0.0,0.0,-2.1109,-2.1109,0.0,0.0,0.0,0.0,0.0,0.0,0.0,0.0,0.0,0.0,0.0,0.0,0.0,0.0,0.0,0.0,-1.9466,-1.9466,-1.9466,-1.9466,-1.9466,-1.9713,-1.9853,-1.9853,-2.01,-2.0173,-2.0173,-2.0173,-2.0173,-2.0173,-2.0173,-2.0193,-2.0287,-2.0287,-2.024,-2.0273,-2.0273,-2.0273,-2.0273,-2.0273,-2.0273,-2.0381,-2.0902,-2.1109,-2.1109,-2.1109,-2.1109,-2.1109,-2.1109,-2.1109,-2.1109,-2.1109,-2.1109,-2.1109,-2.1109,-2.1109,-2.1109,-2.1109,-2.1109,-2.1109,-2.1109,-2.1971,-2.2952,-2.3263,-2.4193,-2.5056,-2.5362,-2.6407,-2.7203,-2.7203,-2.8182,-2.8984,-2.8984,-2.8984,-2.8984,-2.8984,-2.8984,-2.8984,-2.8984,-2.8984,-2.8984,-2.8984,-2.8984,-2.8984,-2.8984,-2.8984,-2.8636,-2.7877,-2.7822,-2.7416,-2.6619,-2.6591,-2.6591,-2.6591,-2.6591,-2.6591,-2.6591,-2.6591,-2.6591,-2.6591,-2.6591,-2.6591,0.0,0.0,0.0,0.0,0.0,0.0,-2.1109,0.0,-2.1109,0.0,0.0,0.0,0.0,0.0,0.0,0.0,0.0,0.0,0.0,0.0,0.0,0.0,0.0,0.0,0.0,0.0,0.0,0.0,-1.9424,-1.9424,-1.9424,-1.9486,-1.9546,-1.9546,-1.9666,-1.9733,-1.9733,-1.9733,-1.9733,-1.9733,-1.9733,-1.982,-1.998,-1.998,-2.0074,-2.0173,-2.0173,-2.0173,-2.0173,-2.0173,-2.0173,-2.0261,-2.0501,-2.0708,-2.0855,-2.0855,-2.0962,-2.1109,-2.1109,-2.1109,-2.1109,-2.1109,-2.1109,-2.1109,-2.1109,-2.1109,-2.1109,-2.1109,-2.1109,-2.1109,-2.1109,-2.1538,-2.2153,-2.2889,-2.3512,-2.4124,-2.481,-2.6034,-2.7013,-2.7013,-2.8062,-2.8984,-2.8984,-2.8984,-2.8984,-2.8984,-2.8984,-2.8984,-2.8984,-2.8984,-2.8984,-2.8984,-2.8984,-2.8984,-2.8984,-2.8773,-2.8388,-2.7858,-2.7334,-2.694,-2.66,-2.6591,-2.6591,-2.6591,-2.6591,-2.6591,-2.6591,-2.6591,-2.6591,-2.6591,-2.6591,-2.6591,-2.1109,0.0,0.0,0.0,0.0,0.0,0.0,0.0,0.0,0.0,0.0,0.0,0.0,0.0,0.0,0.0,0.0,0.0,0.0,0.0,0.0,0.0,0.0,0.0,0.0,0.0,0.0,-1.9424,-1.9424,-1.9424,-1.9424,-1.9424,-1.9424,-1.9424,-1.9424,-1.9424,-1.9424,-1.9424,-1.9424,-1.9424,-1.9424,-1.9479,-1.9679,-1.9679,-1.98,-1.9993,-1.9993,-1.9993,-1.9993,-1.9993,-1.9993,-1.9993,-1.9993,-2.0174,-2.0448,-2.0528,-2.0688,-2.0882,-2.0962,-2.1042,-2.1109,-2.1109,-2.1109,-2.1109,-2.1109,-2.1109,-2.1089,-2.1009,-2.0989,-2.0969,-2.0889,-2.0869,-2.1167,-2.2512,-2.2566,-2.2751,-2.4344,-2.5427,-2.6286,-2.6585,-2.7733,-2.8645,-2.8645,-2.8838,-2.8984,-2.8984,-2.8984,-2.8984,-2.8984,-2.8984,-2.8984,-2.8984,-2.8984,-2.8984,-2.8984,-2.8618,-2.8168,-2.7693,-2.6967,-2.6591,-2.6591,-2.6591,-2.6591,-2.6591,-2.6591,-2.6591,-2.6591,-2.6591,-2.6591,-2.6591,-2.6591,-2.6591,0.0,0.0,0.0,-2.1109,0.0,0.0,0.0,0.0,-2.1029,0.0,0.0,0.0,0.0,0.0,0.0,-1.9813,0.0,0.0,0.0,0.0,0.0,0.0,0.0,0.0,0.0,0.0,0.0,-1.9424,-1.9424,-1.9424,-1.9424,-1.9424,-1.9424,-1.9424,-1.9424,-1.9424,-1.9424,-1.9424,-1.9424,-1.9424,-1.9424,-1.943,-1.9379,-1.9379,-1.9444,-1.9457,-1.9457,-1.9457,-1.9457,-1.9457,-1.9457,-1.9457,-1.9457,-1.9573,-1.986,-2.014,-2.0193,-2.0301,-2.0588,-2.0875,-2.1109,-2.1109,-2.1109,-2.1109,-2.1109,-2.1109,-2.1049,-2.0768,-2.0688,-2.0621,-2.0334,-2.02,-2.0557,-2.1735,-2.1148,-2.0967,-2.333,-2.3972,-2.4442,-2.5618,-2.6916,-2.7858,-2.7858,-2.8462,-2.8984,-2.8984,-2.8984,-2.8984,-2.8984,-2.8984,-2.8984,-2.8984,-2.8984,-2.8984,-2.8984,-2.8618,-2.8049,-2.7242,-2.6811,-2.6591,-2.6591,-2.6591,-2.6591,-2.6591,-2.6591,-2.6591,-2.6591,-2.6591,-2.6591,-2.6591,-2.6591,-2.6591,0.0,0.0,-2.1109,-2.1109,0.0,0.0,0.0,0.0,0.0,0.0,0.0,0.0,0.0,0.0,0.0,-1.98,-1.9553,0.0,0.0,0.0,0.0,0.0,0.0,0.0,0.0,0.0,0.0,-1.9424,-1.9424,-1.9424,-1.9424,-1.9424,-1.9424,-1.9424,-1.9424,-1.9424,-1.9424,-1.9424,-1.9424,-1.9424,-1.9424,-1.9424,-1.9424,-1.9424,-1.9424,-1.9424,-1.9424,-1.9424,-1.9424,-1.9424,-1.9424,-1.9424,-1.9424,-1.9491,-1.9546,-1.984,-2.0067,-2.0247,-2.0347,-2.0448,-2.0528,-2.0528,-2.0528,-2.0528,-2.0528,-2.0528,-2.0508,-2.0408,-2.0381,-2.0361,-2.0261,-2.0173,-2.0288,-2.0705,-2.053,-2.0409,-2.1233,-2.2178,-2.3173,-2.4351,-2.57,-2.688,-2.7642,-2.8051,-2.8235,-2.8235,-2.8235,-2.8235,-2.8235,-2.8235,-2.8235,-2.8235,-2.8235,-2.8235,-2.8235,-2.782,-2.7361,-2.682,-2.6664,-2.6591,-2.6591,-2.6591,-2.6591,-2.6591,-2.6591,-2.6591,-2.6591,-2.6591,-2.6591,-2.6591,-2.6591,-2.6591,-2.1109,-2.1109,0.0,-2.1109,-2.1109,0.0,-2.0869,0.0,-2.0588,0.0,0.0,0.0,0.0,0.0,0.0,-1.9646,-1.9492,0.0,0.0,-1.9424,0.0,0.0,0.0,0.0,0.0,0.0,-1.9424,-1.9424,-1.9424,-1.9424,0.0,0.0,-1.9424,-1.9424,-1.9424,-1.9424,-1.9424,-1.9424,-1.9424,-1.9424,-1.9424,-1.9424,-1.9424,-1.9424,-1.9424,-1.9424,-1.9424,-1.9424,-1.9424,-1.9424,-1.9424,-1.9424,-1.9424,-1.9424,-1.945,-1.9579,-1.9826,-2.008,-2.008,-2.0147,-2.0173,-2.0173,-2.0173,-2.0173,-2.0173,-2.0173,-2.0173,-2.0173,-2.0154,-2.008,-2.008,-2.0,-2.0039,-2.0449,-2.0218,-2.0159,-2.1029,-2.1553,-2.2185,-2.3402,-2.4326,-2.5195,-2.5953,-2.6471,-2.6974,-2.7662,-2.7822,-2.7822,-2.7822,-2.7822,-2.7822,-2.7822,-2.7822,-2.7767,-2.762,-2.7381,-2.7013,-2.6619,-2.6591,-2.6591,-2.6591,-2.6591,-2.6655,-2.6793,-2.6655,-2.6655,-2.6793,-2.6655,-2.6591,-2.6591,-2.6591,-2.6591]}]]